GFSSGP_prec_cthk_000.txt.gz
RH
38 36 29 18 22 23 26 28 33 39 41 39 40 36 38 40 40 42 40 39 37 34 33 32 35 33 36 34 30 26 23 20 16 13 21 19 22 21 23 21 24 22 22 18 20 22 21 26 27
38 42 32 22 22 25 25 28 31 36 38 40 41 38 37 38 43 45 43 41 38 35 33 37 38 36 41 34 24 21 20 18 16 12 22 29 30 27 26 21 22 20 20 19 17 18 20 21 22
37 42 40 30 23 25 31 29 29 32 37 41 41 39 38 39 43 49 45 44 41 37 36 37 40 37 36 36 28 22 18 16 14 12 21 30 30 30 28 23 21 19 18 17 17 15 18 18 21
38 38 44 33 22 22 27 28 27 32 34 39 40 39 38 41 46 50 49 46 42 39 37 37 39 38 38 38 32 23 19 18 13 12 20 28 30 30 29 21 20 19 18 17 17 16 15 16 17
41 36 42 44 35 23 23 25 26 34 34 35 39 38 39 40 49 49 47 46 43 42 40 39 39 41 40 36 35 32 27 21 18 14 20 26 28 29 30 22 20 19 19 15 16 18 18 16 15
46 38 37 44 41 33 25 25 26 30 34 34 37 37 40 41 46 49 47 45 43 42 41 42 40 42 41 42 41 38 36 33 26 18 17 24 27 28 28 26 19 20 19 17 19 20 20 20 20
46 44 38 37 44 39 29 22 27 28 33 36 35 39 37 37 37 47 46 43 42 42 41 41 42 42 43 45 44 42 40 38 35 30 23 21 23 24 22 21 20 20 20 20 17 21 21 23 22
48 45 42 35 37 45 34 22 27 30 30 33 38 39 41 44 40 44 47 47 43 42 41 41 42 44 45 46 43 43 42 41 37 32 27 25 24 23 23 20 21 20 21 21 19 19 20 22 25
51 48 44 39 35 42 40 31 28 31 33 32 37 38 43 52 47 46 47 47 46 42 41 38 39 42 43 45 46 41 41 38 36 33 30 28 30 29 25 25 25 24 24 25 25 26 26 27 27
53 49 42 41 37 39 44 39 31 31 33 34 36 45 51 51 50 49 51 51 48 45 40 37 38 39 41 40 42 44 43 41 41 36 35 33 33 32 28 28 28 28 29 30 30 30 30 30 32
56 47 44 43 41 39 45 44 35 31 32 35 38 51 53 50 46 47 50 50 50 47 42 37 37 37 38 37 40 40 36 35 33 32 33 33 31 31 31 32 33 33 33 32 33 31 33 33 31
55 48 47 45 45 42 43 48 38 33 32 37 37 44 44 45 44 44 48 48 49 47 44 41 37 36 35 35 34 33 30 28 30 29 29 29 30 30 32 33 34 34 35 36 35 35 34 33 33
58 51 50 49 48 44 41 48 47 33 30 36 36 36 41 42 40 42 44 45 47 46 43 42 40 37 33 32 32 30 30 29 28 28 29 29 30 31 33 36 35 37 38 37 37 38 39 39 40
61 58 53 52 51 49 43 44 47 43 29 29 32 33 36 37 34 40 43 42 42 41 39 38 38 35 32 33 34 30 30 33 32 33 34 34 34 34 34 35 36 37 39 38 39 40 39 39 41
68 64 62 54 52 50 47 40 44 48 32 22 23 27 29 32 32 36 38 37 37 36 35 35 35 34 33 35 35 30 33 34 34 35 37 39 39 39 40 41 42 45 45 44 47 48 48 48 48
74 70 65 54 55 50 47 39 44 39 35 25 22 25 27 31 31 31 32 32 33 33 33 34 34 32 32 36 33 33 35 34 35 36 39 40 41 41 42 43 46 46 47 48 48 47 45 43 43
81 72 61 60 55 51 47 40 40 38 32 29 23 26 27 29 29 30 32 32 33 33 33 32 32 30 28 34 36 36 36 35 38 39 41 41 41 42 43 43 42 40 38 37 35 36 37 36 39
80 71 61 59 54 47 44 40 41 38 33 27 25 27 28 30 32 31 31 31 31 32 30 29 27 23 28 35 38 36 38 40 41 41 41 42 43 43 40 35 33 32 32 33 35 38 38 37 39
72 63 62 56 53 51 49 42 40 40 35 29 25 30 29 33 33 32 31 29 28 29 30 25 24 29 34 37 35 36 38 39 38 39 40 40 37 35 34 34 34 35 36 36 35 34 31 30 30
73 66 62 63 54 52 50 43 44 41 33 28 24 30 31 33 35 35 33 30 29 29 26 26 30 33 35 34 35 37 36 35 35 34 33 34 35 36 36 37 38 36 32 30 29 29 30 31 31
77 70 63 63 60 58 50 41 41 39 35 32 22 28 31 32 34 36 33 32 30 27 29 34 35 35 33 33 35 35 33 31 32 34 37 38 40 40 38 33 29 28 28 28 27 26 26 26 25
78 70 70 68 72 66 53 48 42 38 36 33 25 27 32 33 35 36 34 30 27 30 33 35 36 35 33 33 32 31 33 36 39 41 42 39 35 32 30 29 29 28 26 23 20 19 18 21 21
76 73 68 71 74 66 57 52 39 39 36 32 26 29 32 33 35 37 34 29 31 34 35 36 36 34 34 35 36 38 40 42 42 41 37 35 33 32 30 27 22 19 18 18 18 16 16 20 21
81 74 74 69 70 66 54 50 41 36 31 29 27 31 32 34 37 39 35 34 35 37 37 38 38 38 38 38 39 41 44 45 43 40 36 32 29 27 26 24 23 19 18 17 17 17 17 17 18
81 79 93 89 81 62 50 50 40 39 34 32 29 28 31 36 38 39 35 37 38 40 40 40 41 40 39 40 43 47 47 44 39 33 30 30 31 29 25 22 19 18 17 17 18 18 18 19 19
79 73 69 72 64 54 57 49 37 35 34 34 32 31 31 34 38 38 39 39 41 42 41 42 43 41 40 44 49 47 43 39 35 33 35 34 31 25 22 20 19 18 18 18 18 19 19 20 21
89 81 69 64 59 56 50 44 38 36 34 34 35 33 34 37 40 41 41 41 42 42 43 44 43 42 46 49 48 44 41 37 37 39 39 34 30 25 22 21 20 19 19 19 19 19 18 16 15
85 76 77 66 67 62 51 47 43 37 35 34 33 34 35 39 39 39 42 44 44 45 46 45 45 50 50 47 46 43 41 40 41 41 38 35 31 26 23 21 20 20 20 19 17 15 13 13 14
78 85 78 64 58 54 51 46 39 37 33 32 34 35 38 40 41 42 45 47 46 48 48 50 53 49 48 47 46 44 43 42 43 43 40 36 31 25 23 22 21 21 19 16 14 13 14 15 15
75 68 70 70 65 55 52 48 41 37 33 32 33 37 40 41 43 46 49 50 50 50 51 55 50 49 47 46 46 45 43 44 45 44 41 34 28 25 23 23 21 18 15 15 14 14 15 16 16

GFSSGP_prec_cthk_003.txt.gz
RH
34 34 33 26 25 23 26 33 41 40 39 36 37 35 34 38 37 45 43 41 38 40 40 33 35 36 38 37 35 26 22 19 16 14 21 21 23 25 22 24 28 24 21 17 20 23 23 21 27
36 35 37 31 22 29 25 35 34 43 34 37 37 36 35 39 38 43 44 41 40 41 41 40 39 38 43 40 32 23 19 18 15 12 21 25 28 29 28 23 23 22 20 18 16 15 16 20 20
40 37 36 40 27 26 38 37 38 29 37 41 41 38 36 38 39 42 44 40 43 44 42 41 41 41 42 40 36 28 20 16 13 12 19 28 28 30 29 30 22 22 22 19 17 15 13 14 18
43 40 37 38 37 25 28 34 27 27 36 41 40 40 39 37 39 42 42 46 48 47 43 36 43 41 41 41 39 36 28 21 15 12 19 27 28 31 29 28 23 22 22 18 16 16 16 15 14
46 42 39 37 42 35 21 22 25 28 35 40 40 41 41 40 39 41 45 50 50 48 44 37 41 39 39 41 41 37 35 31 26 16 18 23 27 30 31 29 25 21 20 18 15 16 18 18 18
48 45 42 38 38 45 33 25 24 27 34 35 38 38 42 41 40 41 48 50 48 48 45 42 40 40 40 41 43 42 39 37 34 28 22 21 25 26 38 28 26 18 18 18 17 15 18 19 19
49 48 47 40 37 43 43 26 22 28 31 37 35 39 44 39 38 37 48 50 47 47 44 46 41 41 41 43 44 43 42 40 38 34 29 27 29 31 31 27 21 17 18 19 16 16 16 18 20
54 53 48 41 41 37 45 37 22 28 27 32 34 38 49 35 35 34 38 49 48 46 46 47 45 43 42 42 39 41 42 41 37 35 31 29 30 30 27 26 24 23 21 21 22 23 22 22 22
56 53 46 42 42 37 40 41 32 28 28 28 34 36 36 36 44 46 42 48 51 49 49 48 46 44 42 41 42 38 36 35 33 32 31 29 31 35 34 32 28 28 28 28 28 28 28 27 26
58 53 46 42 44 45 42 38 42 31 28 31 31 34 37 37 50 51 50 52 52 53 53 50 46 45 44 42 41 40 40 37 35 35 35 34 34 35 29 29 30 30 30 29 29 28 27 27 28
58 51 49 45 47 46 42 36 40 39 26 29 34 34 36 38 51 54 52 51 53 53 53 51 48 45 45 44 41 40 38 36 32 34 34 33 32 34 34 34 33 31 31 32 34 34 35 37 37
57 55 50 49 51 48 44 38 37 42 30 29 33 35 38 47 51 54 51 48 51 53 52 52 46 43 46 45 39 38 37 35 34 32 33 33 34 34 35 36 37 36 37 38 39 39 40 40 38
64 54 56 54 52 49 46 40 37 40 38 27 29 34 37 47 48 48 47 46 46 50 50 50 47 46 45 44 43 39 39 37 36 36 36 36 37 37 38 39 39 39 39 40 42 41 42 44 43
66 61 60 57 54 49 48 43 38 37 48 32 26 28 29 38 40 43 44 44 46 48 48 46 44 43 45 44 43 41 41 39 39 38 39 39 39 41 42 45 47 47 47 46 46 47 48 48 46
74 68 67 59 59 51 51 44 38 36 45 37 23 21 26 29 32 38 39 40 43 44 42 40 38 39 43 45 45 43 42 40 42 41 40 41 43 46 48 49 49 48 48 49 49 47 42 39 37
70 76 73 62 60 54 54 44 40 38 35 35 31 22 24 28 29 36 35 35 38 40 37 35 34 35 41 44 46 44 44 45 45 43 42 44 46 45 48 49 49 47 44 41 37 34 32 33 36
88 76 71 71 61 57 55 43 38 40 35 32 32 30 25 27 27 32 33 33 34 35 33 33 35 37 40 43 45 45 46 48 48 45 46 47 45 45 46 44 40 38 36 35 34 35 37 38 36
79 74 70 73 64 59 56 46 40 38 36 35 30 30 27 27 27 31 34 34 36 36 35 33 35 37 39 42 39 44 46 46 44 44 46 45 42 40 38 37 35 34 35 38 38 38 36 33 31
79 78 71 69 64 62 54 45 39 39 39 39 32 29 26 29 31 33 34 36 36 35 35 33 33 36 38 37 40 44 45 44 43 43 40 38 38 36 34 35 37 39 39 37 32 29 26 26 26
80 76 70 72 69 59 51 44 41 41 41 39 33 31 26 30 34 35 36 36 34 33 32 33 35 37 34 38 41 42 41 39 37 34 33 32 32 36 40 41 37 33 27 25 23 23 21 22 21
76 83 74 72 71 56 53 47 43 42 41 36 32 31 28 30 35 35 36 36 35 33 31 31 31 33 43 39 37 35 34 36 34 32 33 37 41 42 37 32 27 24 22 20 18 19 19 20 20
85 70 72 73 72 61 55 44 42 43 37 35 35 36 31 28 34 35 35 36 36 32 31 29 29 31 36 36 35 34 36 35 36 38 40 42 40 34 30 26 24 22 20 19 17 18 18 20 20
91 86 74 77 68 73 65 56 44 44 36 35 35 36 31 28 34 36 36 37 34 33 30 29 30 33 33 35 37 39 39 39 40 43 43 38 32 27 25 23 21 20 19 18 18 18 17 19 21
84 83 76 79 71 66 55 55 45 44 37 35 35 36 35 29 34 36 38 37 34 33 33 34 36 37 40 42 40 40 40 42 44 41 35 29 26 27 28 26 22 20 19 19 18 18 18 19 21
91 90 90 83 77 58 55 55 47 42 35 33 32 34 35 31 35 37 38 37 37 36 36 39 42 43 44 41 39 41 45 46 43 35 30 30 32 32 32 27 23 21 20 19 18 18 19 20 18
87 88 66 69 64 53 52 52 46 39 38 34 35 36 36 34 36 36 36 38 40 39 40 42 43 44 43 40 41 44 48 45 39 36 34 35 37 35 32 27 23 21 20 20 20 19 18 17 17
93 89 69 63 54 58 52 49 43 37 35 34 36 38 37 37 37 37 38 40 41 40 41 42 44 44 42 41 46 47 44 42 41 38 38 40 39 36 32 26 24 22 21 21 19 17 17 18 16
90 76 73 62 62 59 54 51 53 44 36 33 33 39 40 39 41 43 41 41 41 42 42 43 44 44 44 50 49 46 44 43 42 41 40 41 39 36 30 27 25 23 22 19 18 19 19 18 17
91 86 70 58 56 56 58 55 48 41 35 34 33 35 39 37 40 44 43 42 44 43 44 46 47 48 53 50 46 44 45 45 45 43 42 42 39 33 30 28 26 22 20 20 21 21 19 18 17
84 76 64 62 62 54 51 56 44 38 35 32 32 35 38 39 42 44 44 44 45 47 48 47 50 55 52 47 44 45 47 46 44 45 44 41 37 32 30 28 23 22 22 23 23 20 19 18 17

GFSSGP_prec_cthk_006.txt.gz
RH
34 33 34 34 26 22 30 26 40 42 46 43 37 35 35 36 36 46 45 45 41 38 35 34 37 36 39 39 39 34 27 23 19 15 16 19 22 24 21 20 21 20 20 18 17 24 23 22 21
37 35 34 38 27 31 26 29 42 43 36 34 37 39 39 38 36 41 45 40 40 39 39 37 38 38 42 45 36 30 23 21 18 16 20 23 24 26 25 21 19 18 18 17 16 16 15 16 19
40 39 37 38 39 25 33 39 39 34 36 34 37 38 38 40 36 41 39 39 42 42 45 44 39 40 41 39 38 34 30 23 17 15 20 27 27 28 29 29 22 19 19 18 16 16 14 13 15
43 41 40 37 41 36 25 36 33 33 32 34 37 43 43 43 40 41 39 40 41 43 45 42 38 43 42 40 40 38 33 32 25 18 22 25 26 27 27 29 28 21 19 18 16 15 16 16 15
46 45 44 41 39 40 31 24 27 24 27 35 40 45 40 42 41 41 40 41 42 47 48 42 36 41 41 41 42 41 39 37 34 28 30 25 26 26 29 28 27 21 16 15 14 12 12 14 15
51 48 49 45 38 39 40 37 24 22 25 32 41 40 45 43 43 41 41 40 45 48 45 41 38 39 40 39 40 41 42 41 38 33 32 33 34 34 33 34 26 19 14 12 12 12 12 13 14
52 52 50 46 42 42 46 39 31 22 26 31 34 40 47 43 41 43 41 40 44 49 46 42 41 42 38 38 38 41 42 41 40 35 32 31 35 39 39 32 26 21 19 19 18 17 18 19 20
51 55 50 48 47 44 40 40 37 25 24 30 32 36 49 40 41 40 40 42 42 50 47 46 46 44 40 38 37 37 38 37 34 31 29 29 31 32 31 31 29 28 27 26 26 26 25 24 24
55 55 52 48 47 44 41 41 37 36 27 25 30 32 39 35 38 39 38 40 43 48 49 50 51 51 45 42 42 39 32 30 29 27 25 24 28 31 30 31 29 30 30 30 30 30 30 30 30
54 54 45 46 45 45 46 44 36 36 37 25 28 30 37 35 36 36 43 49 47 50 50 50 52 52 48 44 42 39 35 32 31 30 30 28 29 30 31 30 32 32 32 32 33 33 33 33 33
54 50 45 43 45 45 48 46 40 36 36 32 28 32 37 35 34 36 46 50 50 53 53 53 52 53 50 46 44 44 40 35 34 35 35 34 32 32 32 33 34 32 33 34 35 36 37 37 38
53 50 50 45 51 55 49 44 41 37 34 40 31 32 32 32 32 36 47 51 53 54 53 52 53 53 51 48 46 46 45 40 38 37 37 37 37 37 38 39 38 39 39 41 42 45 45 45 45
52 53 53 50 49 52 54 47 42 39 34 36 39 27 27 31 32 35 44 51 53 51 50 50 52 52 50 49 48 47 48 46 42 40 42 40 40 40 40 42 45 51 50 50 49 47 46 46 45
61 56 54 54 52 52 54 48 46 38 37 34 43 31 26 27 30 37 48 48 51 50 48 49 50 51 48 48 47 48 49 50 46 45 44 43 43 43 44 49 50 50 50 50 49 46 41 35 33
64 70 61 53 54 56 57 50 45 39 40 35 39 38 22 21 27 37 40 42 45 45 44 44 48 48 47 48 48 50 49 50 49 49 48 47 46 44 47 50 50 49 46 44 39 33 31 30 31
67 70 74 47 55 54 60 53 45 43 42 37 31 34 33 23 24 28 33 35 39 38 38 40 41 42 43 44 48 50 52 50 49 47 50 48 47 46 46 45 41 38 37 34 33 33 33 34 34
71 70 64 59 55 60 56 53 46 43 43 38 32 32 33 31 24 24 28 30 35 36 34 39 38 36 41 46 50 50 51 48 44 47 49 49 47 45 40 34 34 34 33 34 34 35 33 30 26
64 74 62 61 53 58 54 58 50 46 42 38 34 32 31 35 29 25 27 29 34 35 36 37 38 40 42 44 45 46 46 43 46 48 48 44 41 37 34 33 32 33 35 35 33 28 24 20 19
59 64 72 61 62 62 57 58 54 50 44 39 37 35 34 31 32 28 30 31 35 37 37 38 38 38 39 40 41 43 42 45 47 44 41 37 36 34 31 31 35 37 34 29 24 19 17 17 16
59 72 73 66 68 65 59 58 52 49 43 40 39 37 36 33 30 31 32 33 35 37 39 39 38 38 39 39 39 42 42 42 40 36 35 34 33 34 36 37 36 30 25 21 18 18 17 16 16
61 67 72 65 67 68 63 61 54 45 41 40 39 38 35 34 32 31 34 35 36 36 37 37 36 36 38 37 35 38 39 36 34 35 37 37 37 36 35 33 28 22 19 18 17 17 16 16 16
61 46 66 77 82 78 62 65 50 43 43 42 39 41 34 33 33 31 34 36 36 36 35 34 35 35 33 29 30 32 33 37 39 39 38 38 35 34 33 26 24 21 19 18 17 17 17 17 16
51 50 62 75 94 81 69 70 46 45 45 39 38 41 36 37 37 32 31 36 36 35 35 35 34 33 32 33 35 37 39 41 41 39 38 36 34 29 26 25 25 24 21 20 18 18 18 18 18
52 56 68 96 96 91 78 69 51 50 40 42 38 37 37 39 38 32 31 35 37 37 36 35 34 35 36 37 39 41 41 41 41 41 39 36 30 27 29 30 28 25 22 21 20 20 20 19 17
73 68 94 99 98 88 68 68 50 44 43 38 37 37 38 40 39 35 31 35 38 38 37 37 39 40 40 40 41 40 40 40 40 39 38 35 32 33 35 34 30 26 24 23 22 21 19 17 18
79 83 99 93 94 71 56 64 56 50 41 38 35 36 36 37 38 36 33 36 39 39 40 40 41 41 42 42 41 40 41 39 41 40 38 36 36 36 36 34 28 27 26 24 22 20 18 19 20
87 96 89 98 61 64 57 53 46 46 41 40 36 37 39 38 38 37 35 36 38 40 42 42 41 42 43 43 41 42 41 45 42 41 41 40 39 39 37 31 29 28 26 24 22 20 21 21 20
86 81 98 93 67 71 63 54 48 45 39 36 35 37 40 40 40 40 40 40 42 44 43 42 43 44 43 42 43 46 48 44 42 42 42 42 41 39 34 31 30 29 27 24 22 22 22 21 20
98 98 95 89 70 63 68 62 49 41 42 38 36 36 38 40 40 41 43 46 47 45 44 44 46 45 45 43 50 52 47 43 43 45 45 43 41 38 35 32 31 28 26 24 24 24 23 21 17
91 91 90 74 71 61 61 58 45 44 40 38 36 36 38 40 40 40 43 45 46 45 46 47 47 47 45 50 55 50 45 45 46 46 46 44 41 39 35 32 29 27 26 25 25 24 21 17 16

GFSSGP_prec_cthk_009.txt.gz
RH
35 34 32 34 25 27 25 29 34 47 44 37 38 40 42 36 36 44 43 42 41 37 34 34 37 37 36 38 38 35 26 21 18 16 18 18 23 24 19 20 21 18 16 15 14 20 20 21 21
37 36 35 34 33 30 29 30 33 35 36 37 39 39 39 40 39 40 44 39 38 37 35 37 41 41 38 38 37 33 30 26 19 18 20 21 23 26 26 23 19 17 16 15 15 15 16 15 16
39 39 38 37 42 31 31 29 34 34 36 34 35 38 40 42 39 42 41 39 38 38 38 39 41 41 40 41 39 37 33 32 29 22 22 26 26 27 27 28 21 20 16 15 14 15 15 14 14
43 41 40 39 36 33 35 28 31 34 36 34 35 39 42 42 40 39 38 38 37 37 38 39 45 41 41 41 38 37 36 35 31 29 32 27 26 28 27 27 19 20 16 13 12 13 13 13 13
46 45 45 43 39 38 35 33 29 32 33 35 37 40 43 45 42 41 39 40 39 38 40 46 45 40 42 41 39 38 36 36 34 33 35 33 36 37 33 29 26 18 12 11 12 11 11 11 12
46 47 50 47 41 37 38 39 34 29 31 27 35 43 45 48 45 45 42 41 40 40 44 47 44 41 43 41 39 37 37 38 36 32 34 34 36 39 41 41 33 24 18 17 17 16 16 16 17
45 48 50 47 43 43 42 42 37 35 24 28 32 40 46 46 43 43 44 43 41 39 48 48 45 42 44 40 38 37 38 36 33 31 27 26 31 36 37 35 30 28 27 26 26 26 26 26 24
45 49 46 47 46 44 44 44 40 37 29 27 29 36 44 44 42 42 43 44 41 38 48 49 46 45 45 43 39 37 37 34 29 27 24 23 24 26 26 27 29 31 32 33 33 33 33 33 34
48 52 47 44 47 43 46 46 41 35 35 29 27 31 39 39 41 41 40 42 41 38 44 50 49 50 47 47 44 41 37 33 29 25 26 26 26 26 25 26 29 32 34 36 37 38 38 38 37
49 50 44 40 41 44 46 48 44 38 35 36 27 28 39 38 37 36 38 38 38 42 42 50 52 52 49 50 49 42 37 37 33 30 29 31 32 31 30 30 31 31 33 33 35 36 36 37 39
44 46 42 39 41 43 48 50 48 42 38 34 37 30 37 37 36 34 34 34 38 47 47 49 51 50 50 51 49 44 42 41 39 38 34 36 36 37 37 37 36 37 36 36 39 40 40 40 40
50 43 45 41 42 42 45 51 46 43 39 36 36 35 33 35 32 33 35 33 35 47 52 52 52 51 51 52 50 46 46 44 44 43 37 39 39 39 39 39 39 41 43 42 43 44 44 45 44
50 46 47 39 39 41 46 48 48 44 40 39 34 36 34 30 31 31 32 31 33 44 50 55 54 53 52 52 53 50 48 49 48 47 46 44 42 42 45 45 43 44 43 44 44 44 43 36 31
55 53 46 45 43 44 48 47 47 44 43 39 37 32 36 35 27 26 29 29 32 42 51 54 53 52 51 52 54 53 50 52 50 51 52 51 46 47 50 49 47 46 46 45 42 38 33 30 29
54 54 51 45 43 45 53 50 44 43 44 41 38 35 36 36 29 22 23 28 35 45 51 52 51 48 47 53 54 53 52 53 51 51 53 50 47 50 50 49 49 46 41 38 33 30 30 31 32
58 57 59 54 50 42 56 49 45 43 47 45 41 38 33 32 34 24 22 27 36 43 46 48 45 44 46 52 53 52 53 52 51 52 50 45 47 51 50 49 44 36 32 29 29 31 32 30 26
68 66 67 60 54 59 55 46 45 45 49 48 41 39 33 30 34 32 23 24 30 36 37 39 40 42 48 50 48 50 50 48 49 48 48 48 51 51 45 38 36 33 30 31 32 31 26 22 18
67 70 61 64 53 63 61 50 45 45 49 48 42 38 36 31 31 35 28 24 26 29 32 36 36 42 44 45 48 48 47 47 47 47 49 47 43 40 38 36 33 32 33 32 29 23 20 18 17
62 61 62 54 58 66 56 54 46 45 52 49 45 41 37 34 34 32 31 29 27 29 31 37 39 42 44 44 43 44 48 49 52 50 45 42 39 36 35 35 35 32 28 25 21 19 18 17 16
59 66 60 59 65 73 64 59 49 49 49 50 46 43 39 36 37 33 33 35 33 33 34 38 42 42 43 43 44 47 47 44 41 42 38 36 37 38 36 34 31 28 24 22 20 18 17 17 16
64 66 60 59 61 72 77 71 55 49 50 52 48 46 40 38 39 35 35 36 36 37 39 39 42 43 42 42 42 40 37 34 32 35 38 40 39 35 33 31 28 25 23 20 19 18 17 16 16
68 54 57 60 68 77 78 79 56 47 47 52 49 44 41 40 40 35 36 37 35 39 42 45 45 43 41 39 37 34 32 33 37 41 41 40 37 35 31 27 27 26 24 21 20 19 19 19 19
61 60 62 65 68 81 81 89 53 55 52 49 48 43 39 39 40 35 34 36 33 37 42 42 40 38 37 35 35 36 38 39 41 41 40 39 38 33 29 29 29 27 24 23 23 22 22 21 20
65 69 69 71 76 94 79 90 65 52 46 41 47 44 39 39 42 39 37 36 33 35 40 39 37 37 38 39 40 42 43 42 41 39 38 36 33 33 34 33 32 28 26 26 25 25 24 22 19
77 80 83 92 90 74 76 95 79 54 48 44 42 42 40 40 41 40 39 38 33 33 37 39 38 39 41 42 44 46 45 42 41 39 38 36 38 39 36 35 33 28 27 27 26 26 24 21 21
67 75 78 87 66 54 71 95 69 55 46 48 45 43 42 42 40 41 40 39 37 32 36 38 38 41 43 45 46 46 44 44 42 41 40 42 42 40 38 36 34 29 27 28 26 25 23 22 22
68 76 50 88 71 74 81 88 72 61 54 47 42 42 40 39 40 39 39 39 37 33 37 38 41 43 44 45 46 47 45 45 46 46 45 43 42 42 40 38 34 29 27 26 25 24 23 23 23
74 54 75 90 84 80 74 73 67 56 48 44 42 41 41 41 41 41 39 38 38 38 39 41 43 43 45 47 48 47 45 48 54 51 45 44 46 44 42 38 32 28 27 26 25 24 24 22 18
93 87 66 72 90 97 97 72 59 50 45 43 41 37 38 39 40 40 39 40 41 44 46 46 46 45 48 50 49 47 47 57 57 49 45 47 48 46 42 36 30 28 27 27 26 25 21 16 15
87 93 63 70 81 97 70 59 53 50 44 42 40 39 39 39 41 39 41 43 46 48 48 48 47 50 51 50 49 51 55 60 54 48 49 49 48 45 40 34 29 28 29 28 26 20 16 15 16

GFSSGP_prec_cthk_012.txt.gz
RH
34 34 33 32 31 27 26 26 32 41 39 38 44 42 44 44 43 44 41 42 39 38 35 33 36 38 37 37 36 35 32 28 21 15 17 19 21 23 18 19 19 15 13 13 13 18 18 20 21
36 35 34 33 37 29 27 28 33 38 40 44 43 41 41 44 42 38 37 36 37 34 34 35 38 40 38 38 36 36 33 29 29 30 24 22 20 22 24 19 18 17 14 13 14 15 16 16 17
39 36 37 38 39 35 29 31 31 34 36 38 44 41 42 41 41 39 37 36 37 35 34 36 40 43 42 38 36 35 32 32 30 30 34 32 29 29 26 24 17 18 16 14 13 14 15 15 15
38 40 39 40 37 35 32 32 29 31 33 38 37 39 44 41 39 38 36 37 38 36 36 38 40 42 44 40 39 36 33 32 32 32 35 35 40 38 34 24 20 18 16 13 14 14 14 15 16
37 39 45 43 39 35 36 35 32 33 34 39 39 38 43 44 40 38 37 39 39 38 37 40 43 45 46 41 40 39 36 32 31 31 33 33 37 42 42 38 30 21 14 13 14 15 15 16 16
39 38 45 47 41 36 39 39 37 34 36 34 35 37 41 44 45 44 44 42 41 39 39 44 44 49 48 43 41 40 37 34 31 30 30 29 32 37 42 40 36 29 25 24 24 23 23 22 23
39 42 42 41 44 42 40 41 36 37 37 34 33 36 41 45 45 45 46 45 42 42 40 42 43 46 47 44 43 41 39 36 32 27 25 25 27 29 31 32 30 31 32 33 32 33 33 34 35
40 43 42 40 41 44 43 42 39 37 37 34 28 34 37 46 45 47 47 45 46 44 42 40 45 47 46 43 44 45 40 36 32 27 24 25 26 27 24 23 26 29 32 35 37 39 40 40 40
43 49 47 39 37 37 45 46 44 41 38 37 32 30 33 38 44 46 46 44 45 46 43 37 46 49 46 47 46 48 43 36 33 29 26 25 28 30 28 29 29 29 30 30 32 34 35 37 38
46 49 42 33 31 32 44 49 47 42 41 38 37 32 33 35 37 39 40 40 41 40 40 41 45 52 50 49 48 48 44 39 35 34 33 33 32 34 35 35 37 36 35 34 36 36 37 37 36
44 46 41 35 33 32 36 45 49 45 42 41 38 38 35 34 34 35 36 36 36 36 39 46 47 52 51 49 49 48 46 42 40 40 38 36 36 37 38 40 41 40 38 41 42 40 42 42 40
45 40 44 40 37 37 38 40 45 45 42 44 40 38 41 37 34 35 33 34 34 37 39 48 53 54 54 52 50 50 51 46 42 42 41 40 40 41 44 43 46 47 44 43 43 43 43 43 38
48 43 41 42 40 41 40 40 43 42 46 47 43 39 37 41 36 36 38 30 28 32 37 44 53 55 57 55 52 51 52 49 47 47 45 43 44 45 47 49 48 48 46 44 44 44 43 37 31
46 47 47 45 41 42 42 39 44 40 43 47 45 40 38 35 35 35 36 30 28 30 33 40 55 56 58 56 55 53 53 52 52 50 50 51 49 48 47 47 50 50 48 46 45 38 30 28 30
52 52 51 47 46 48 48 42 39 39 41 42 45 42 36 36 35 34 33 28 24 28 31 38 56 58 58 57 56 56 56 53 53 51 51 50 51 48 50 52 54 50 48 41 33 29 30 30 29
61 57 59 47 50 49 53 40 37 40 40 40 45 43 38 38 38 34 37 32 22 24 29 39 51 55 57 56 56 57 56 53 52 51 49 50 48 52 53 54 52 42 36 33 33 32 29 25 21
69 67 60 56 50 56 55 39 38 41 41 40 42 45 43 40 36 32 31 33 26 25 31 40 48 50 53 54 56 57 53 52 50 50 51 52 54 56 56 46 39 36 35 34 31 26 21 18 18
65 63 58 56 59 58 54 46 48 43 41 41 43 44 44 41 36 33 31 34 32 26 30 37 45 46 48 52 56 55 54 51 51 52 51 56 54 46 42 38 37 37 34 29 25 19 18 18 19
65 64 60 61 63 60 60 55 55 52 44 40 42 41 44 40 38 36 32 30 32 29 25 28 32 38 42 50 53 52 50 50 53 53 51 41 42 38 38 40 38 34 29 24 19 17 17 18 18
61 66 64 61 62 63 62 60 58 49 45 46 44 45 46 42 41 38 34 32 30 31 29 27 30 36 45 50 50 51 50 53 54 47 38 35 37 40 40 38 35 32 25 20 18 19 20 20 19
64 64 62 61 53 55 63 53 55 49 48 47 45 46 47 46 42 39 37 36 32 32 34 34 36 41 46 51 52 53 53 51 44 38 37 40 41 41 40 37 32 26 23 20 22 23 21 21 21
71 65 64 63 67 68 64 65 55 52 48 47 44 47 46 47 45 42 40 40 36 36 37 38 40 45 50 50 51 51 46 41 39 40 41 42 42 40 38 33 28 26 26 25 24 24 23 22 22
74 71 69 69 72 77 60 78 51 53 50 44 38 43 43 50 47 44 42 42 38 40 41 42 44 47 47 47 46 43 38 39 43 45 46 44 40 37 34 32 30 32 29 27 26 25 24 23 23
81 83 82 81 81 85 53 68 49 50 44 43 43 43 46 51 48 45 47 45 38 42 44 45 45 47 45 41 39 39 41 44 47 49 46 41 40 37 35 35 37 35 31 28 26 26 24 23 23
82 87 94 97 92 73 57 67 48 43 44 40 44 43 46 52 47 46 46 46 42 44 42 44 42 42 40 39 39 42 45 49 50 48 45 42 41 38 40 41 40 36 31 28 26 25 24 23 24
84 81 87 92 90 66 65 70 51 38 43 47 46 47 52 51 47 46 47 49 45 43 41 40 38 37 39 41 43 45 48 51 49 48 47 47 44 44 44 43 40 36 31 28 26 25 24 25 25
83 93 64 85 82 87 67 60 44 42 48 48 46 46 44 48 47 48 49 49 47 44 44 42 39 38 42 44 45 47 50 50 50 49 50 52 52 48 46 44 41 37 31 28 27 26 26 27 27
74 69 90 87 93 78 69 69 49 41 51 51 49 50 49 50 51 51 50 48 47 47 45 43 40 40 42 44 46 48 52 52 51 49 52 60 55 49 46 45 42 36 31 29 28 28 29 28 25
86 88 81 67 70 88 70 62 35 44 53 55 57 54 50 50 50 50 49 48 45 44 44 44 46 46 47 49 50 52 55 54 52 54 60 64 55 50 49 44 40 34 30 30 30 30 29 26 23
81 71 71 76 63 64 94 71 43 35 45 60 64 55 52 50 48 49 49 48 46 45 46 47 50 52 52 52 53 56 55 55 60 62 62 68 57 50 44 41 37 32 32 32 31 31 27 23 20

GFSSGP_prec_cthk_015.txt.gz
RH
35 33 32 32 34 28 28 25 26 35 37 38 41 45 45 43 43 47 44 43 40 38 36 36 40 39 36 35 35 34 35 32 27 25 32 23 28 26 19 20 16 14 14 13 15 18 18 21 22
37 36 34 33 36 35 27 25 28 40 41 40 41 44 48 51 48 44 42 40 39 36 34 34 39 40 39 36 36 36 34 31 29 28 32 30 28 27 27 18 18 18 14 13 13 14 16 16 18
39 39 38 38 39 39 29 26 29 34 42 42 42 44 46 48 48 46 44 37 34 33 33 35 37 40 39 38 37 37 32 31 30 35 34 37 41 38 29 20 18 18 15 13 13 14 14 15 15
37 40 40 41 39 35 30 29 30 32 34 43 41 43 44 44 44 45 41 39 33 34 34 36 38 40 41 40 38 38 34 30 30 31 35 39 44 43 41 35 25 19 13 13 14 15 16 17 17
36 36 42 43 40 35 34 32 33 33 32 34 39 41 44 43 44 42 37 35 37 35 34 36 40 43 44 44 42 40 37 32 28 28 32 33 41 42 44 41 34 31 23 20 18 17 17 17 18
38 36 43 39 37 38 37 37 34 36 34 33 34 40 44 43 43 42 39 39 41 38 36 37 41 44 45 46 47 43 39 35 30 29 29 31 35 38 38 37 36 33 31 31 31 30 29 29 30
38 40 41 36 33 39 37 39 39 37 35 37 36 37 40 44 43 43 42 44 45 42 40 40 40 42 45 48 48 45 42 37 33 30 28 27 30 32 34 28 24 26 29 31 34 36 39 40 40
40 43 42 38 34 32 37 40 41 38 37 38 37 37 37 41 45 47 46 48 47 44 45 44 41 41 44 47 49 47 45 41 36 32 29 27 29 32 29 28 28 30 30 30 31 32 35 37 39
40 48 43 36 34 28 36 40 44 42 39 38 38 37 34 34 40 47 47 46 48 46 47 47 44 39 47 51 50 47 46 44 39 33 31 30 32 31 32 33 36 37 38 36 37 37 38 40 41
44 47 40 34 33 30 35 40 46 46 45 42 41 40 36 32 33 39 44 44 45 47 47 45 42 42 46 52 51 50 49 46 42 36 34 36 36 36 37 38 38 40 40 41 42 43 42 42 40
44 43 39 37 36 35 35 38 42 45 46 45 44 43 40 37 33 32 35 38 40 42 44 46 45 47 48 54 54 52 49 49 47 40 42 40 38 38 40 41 42 43 43 47 46 45 44 42 40
44 39 42 42 41 42 39 37 40 42 41 47 47 46 43 42 38 33 32 33 35 36 40 43 45 49 55 55 58 55 52 51 50 47 46 44 43 42 44 41 44 48 48 47 46 45 44 45 42
49 43 42 42 42 44 44 40 41 40 41 44 48 47 45 43 41 40 38 35 33 33 37 40 44 46 57 58 60 61 56 53 54 52 50 48 48 48 45 48 50 47 47 49 48 45 44 40 32
47 47 45 45 43 43 44 41 40 35 39 38 42 48 47 45 40 38 39 38 37 30 29 33 42 46 52 62 64 65 60 58 58 55 54 54 53 52 48 50 48 49 51 51 48 42 35 32 32
53 51 46 46 44 45 44 39 37 34 35 36 38 44 48 47 42 37 36 36 36 35 30 31 35 41 48 62 67 68 64 60 58 55 55 54 53 53 52 50 50 53 52 47 37 34 35 33 29
64 61 58 43 43 47 49 37 39 34 32 33 35 38 44 47 42 37 35 35 34 35 29 27 33 40 46 60 67 68 63 59 57 56 56 57 53 53 54 53 53 50 39 36 37 35 32 25 19
66 67 65 58 51 51 52 42 39 37 39 32 31 34 37 43 44 38 37 35 35 36 34 27 29 38 47 57 67 67 66 63 63 61 60 56 55 56 56 54 41 36 37 36 34 29 23 19 18
68 76 67 63 56 57 55 48 49 46 45 40 35 32 34 37 42 43 38 35 33 33 36 30 31 41 49 56 63 64 67 67 65 61 58 54 56 56 42 38 37 38 37 35 31 22 17 16 16
71 72 73 65 61 60 55 52 48 46 44 42 36 36 34 37 40 43 41 35 34 33 38 39 34 38 45 53 57 60 66 66 63 60 57 56 49 37 34 37 39 38 37 30 21 17 18 17 18
68 72 68 64 61 60 55 48 47 46 42 42 39 35 33 36 38 40 42 38 37 34 33 36 40 36 39 46 53 59 62 60 59 60 57 46 37 37 40 40 39 36 29 22 19 19 19 21 23
71 74 70 66 58 55 56 42 36 35 38 38 36 35 32 34 37 39 41 40 38 37 34 32 34 35 36 46 53 57 58 58 58 58 47 39 41 42 44 44 39 31 25 22 20 20 24 25 24
74 73 72 71 72 72 54 46 35 35 33 32 35 36 35 35 37 39 41 41 42 42 37 35 35 38 46 47 52 54 55 56 57 49 40 42 45 48 47 40 35 30 28 25 23 27 27 25 24
76 75 76 77 80 76 64 74 46 37 34 36 40 38 36 37 37 41 45 43 43 46 41 41 41 44 48 50 53 53 55 56 50 42 43 46 50 50 45 39 35 33 31 29 30 29 27 25 24
83 86 87 88 86 81 64 69 38 33 36 34 37 40 37 38 38 43 47 49 45 49 45 44 47 48 50 51 52 52 51 48 42 44 47 50 52 50 44 41 38 36 35 35 34 29 27 26 25
87 95 98 98 98 82 66 67 43 34 35 31 32 37 39 36 39 43 49 52 48 51 48 47 51 51 51 49 48 47 46 43 45 48 51 54 55 52 49 47 42 40 39 37 33 29 28 27 27
89 88 94 94 91 81 64 63 42 34 28 24 33 36 41 39 40 43 51 52 50 54 52 50 51 50 50 46 44 43 44 46 49 53 55 56 54 52 53 51 48 44 40 36 33 31 29 29 28
98 97 73 87 83 97 81 58 47 36 35 32 34 39 39 41 41 44 52 52 52 57 61 55 53 52 47 42 41 42 45 50 53 56 57 56 55 52 54 59 52 44 38 37 34 30 30 29 29
80 80 97 98 96 92 67 72 57 44 36 30 33 39 43 43 44 47 53 50 53 60 65 62 56 52 47 43 44 45 48 52 54 57 58 58 55 56 59 65 55 43 37 34 31 31 31 29 31
76 76 82 88 88 83 73 51 49 46 42 42 44 44 45 48 48 51 54 54 57 63 63 58 55 52 49 48 47 49 52 54 57 60 61 58 62 65 63 65 55 40 32 31 33 32 31 33 34
84 76 80 94 80 69 76 57 44 52 43 43 52 54 54 57 57 54 56 58 61 61 58 56 53 52 51 52 53 54 57 58 61 61 62 67 70 69 64 63 43 33 33 36 32 32 35 36 33

GFSSGP_prec_cthk_018.txt.gz
RH
35 34 33 31 33 34 29 24 24 27 30 37 44 51 48 45 43 46 44 46 42 39 37 42 41 39 37 35 34 33 33 32 27 34 40 36 31 27 23 17 14 14 14 13 16 17 17 21 22
34 36 35 34 37 36 32 23 26 30 31 37 43 52 51 50 50 47 45 44 43 41 38 37 40 39 38 37 37 35 33 30 27 33 37 35 39 32 23 18 18 15 14 13 13 14 15 16 17
33 36 37 39 41 38 34 26 27 32 33 38 40 45 50 50 50 50 49 45 42 40 36 36 41 40 38 38 39 37 33 30 28 30 35 37 42 34 32 26 21 17 13 12 12 13 14 14 15
34 35 37 41 39 36 32 30 29 32 32 37 41 43 44 48 51 53 50 49 46 43 38 37 39 41 40 39 39 38 35 32 28 29 34 38 42 43 42 39 32 26 19 17 16 15 15 16 17
34 34 39 40 40 38 35 34 32 32 34 35 39 43 44 43 46 47 45 45 43 41 40 38 39 41 42 43 43 42 38 34 30 30 32 40 41 40 39 40 35 32 29 29 29 29 27 25 23
36 34 42 39 33 37 39 38 35 32 34 34 38 40 41 44 43 43 41 43 43 39 38 39 39 42 43 45 46 47 44 37 32 31 33 36 40 40 37 35 32 29 29 31 33 34 36 38 39
38 39 40 35 32 33 37 37 39 37 37 36 38 39 38 41 45 43 44 44 44 43 44 42 41 41 44 45 48 50 48 42 36 34 34 34 35 38 40 33 30 27 28 30 32 33 34 36 38
38 43 42 38 34 32 32 36 40 40 38 37 39 40 38 40 41 42 45 47 46 46 47 45 46 45 43 44 48 52 51 46 41 37 34 33 34 35 35 32 33 36 38 38 40 38 38 39 39
41 48 45 38 36 29 31 36 39 41 43 42 40 40 39 39 39 42 44 45 47 49 49 50 50 50 45 44 50 54 53 49 47 42 36 34 34 35 35 36 39 40 41 41 43 44 44 43 42
43 49 40 35 32 31 32 36 40 42 46 46 44 42 41 40 39 36 40 44 46 48 49 50 51 50 45 47 48 56 56 51 48 44 39 36 37 37 39 41 41 42 43 46 46 47 46 43 43
44 43 38 36 36 36 35 35 39 40 42 44 49 47 45 44 41 38 34 40 46 49 49 50 51 52 49 50 50 54 60 55 50 47 45 42 41 41 43 45 44 45 46 48 48 46 46 44 43
42 37 38 38 37 38 38 38 40 39 37 42 45 49 47 45 43 40 36 33 37 41 43 46 48 51 53 53 58 59 63 60 54 50 51 48 48 48 48 47 45 51 50 49 46 47 45 45 42
49 43 40 37 37 36 38 39 40 38 38 39 42 46 49 47 44 43 41 37 34 33 37 40 43 47 50 52 58 65 64 65 60 56 55 53 53 53 52 49 52 51 50 48 49 49 46 40 35
50 47 45 43 39 38 39 36 39 30 36 37 37 41 46 49 47 44 41 39 39 38 35 35 40 44 47 50 56 66 67 69 67 62 62 59 58 57 54 54 53 52 50 49 50 45 36 34 34
53 53 50 45 39 40 40 37 35 30 30 32 33 36 40 43 48 44 44 39 37 35 38 35 34 37 44 48 55 63 71 75 72 65 62 60 58 58 56 56 55 55 52 50 38 35 36 34 31
59 59 60 49 44 41 41 35 32 34 33 29 30 31 33 35 40 46 44 41 39 36 34 39 37 34 38 47 54 59 70 75 73 65 63 62 61 59 56 56 57 55 44 37 36 36 33 29 23
55 60 61 60 54 52 51 46 38 37 35 34 33 31 31 30 33 39 43 42 39 36 35 36 39 32 34 46 52 59 67 77 74 70 66 66 63 59 57 58 53 37 35 38 35 34 29 22 18
56 61 59 59 58 57 54 53 45 42 40 37 35 31 32 31 31 36 40 43 41 37 37 35 38 38 34 41 49 59 68 74 74 71 68 64 62 59 59 51 36 33 36 35 34 29 21 17 16
60 63 66 62 59 61 57 50 44 41 39 38 34 33 32 30 30 33 37 41 43 39 36 35 36 40 37 39 48 58 66 72 72 73 68 63 64 60 47 37 35 37 39 35 28 20 17 17 18
60 62 63 59 58 56 51 44 43 39 36 35 35 33 32 31 30 31 36 39 43 42 38 36 36 42 46 42 47 56 60 67 72 70 67 65 61 46 41 40 42 42 38 32 24 19 19 21 21
63 66 66 63 58 55 55 37 33 29 27 27 27 29 29 30 31 32 37 38 41 44 42 38 38 39 46 50 49 58 58 64 69 67 66 63 50 43 42 44 45 43 38 31 25 23 23 23 23
68 63 67 69 74 71 58 51 34 32 30 26 24 25 27 28 32 33 39 40 41 42 43 42 40 39 44 50 53 55 56 60 58 61 62 54 45 45 46 46 45 44 40 33 29 27 26 25 26
71 71 76 78 82 81 70 78 43 37 35 31 28 27 29 28 31 34 37 39 41 42 44 45 41 40 39 45 52 59 60 58 56 57 55 46 46 47 48 49 52 49 43 37 34 30 29 28 29
81 84 87 90 90 87 66 77 39 36 31 29 28 25 26 31 32 35 37 39 43 44 45 48 45 44 47 51 56 59 57 55 55 56 47 46 48 51 53 55 55 52 47 44 38 33 32 31 30
82 91 91 94 93 76 66 73 44 36 34 33 31 28 25 30 34 36 38 38 43 46 49 51 47 46 52 56 61 55 55 56 57 52 46 48 51 53 56 57 55 50 51 51 42 36 32 31 33
81 85 95 95 90 81 68 67 49 38 35 34 30 27 26 31 36 39 41 43 46 51 54 54 51 50 57 58 59 58 56 56 51 47 50 52 54 57 59 59 55 52 52 56 49 37 31 32 31
84 88 73 93 91 97 74 56 40 40 36 37 32 28 27 31 38 42 44 46 51 57 57 58 55 54 60 60 56 54 54 47 45 47 50 54 57 59 61 59 57 58 57 57 46 37 33 29 30
74 85 96 97 97 93 72 58 51 44 51 48 41 37 28 32 36 41 44 45 57 65 62 64 63 59 62 61 54 50 47 46 48 49 51 55 59 63 62 60 64 66 62 54 41 32 31 35 37
83 79 81 84 94 92 80 51 38 47 54 50 44 38 35 36 40 43 46 46 58 69 67 68 70 68 64 60 54 51 51 51 51 52 56 60 64 65 63 68 72 69 61 51 42 38 38 38 37
83 83 83 86 74 74 73 49 45 53 50 56 57 49 39 43 44 51 51 55 64 68 70 71 73 72 68 60 56 55 54 55 57 59 62 64 65 65 70 74 73 66 61 51 41 40 39 36 36

GFSSGP_prec_cthk_021.txt.gz
RH
30 32 32 31 32 31 32 23 24 26 27 28 33 43 46 48 49 47 42 42 41 41 42 45 43 40 38 36 34 33 31 29 28 36 42 39 34 26 26 22 13 13 13 13 17 19 22 21 23
30 30 32 33 35 34 32 25 25 29 27 28 35 44 50 51 50 50 47 46 44 43 42 43 44 38 37 36 36 35 32 27 28 39 43 39 37 30 23 21 18 15 13 13 14 16 16 19 19
29 30 32 35 37 35 32 30 24 30 30 32 37 43 49 50 56 49 53 49 49 45 44 44 44 40 39 37 38 38 33 28 26 33 35 35 35 34 33 28 22 16 15 14 13 13 14 14 14
30 32 33 35 34 35 33 29 29 30 32 35 39 44 46 53 54 51 49 50 48 56 48 47 49 45 40 40 40 38 35 32 30 31 33 37 38 38 38 35 31 27 25 24 23 21 19 18 17
31 31 36 36 33 34 36 34 33 31 34 35 37 43 47 48 50 53 51 50 52 48 47 47 51 47 42 41 42 43 39 35 33 35 35 40 40 39 38 37 33 31 30 31 31 31 31 32 33
33 32 37 34 31 34 37 38 36 34 32 35 36 41 42 47 49 48 46 49 47 44 43 44 48 45 45 43 44 45 44 41 36 36 38 39 42 40 39 35 31 27 28 29 29 31 33 35 37
34 34 36 33 30 31 32 36 36 36 36 36 36 41 43 44 49 47 46 45 45 45 47 43 46 46 45 43 45 46 47 45 41 38 38 40 41 42 38 34 33 30 32 35 37 39 37 37 37
34 37 39 35 30 28 29 33 33 35 37 38 37 38 40 43 45 46 47 48 48 49 50 48 49 46 49 47 45 47 47 47 46 41 38 38 40 40 42 37 34 37 39 40 41 41 43 45 43
37 43 41 34 33 29 30 33 35 35 38 41 41 40 40 41 44 45 47 49 49 50 52 56 54 52 52 50 47 48 49 49 50 46 42 38 39 40 37 36 40 42 42 42 44 44 45 44 44
40 44 37 32 31 32 31 32 34 36 36 40 41 41 42 41 42 42 44 47 46 48 51 56 58 58 55 53 49 49 49 53 53 48 45 42 40 39 39 40 43 46 45 45 45 46 46 42 43
42 39 35 34 34 34 34 33 34 35 36 35 40 40 42 42 41 41 40 42 45 48 50 54 59 61 58 55 53 51 52 55 56 52 46 45 45 45 44 45 46 48 47 47 48 48 45 44 44
41 36 37 36 35 36 35 35 35 34 29 33 38 40 42 44 44 42 42 40 40 44 50 52 55 57 60 60 57 54 56 58 58 58 54 51 50 50 50 51 49 50 50 49 49 48 46 46 42
46 40 38 36 35 33 34 32 32 31 29 33 37 39 39 42 44 44 43 41 39 37 46 49 54 55 56 58 57 57 57 62 61 62 63 58 57 56 56 54 55 53 51 50 50 49 47 39 35
50 49 46 43 40 37 34 30 35 24 25 27 30 35 36 38 40 44 43 42 40 40 37 38 41 45 48 51 55 56 57 61 65 69 70 65 64 61 57 56 56 53 52 52 51 45 35 35 34
56 54 48 45 43 41 38 36 35 26 28 26 26 28 31 34 37 39 46 44 42 41 41 40 37 37 42 47 51 54 56 59 69 74 75 71 65 63 61 57 56 54 54 53 40 37 36 35 31
57 56 52 47 48 44 41 34 30 29 30 30 28 26 27 28 31 35 40 44 45 44 40 38 39 38 37 40 47 52 54 58 66 75 76 74 69 67 65 58 57 56 54 38 36 34 36 33 27
54 55 56 48 45 49 50 48 39 36 34 32 30 30 29 29 28 30 34 40 43 45 44 41 38 37 40 40 44 49 56 58 63 74 80 77 73 70 65 59 58 52 38 37 35 31 31 26 22
53 57 53 50 46 48 48 46 41 39 37 34 33 32 30 30 30 29 32 35 40 43 44 42 39 38 38 42 45 45 56 59 66 73 78 76 75 71 64 60 54 39 39 36 33 30 26 23 20
52 55 56 54 50 50 45 40 38 35 35 33 31 28 28 28 30 30 30 31 36 39 42 44 41 40 40 40 48 45 52 57 66 71 77 76 77 69 64 57 42 41 41 39 36 31 27 24 19
54 57 54 52 50 50 45 35 33 31 29 29 28 28 27 26 27 28 29 30 33 37 40 43 42 40 40 40 44 47 49 58 63 71 77 82 73 69 61 45 44 45 43 41 38 36 32 26 21
56 60 58 56 55 52 50 36 26 24 25 26 27 27 27 25 26 26 29 29 29 33 38 43 42 42 42 43 46 53 59 63 64 67 76 74 70 65 49 46 48 47 46 45 44 41 35 28 22
62 58 60 62 66 61 53 46 28 26 25 27 26 26 26 26 26 26 27 30 31 31 38 43 43 46 44 46 48 51 56 60 62 66 73 66 65 55 47 48 51 52 52 52 51 47 40 30 25
61 59 63 68 74 71 63 72 34 34 31 29 31 29 27 25 25 25 26 28 32 33 36 41 43 46 49 49 54 57 64 65 68 68 62 63 56 47 47 52 54 54 55 54 52 49 45 34 27
68 72 75 80 82 81 62 72 37 34 33 29 30 31 30 26 25 28 28 31 33 37 40 44 45 47 50 54 56 56 58 59 64 63 57 55 49 47 50 54 55 57 58 57 54 50 44 36 30
67 78 83 84 87 72 62 73 39 35 35 35 31 31 31 29 28 28 33 35 36 38 42 44 46 48 48 55 58 62 62 68 64 58 55 53 47 49 53 56 58 60 61 59 56 53 48 35 31
61 63 68 75 75 66 70 70 43 35 34 31 31 32 32 30 30 30 34 39 40 40 40 44 48 50 50 56 60 64 72 62 67 59 58 50 48 51 55 59 61 62 63 61 60 57 48 39 36
77 76 67 80 70 84 59 47 39 33 34 40 43 40 40 34 30 28 37 39 42 44 43 48 52 54 55 57 63 69 69 64 65 62 56 49 49 52 56 59 62 66 64 63 63 59 47 43 39
79 77 84 90 87 79 61 61 46 39 44 50 51 44 42 39 31 30 40 44 45 49 48 52 57 58 60 62 70 71 71 67 61 58 52 52 52 55 59 63 68 67 65 65 66 55 48 46 41
91 92 96 96 94 88 74 50 38 39 41 45 49 49 46 43 36 31 39 44 47 51 54 59 62 64 67 68 73 73 66 64 58 54 57 58 58 61 65 70 70 68 68 68 63 56 53 43 42
82 85 89 97 83 91 93 57 47 49 50 57 48 50 56 52 42 37 42 45 50 55 62 67 72 71 72 73 74 70 64 59 57 59 61 63 64 67 71 72 72 71 71 70 64 57 45 39 34

GFSSGP_prec_cthk_024.txt.gz
RH
29 29 30 31 33 29 28 23 21 23 24 23 25 32 36 38 45 48 44 44 42 42 49 48 44 41 38 34 31 31 30 27 28 33 36 38 36 31 27 21 12 11 12 15 16 26 30 30 29
28 29 30 32 32 31 27 25 22 25 25 24 26 33 39 44 45 50 50 44 45 48 52 50 47 44 39 35 33 32 31 27 30 39 39 37 33 29 24 20 16 13 13 13 15 18 19 24 23
27 29 31 32 30 28 29 27 25 25 27 27 29 35 42 46 49 51 49 45 46 50 52 50 47 45 43 38 36 34 31 29 32 36 32 30 31 32 30 27 22 17 16 14 14 14 14 13 14
29 30 30 29 28 27 29 28 28 27 29 31 31 37 43 49 51 57 57 51 60 58 56 56 56 50 46 42 40 38 32 29 34 36 33 32 35 35 35 32 30 26 25 24 23 23 22 22 22
29 29 31 29 25 26 29 30 31 29 30 32 34 37 43 49 50 49 52 53 54 56 60 59 54 50 46 42 41 40 37 35 33 36 37 36 39 38 37 33 31 30 29 29 29 29 30 32 33
32 30 30 28 24 26 28 31 32 32 31 32 34 37 42 46 49 50 49 52 53 54 56 56 53 50 47 41 40 41 41 39 38 40 40 41 42 40 38 36 31 27 27 28 30 31 34 36 35
29 31 27 27 25 25 27 31 32 33 33 33 33 38 41 45 50 51 51 52 51 55 51 53 54 52 48 44 41 42 43 40 40 44 44 42 43 44 42 38 34 31 32 34 36 37 38 39 43
33 33 29 29 24 24 26 28 29 32 34 35 34 37 41 43 47 52 52 52 53 51 51 52 59 55 54 49 47 46 44 43 42 44 47 45 44 45 42 37 35 35 38 39 39 40 45 46 46
33 33 31 27 26 25 27 27 29 29 31 34 35 37 37 39 44 49 54 53 52 51 51 56 59 59 59 58 53 51 47 46 45 43 47 47 47 44 43 38 37 41 42 41 43 44 44 44 42
34 34 28 28 28 28 29 29 30 30 31 32 36 36 37 39 40 45 48 50 51 51 52 54 59 62 66 63 59 55 52 50 49 47 46 49 47 47 41 40 41 43 45 46 46 46 45 44 44
38 35 31 33 31 31 31 30 31 30 30 31 35 37 35 37 41 42 45 50 50 50 53 53 55 63 66 65 61 61 57 56 56 54 50 49 48 46 46 47 48 47 47 47 48 48 45 46 43
37 33 35 33 35 35 33 32 31 30 26 30 33 35 35 35 38 40 43 45 46 47 49 48 52 57 63 68 66 65 59 59 58 57 55 56 57 52 54 55 52 50 49 51 50 49 47 46 40
39 33 35 35 34 32 33 31 32 30 25 27 29 33 34 35 37 39 42 44 45 45 47 48 49 55 54 58 62 63 64 65 60 60 58 64 64 60 57 56 54 55 55 52 51 49 47 40 32
42 40 38 37 35 36 34 29 32 22 23 24 25 26 31 34 35 38 39 42 45 47 46 48 47 49 53 55 61 63 59 60 61 61 62 67 68 64 62 61 59 56 56 54 53 49 38 34 34
51 48 43 41 40 39 40 34 32 24 28 25 23 22 26 31 33 34 37 39 44 47 46 45 44 46 48 52 55 55 56 58 61 62 62 70 71 71 67 64 61 58 57 56 51 37 35 34 31
52 49 46 42 42 41 42 31 30 29 28 28 27 26 25 25 29 31 33 35 41 46 47 46 44 43 42 45 47 51 53 56 59 61 59 67 74 75 72 69 63 60 59 53 38 36 35 31 26
52 44 46 44 41 41 43 39 37 37 34 32 29 29 29 26 26 27 31 32 35 40 46 46 46 43 42 47 49 49 51 51 53 55 58 64 74 80 77 72 67 63 54 40 38 37 33 26 21
43 47 42 40 39 40 39 38 36 35 36 34 33 31 30 28 27 27 28 31 32 34 39 44 47 47 45 46 49 52 55 54 51 53 59 63 68 79 79 74 70 61 43 40 41 37 33 29 25
45 46 44 41 42 41 34 32 31 30 29 30 31 31 29 27 26 28 28 28 30 32 33 39 43 47 47 47 46 49 51 59 62 51 62 63 67 76 78 74 71 50 44 45 42 39 37 33 29
47 48 46 41 40 42 36 26 28 26 24 25 24 24 26 27 27 25 26 27 29 30 31 35 38 43 47 48 48 53 53 59 67 59 60 66 73 74 78 74 60 49 49 47 46 47 45 41 37
47 49 48 48 47 45 42 27 21 20 20 21 22 23 23 25 27 27 26 27 28 29 30 31 34 38 44 48 51 50 50 54 62 63 63 69 68 76 73 67 52 51 50 52 53 52 50 46 43
49 45 48 51 54 54 45 39 25 24 23 21 22 23 23 24 25 28 27 27 27 29 28 29 31 35 39 42 46 49 50 55 63 65 66 70 75 75 68 56 49 51 53 54 54 54 53 50 46
52 50 52 55 57 60 51 67 27 28 27 24 24 24 25 24 25 26 27 25 26 29 29 30 31 35 38 40 45 53 57 61 65 72 75 73 69 71 63 49 49 52 54 54 56 57 56 55 50
60 60 60 60 66 70 50 65 29 28 27 27 26 27 26 26 27 27 26 28 25 29 30 34 34 35 39 41 45 53 57 62 69 69 72 75 73 65 56 48 52 55 56 58 59 59 60 57 51
61 65 61 69 72 49 39 52 32 24 27 29 29 30 28 27 28 29 28 28 32 29 31 36 38 37 40 43 47 52 60 67 70 68 70 71 63 60 52 52 55 57 59 60 61 62 61 56 51
55 58 58 62 52 45 51 43 28 23 26 25 33 31 32 33 32 29 29 29 32 30 33 39 42 41 43 46 49 54 63 68 71 71 72 66 61 58 52 55 58 59 61 62 62 64 61 58 52
59 66 60 75 65 77 56 38 30 28 30 32 34 40 41 38 35 33 30 31 34 35 35 40 46 48 50 52 52 55 65 70 73 81 72 63 63 59 57 59 60 61 62 64 67 67 64 59 51
60 63 83 94 87 79 54 53 46 39 41 41 44 46 52 46 41 38 32 32 38 40 41 46 53 56 57 57 54 59 67 69 81 76 75 63 68 58 59 62 66 66 68 72 72 68 63 57 51
72 83 94 88 89 79 67 51 50 46 44 48 41 42 46 48 46 44 37 38 45 48 48 49 55 58 60 60 59 63 65 81 79 72 76 68 63 62 66 69 69 71 75 76 72 67 64 59 54
67 77 85 96 90 93 92 61 58 61 62 59 48 50 49 55 52 53 45 44 51 53 54 54 57 61 65 66 65 65 80 81 79 85 70 70 65 68 70 71 72 78 78 75 72 69 66 59 47

GFSSGP_prec_cthk_027.txt.gz
RH
28 30 31 31 33 31 28 28 22 23 22 23 27 28 33 39 50 53 54 49 43 44 46 43 43 39 36 33 30 28 28 25 23 26 37 35 36 33 26 19 12 11 14 17 21 32 34 32 31
27 30 31 32 33 32 29 28 24 20 25 24 22 24 29 35 39 46 52 48 46 48 49 46 45 43 41 38 33 30 28 28 32 35 32 33 33 30 24 20 15 13 12 12 14 20 25 25 22
26 29 32 34 30 28 30 35 28 25 23 22 24 24 36 41 40 46 48 45 49 52 52 48 47 48 46 44 37 33 28 30 34 35 31 25 25 27 28 25 21 17 15 14 14 14 13 14 15
29 30 30 33 29 26 27 34 30 26 26 25 27 30 35 39 43 47 48 49 53 56 59 55 52 51 52 44 40 36 32 31 35 35 29 29 30 29 28 28 26 24 23 22 21 20 21 22 23
29 30 33 29 24 22 28 29 27 28 29 29 29 32 39 42 43 46 51 53 61 62 64 55 51 54 51 43 39 36 33 32 37 38 35 35 34 34 32 29 28 27 28 28 28 28 29 30 32
33 28 30 26 25 24 27 29 28 29 29 30 29 32 40 39 45 47 47 49 55 63 65 57 51 53 50 45 40 37 35 34 36 40 40 38 41 42 37 33 31 27 26 28 30 31 33 35 35
33 30 27 26 26 25 26 28 27 29 30 30 32 32 43 41 46 48 50 52 54 60 55 56 55 54 54 48 42 40 37 36 39 42 43 42 45 44 42 37 34 30 31 34 36 37 38 41 41
33 31 30 26 23 23 27 28 26 28 30 35 31 32 44 40 43 51 54 56 54 54 54 60 56 54 56 53 49 44 40 37 39 44 45 47 49 49 47 40 37 35 37 38 40 41 43 43 43
35 38 31 28 24 24 29 27 26 28 30 32 33 34 38 39 44 49 53 54 57 55 56 58 59 55 57 55 51 49 47 43 41 43 44 48 50 51 46 42 37 39 40 42 42 43 43 42 41
36 32 30 25 26 27 30 29 28 29 27 29 32 33 33 36 39 47 52 55 57 56 53 50 56 58 58 55 60 55 53 48 43 42 43 47 53 54 52 43 40 42 42 43 45 45 45 44 44
36 32 28 28 32 32 32 32 31 31 30 29 31 34 34 34 36 40 46 53 53 53 53 54 56 60 57 58 60 63 59 56 55 50 48 51 53 53 52 48 48 47 47 47 46 46 45 46 45
35 32 31 36 37 34 31 31 32 29 30 31 32 36 36 34 35 35 39 47 53 54 52 53 56 60 60 58 58 62 67 62 64 54 52 50 53 55 58 61 61 57 51 51 50 48 47 47 42
38 35 34 34 36 36 34 32 32 32 29 27 30 31 33 34 35 36 37 40 46 51 53 53 54 53 59 61 58 65 69 70 65 62 62 54 57 60 64 66 60 56 55 54 53 51 49 43 34
42 39 35 37 33 32 32 27 31 26 23 25 25 27 27 30 33 34 37 38 39 47 49 53 51 55 56 61 61 62 61 62 64 68 61 57 61 67 67 64 63 61 59 56 54 52 46 36 33
44 43 40 34 34 36 36 32 28 24 24 23 22 21 22 24 28 31 33 37 38 40 47 51 55 53 55 58 59 62 63 63 64 65 57 59 64 59 65 69 69 67 64 60 56 47 38 35 32
47 45 43 36 37 38 40 33 26 27 28 27 24 23 22 20 21 27 30 34 37 38 39 44 51 54 53 57 60 59 59 60 60 62 58 60 60 60 60 70 72 70 67 64 54 41 38 35 31
53 49 46 44 43 42 43 38 34 34 33 30 28 27 26 24 22 22 27 31 34 37 37 40 43 48 51 53 56 56 56 55 55 58 59 60 57 57 58 64 75 73 69 64 47 42 39 35 32
51 50 48 45 41 41 39 35 33 32 33 35 33 32 30 27 26 24 24 27 30 34 36 38 37 43 49 52 56 57 58 57 60 62 59 57 55 56 59 65 70 74 71 54 49 45 39 37 36
47 44 44 41 41 36 33 30 29 28 26 25 25 27 29 28 26 26 26 24 26 30 33 34 36 35 41 48 53 57 53 56 58 63 64 65 61 57 60 63 65 73 65 53 52 47 45 45 45
43 42 40 35 34 33 31 26 25 21 19 20 20 21 22 25 27 27 26 26 25 26 30 34 36 35 35 40 48 55 57 56 59 58 63 72 77 62 62 70 70 69 57 56 53 51 51 50 49
42 41 39 39 36 35 33 24 18 17 17 17 18 20 21 21 21 22 25 27 26 26 26 28 33 36 35 38 44 53 55 54 54 58 61 63 72 68 69 70 71 63 53 55 54 53 53 52 52
43 42 45 47 48 45 40 35 21 19 18 18 18 18 18 20 21 22 22 23 26 28 30 28 30 35 37 39 41 39 42 50 54 56 59 63 70 73 73 71 72 64 52 52 54 53 55 55 54
47 47 47 48 52 53 43 55 22 22 21 21 22 21 21 22 22 21 21 21 22 26 31 32 33 35 38 38 40 39 43 48 52 59 63 68 75 76 73 77 75 58 52 53 53 55 56 57 56
52 51 54 54 55 57 37 38 19 19 18 20 26 29 28 25 23 23 23 23 22 24 29 34 34 36 37 39 39 40 41 45 50 59 65 68 74 78 77 74 73 56 54 55 56 57 59 59 58
56 61 56 62 66 48 33 42 23 21 23 21 24 28 31 29 31 28 25 26 24 24 26 33 35 38 39 40 41 42 45 45 52 57 67 73 78 76 76 74 62 52 55 57 58 60 61 60 58
55 53 47 50 47 39 41 38 31 29 28 30 28 27 24 23 30 35 33 29 28 27 28 32 38 41 43 41 45 48 47 49 55 64 70 73 80 76 79 66 58 56 59 60 61 61 61 61 61
54 59 47 55 48 56 43 39 35 37 37 36 41 37 37 38 39 32 37 34 30 31 33 35 38 43 46 48 50 51 50 53 60 67 71 76 74 78 67 65 59 60 63 63 63 65 66 67 67
49 51 64 74 74 67 47 45 46 48 50 50 46 52 52 56 47 37 35 40 36 34 37 39 40 47 50 53 55 53 55 61 68 71 75 74 83 77 67 65 61 64 65 68 70 70 71 72 69
55 65 71 70 85 76 67 43 49 46 46 49 56 64 61 58 47 38 37 41 43 38 42 47 47 51 56 57 56 60 63 67 76 79 73 81 77 81 71 66 64 68 72 73 73 74 76 73 66
60 71 76 90 78 86 88 54 52 47 52 64 61 67 63 55 49 39 42 47 53 49 49 54 53 57 61 60 64 67 71 73 76 78 80 84 80 75 74 66 69 73 74 74 75 80 77 71 66

GFSSGP_prec_cthk_030.txt.gz
RH
28 29 30 30 35 33 31 29 27 25 23 23 25 27 30 35 47 56 57 55 49 39 37 35 33 36 35 33 30 26 25 22 22 28 34 35 35 33 25 15 12 11 15 15 24 33 33 31 30
27 28 29 30 37 36 29 30 32 25 24 24 22 23 27 36 40 46 50 53 52 45 41 39 35 34 35 37 35 33 24 25 27 30 29 29 30 30 23 18 15 13 12 12 15 24 27 25 20
27 29 30 34 32 30 27 35 35 31 24 24 22 21 27 37 40 42 50 46 50 46 42 42 39 37 38 38 38 32 27 30 31 31 28 23 23 22 22 22 20 17 14 14 14 14 13 13 14
28 29 29 30 29 25 24 33 38 33 27 24 25 29 29 39 39 34 41 42 46 45 47 45 46 48 43 40 39 32 29 32 33 31 27 28 28 26 24 23 23 24 22 21 19 19 19 20 22
30 31 33 29 24 23 26 29 35 29 28 28 28 27 40 35 34 39 41 47 49 48 53 51 51 55 49 43 41 33 30 33 36 31 32 33 31 31 28 26 23 23 25 27 27 28 29 31 32
32 27 32 31 26 24 23 26 30 28 26 28 27 28 46 37 36 40 44 48 52 52 56 54 51 53 48 45 42 36 32 31 36 35 35 36 37 39 34 30 28 26 25 24 26 28 30 32 34
30 32 31 28 26 23 24 26 32 29 28 28 28 31 40 43 36 41 47 51 52 52 52 47 54 50 47 44 43 40 35 32 34 35 38 41 43 39 37 35 33 30 31 32 33 34 37 39 41
27 33 35 31 27 23 23 27 31 29 27 30 33 29 50 52 41 43 50 52 52 54 49 47 46 46 46 44 45 45 39 35 37 37 39 43 45 47 43 39 36 33 36 37 37 38 39 40 39
31 37 35 30 29 23 22 28 34 30 28 30 31 31 38 48 45 45 49 52 54 54 53 48 48 48 47 47 46 46 44 40 39 38 39 43 45 47 46 43 38 37 38 39 40 40 41 41 39
37 39 33 27 27 28 27 29 32 30 27 28 30 32 33 39 42 44 49 52 54 54 54 52 50 50 49 47 47 48 47 48 43 42 40 42 47 49 47 47 45 44 42 41 42 42 41 41 40
33 34 26 22 28 30 31 32 31 32 31 26 27 31 32 34 36 40 43 48 54 56 55 55 55 53 50 49 49 48 46 52 51 45 44 43 46 49 52 49 49 51 49 48 46 44 44 44 44
36 34 30 25 30 34 33 32 33 33 31 30 30 32 37 33 32 33 37 42 47 51 53 55 55 55 52 52 51 51 49 50 54 54 55 48 50 47 47 49 54 56 57 53 51 47 47 46 43
39 37 33 31 30 34 34 34 34 33 33 27 27 29 32 36 31 33 34 35 42 48 48 47 53 56 53 51 52 53 54 53 55 61 66 56 51 51 51 56 61 59 59 58 55 52 50 46 37
40 39 37 34 30 30 32 30 31 28 23 25 26 27 27 30 30 32 33 35 34 41 44 44 48 53 53 52 53 54 57 58 59 60 58 57 59 60 59 59 57 60 64 61 59 57 52 41 36
48 47 41 37 31 31 30 31 28 24 22 22 22 22 22 24 26 27 29 32 34 37 43 43 44 47 49 53 54 58 60 60 59 61 62 61 65 59 57 58 59 58 65 66 63 61 50 41 36
47 48 48 32 31 30 35 35 28 28 27 26 24 22 21 21 19 19 23 28 32 35 37 43 42 44 45 48 53 56 57 59 58 62 61 60 57 57 56 58 59 59 59 65 67 61 49 45 38
54 56 49 44 37 36 39 38 32 34 30 31 28 26 24 22 22 21 20 22 27 33 36 37 38 38 40 47 50 53 57 57 54 59 57 56 55 56 55 55 56 57 57 59 65 54 52 47 42
60 60 56 51 48 42 41 38 34 33 33 32 33 30 27 27 24 22 21 20 21 27 33 38 40 39 36 40 47 52 57 58 57 57 56 54 57 55 54 55 53 53 57 58 48 50 54 51 48
62 58 53 50 46 43 40 35 32 28 27 24 25 26 26 26 28 27 25 22 21 22 28 32 36 35 36 42 44 47 53 56 60 60 55 54 58 61 63 66 66 55 57 54 44 47 52 54 53
56 54 52 46 41 39 35 29 26 22 18 19 20 20 20 21 22 24 27 27 24 23 23 28 33 34 34 37 42 45 50 54 58 60 59 59 63 63 64 69 75 65 60 54 45 48 51 54 53
52 50 48 44 39 36 34 26 21 19 18 17 17 18 18 18 18 20 22 23 26 27 24 25 30 34 35 35 41 47 48 46 52 54 59 63 66 66 67 69 72 71 66 57 47 48 51 54 52
50 45 45 43 43 47 39 46 22 17 16 16 16 16 17 18 18 19 20 21 22 23 27 28 30 31 35 37 39 42 44 42 43 47 53 60 67 71 70 70 75 76 66 63 54 55 55 54 52
45 43 43 45 48 47 42 52 25 18 18 17 18 17 19 20 20 20 20 20 21 22 24 26 30 34 35 37 36 41 43 45 43 46 50 58 65 71 72 75 77 75 73 69 59 57 57 56 56
47 46 46 48 53 61 43 40 24 18 18 18 18 21 21 24 20 21 23 23 22 22 23 25 29 33 38 42 40 41 42 42 44 47 48 53 63 70 75 78 76 77 77 68 59 57 56 57 58
51 52 66 71 69 58 30 41 24 19 18 22 25 26 28 31 28 24 24 25 26 25 24 24 27 33 39 47 47 44 44 43 45 46 48 52 60 68 73 76 80 78 75 70 57 57 58 60 62
56 58 65 62 63 50 38 40 26 20 25 30 32 32 31 32 31 29 31 31 30 28 27 26 26 35 39 43 52 49 47 43 43 46 50 55 63 70 78 81 75 79 75 60 58 60 62 64 63
60 62 48 58 44 55 37 24 24 31 31 35 35 33 30 31 34 35 36 31 28 31 31 29 29 33 41 46 52 56 54 48 45 51 56 61 69 78 81 74 79 76 73 60 62 63 64 65 69
52 49 64 65 70 59 40 38 40 42 41 39 38 40 39 42 44 43 41 41 34 33 35 33 35 35 39 46 53 56 56 52 55 58 63 67 76 80 75 75 76 74 67 62 64 65 68 71 72
54 56 57 61 69 78 64 49 45 47 54 54 48 44 48 52 56 61 53 50 45 39 39 42 41 46 53 52 53 55 56 59 64 66 68 73 79 75 80 78 77 73 65 65 68 70 73 75 74
51 56 59 75 74 79 78 61 48 56 59 60 59 56 57 62 67 60 54 51 44 45 50 52 50 56 63 54 55 59 62 69 70 70 76 76 83 85 77 77 78 73 70 70 72 75 77 77 76

GFSSGP_prec_cthk_033.txt.gz
RH
32 31 31 30 32 34 32 27 29 26 24 26 24 26 28 33 35 47 45 47 47 44 42 35 32 29 28 29 30 29 26 22 22 24 27 29 31 29 22 14 13 15 15 21 26 27 29 26 22
32 31 31 32 36 38 33 30 34 30 27 24 23 24 27 39 37 40 42 48 48 44 43 38 36 32 29 30 30 30 27 24 29 29 29 27 26 25 19 18 15 14 14 16 22 23 21 22 19
30 30 31 34 34 34 29 32 32 31 28 25 21 21 23 37 35 38 40 43 45 43 40 37 36 36 35 36 32 30 30 32 30 28 26 25 21 19 18 19 19 17 15 14 15 18 16 13 13
30 32 31 33 29 24 20 32 35 34 30 27 24 24 28 36 34 37 41 40 43 41 38 38 39 40 41 42 34 31 33 32 31 27 25 25 24 23 21 19 19 20 20 20 19 18 18 18 19
33 34 34 31 24 21 22 30 33 32 30 29 28 29 33 35 33 35 34 38 41 38 38 41 43 44 45 43 39 32 33 33 30 27 29 30 28 27 25 22 21 21 21 23 26 27 29 31 33
34 33 38 34 26 21 19 22 32 29 29 29 24 29 36 39 36 35 36 38 42 42 45 45 47 47 45 44 40 34 32 33 32 28 31 32 34 33 28 27 25 25 25 24 25 27 28 30 32
31 33 33 29 26 24 20 21 29 28 28 26 26 28 38 38 39 36 37 42 46 46 48 49 46 44 45 44 40 34 35 34 34 32 32 35 37 37 34 31 29 29 30 31 31 32 34 35 37
29 35 32 29 26 23 20 23 28 29 29 26 28 30 39 39 40 39 41 43 47 49 50 49 47 44 43 41 39 38 38 37 36 37 37 37 39 39 40 37 34 33 33 34 35 36 37 36 36
28 39 38 31 28 23 21 26 29 34 31 30 30 30 39 41 42 44 44 44 47 49 51 47 45 44 44 43 41 40 39 38 39 41 42 40 41 44 45 44 40 39 39 37 37 38 38 38 39
33 39 35 28 26 24 25 28 31 31 29 28 32 32 33 38 40 42 44 46 45 44 47 49 49 44 45 46 44 40 39 41 39 45 46 44 44 43 45 47 44 45 46 46 43 41 39 40 40
33 38 32 29 28 30 31 27 32 32 30 25 29 31 33 33 36 38 42 44 44 50 47 48 51 52 49 47 47 43 41 41 42 43 49 48 48 46 44 42 41 48 50 51 50 48 47 45 43
34 33 32 28 26 33 33 30 30 32 31 29 28 33 32 33 31 34 37 40 43 44 47 46 48 51 50 50 47 45 44 44 44 44 44 49 52 58 50 51 46 46 49 52 53 53 53 50 45
37 33 34 32 27 33 32 30 30 30 32 28 25 28 32 33 33 32 34 38 39 40 42 46 45 46 46 49 49 48 47 48 47 46 46 46 52 61 53 52 52 50 51 52 54 55 54 53 44
37 38 37 35 31 33 33 30 29 27 29 28 26 27 29 32 33 32 31 33 36 39 40 41 44 44 41 41 44 45 46 49 50 51 53 51 53 52 53 57 58 53 53 52 52 54 56 53 43
42 42 39 33 32 32 30 30 29 25 22 25 26 24 25 28 31 30 29 30 32 35 37 39 40 42 39 38 41 43 43 48 51 52 55 54 51 53 56 55 54 54 52 53 53 53 55 47 44
44 45 48 35 32 30 32 31 25 23 25 25 22 21 18 18 25 28 28 27 30 30 34 38 39 38 39 38 39 41 44 45 49 52 55 54 54 53 53 54 55 52 52 53 53 53 49 43 45
50 54 48 43 37 38 37 37 31 29 30 27 26 25 22 19 17 19 22 23 25 30 30 34 38 38 36 37 39 42 45 47 50 53 54 54 52 52 51 53 54 51 51 51 50 51 41 40 41
55 55 52 50 44 44 43 42 35 30 31 28 27 25 25 24 21 20 18 18 18 19 28 31 37 34 35 37 39 43 54 52 51 52 54 53 54 55 55 57 56 57 59 61 57 47 40 41 41
58 63 53 48 44 41 39 35 31 28 28 26 26 26 23 23 24 25 25 25 23 19 20 28 32 36 37 39 41 42 46 48 50 54 52 52 55 57 58 58 59 60 65 67 66 48 43 44 45
65 62 56 51 47 44 40 33 29 26 20 20 18 19 18 19 20 21 24 26 28 28 24 23 31 35 36 37 38 39 48 51 57 61 62 56 57 60 63 62 62 62 63 65 65 54 48 46 47
63 63 59 53 46 41 36 29 23 20 19 19 19 18 17 17 17 18 18 20 25 26 30 29 26 32 37 41 39 39 46 53 62 64 61 56 55 58 61 65 68 68 67 67 66 61 56 51 52
65 58 53 48 47 48 38 49 28 18 18 17 17 17 16 16 16 16 17 18 18 22 26 29 32 32 36 39 40 38 38 39 43 47 52 57 59 60 64 65 70 72 71 72 68 63 63 56 56
64 54 49 46 47 46 41 46 30 22 18 17 17 17 16 16 16 16 16 16 17 20 21 23 26 30 34 41 39 40 42 43 45 48 52 58 60 63 65 67 72 72 75 75 69 65 69 60 57
53 49 46 46 49 58 41 43 32 22 18 18 17 16 17 19 21 21 19 18 18 19 20 23 23 24 27 33 38 41 40 42 42 49 54 58 59 60 65 70 75 76 79 78 72 71 71 66 59
51 52 62 62 61 55 37 48 31 20 19 18 18 21 24 26 26 25 24 23 23 23 23 22 24 24 27 31 32 38 42 42 44 47 54 56 59 61 60 66 72 77 80 77 74 73 67 66 60
55 51 59 61 68 58 39 43 28 20 19 23 26 29 30 31 31 29 27 26 25 26 25 25 24 25 28 31 32 36 41 45 51 57 56 60 61 60 61 63 72 79 80 82 73 70 69 64 63
58 61 55 61 53 62 41 28 20 21 28 33 37 37 38 37 36 33 30 29 29 29 26 24 26 26 27 28 34 38 42 49 54 60 64 66 65 64 64 66 76 82 86 80 80 72 74 66 65
55 50 62 62 64 62 45 37 33 35 41 42 45 47 48 47 50 48 40 35 38 35 32 30 29 29 31 33 39 47 46 59 57 59 64 63 65 66 66 71 77 81 87 83 75 79 70 68 70
59 55 52 55 61 68 68 51 43 49 51 51 52 55 57 59 64 62 54 47 51 45 38 33 32 37 37 38 48 48 56 66 65 64 66 65 68 69 73 76 81 92 84 76 82 75 70 72 72
51 54 56 66 56 68 77 61 52 51 55 55 57 61 68 74 74 75 68 62 56 50 42 43 40 44 47 51 54 51 59 67 60 65 67 69 72 76 78 82 95 79 84 82 80 74 73 75 76

GFSSGP_prec_cthk_036.txt.gz
RH
34 33 32 30 31 33 32 27 24 27 25 24 25 28 30 34 41 44 42 46 45 44 42 40 37 32 30 29 30 29 27 27 27 26 25 24 25 23 16 16 19 19 21 25 26 28 27 24 19
35 34 33 33 36 36 31 24 28 27 24 24 25 25 27 35 35 37 41 45 44 42 42 39 38 34 33 32 31 28 27 25 24 25 26 25 23 18 16 17 19 19 22 25 23 23 21 20 18
35 34 34 36 39 36 29 30 30 28 26 23 24 22 27 28 30 33 37 41 43 41 39 37 36 34 35 35 35 32 28 30 32 30 28 24 21 17 16 16 17 18 20 23 23 22 20 15 13
35 35 35 38 34 24 21 30 29 28 27 26 26 25 28 27 29 31 34 38 41 41 38 37 36 35 38 39 37 37 32 32 32 27 25 23 22 20 19 17 16 16 18 19 20 19 18 18 19
36 36 37 36 28 23 21 28 32 29 25 26 25 28 29 29 30 31 33 36 38 40 40 37 37 39 41 40 38 37 36 33 30 26 25 26 26 24 22 22 21 20 19 19 22 25 28 31 32
39 37 41 33 26 22 20 26 32 30 27 25 25 29 32 32 32 32 31 33 40 41 42 39 39 41 44 45 39 39 37 34 32 31 30 30 30 28 27 27 26 26 25 26 27 27 28 29 32
39 37 37 31 27 24 19 23 30 30 27 25 23 26 30 32 34 33 35 36 40 44 42 42 42 44 44 43 39 38 36 35 35 34 35 34 36 32 31 32 31 30 30 32 33 34 34 34 34
34 37 35 30 28 24 18 20 27 29 24 25 24 29 29 27 35 36 37 36 41 48 50 50 49 45 45 42 41 39 37 36 37 38 38 40 38 37 36 36 36 36 36 35 36 37 37 36 36
32 39 39 31 27 21 18 22 27 28 28 26 26 26 23 28 36 40 39 39 40 47 53 54 53 51 47 44 43 42 39 37 38 40 41 43 43 41 40 40 40 43 43 42 42 40 39 38 37
34 39 35 28 25 25 21 24 29 29 29 29 30 27 29 29 34 37 36 39 43 43 49 53 53 51 47 46 44 44 41 38 37 41 41 46 49 46 45 40 38 42 47 47 48 47 46 44 42
34 36 29 27 26 27 25 25 29 33 31 29 31 30 30 31 29 32 36 37 39 43 46 50 52 50 48 48 47 46 44 40 39 40 43 45 50 50 48 45 43 45 44 45 48 50 50 51 49
34 32 30 27 24 26 28 27 28 32 31 30 29 30 34 35 33 30 32 34 37 41 41 46 49 49 51 51 50 49 46 42 40 41 43 45 46 48 49 54 50 45 47 46 47 47 49 51 51
36 33 31 28 27 29 30 31 29 28 29 30 28 29 30 30 31 34 34 38 36 36 37 39 45 46 49 52 52 50 47 43 43 42 43 46 47 47 48 54 56 50 53 52 49 49 48 51 51
35 31 31 31 30 31 30 29 29 26 29 30 27 29 30 31 29 34 36 35 39 39 36 38 39 39 42 44 49 52 50 45 44 42 42 44 47 49 50 54 53 54 55 53 50 50 51 50 47
39 40 39 35 29 31 30 26 27 25 25 29 27 28 29 29 29 29 30 31 33 36 42 40 37 37 35 36 39 40 43 44 43 44 45 48 48 49 51 51 52 55 54 53 51 50 50 51 41
44 44 45 35 31 30 32 29 23 22 22 22 22 25 24 25 28 29 30 30 28 30 31 38 40 36 34 33 35 36 39 41 41 47 47 48 51 53 54 52 52 53 54 52 51 49 49 47 36
48 52 48 40 34 33 35 35 24 24 24 24 22 20 19 19 21 23 24 26 29 28 30 31 35 41 35 37 40 39 39 39 39 44 46 51 52 53 52 52 52 52 53 53 53 56 57 52 39
53 50 46 45 40 40 40 41 32 30 28 27 26 23 21 19 17 16 16 20 23 28 31 33 36 34 43 46 45 46 44 43 40 48 49 51 50 52 56 57 57 55 57 57 60 62 63 51 46
60 58 55 49 42 39 37 36 32 27 27 28 25 23 23 22 22 23 22 19 19 21 24 30 32 34 35 47 49 51 54 54 46 44 51 48 50 53 58 57 59 61 63 63 62 62 60 50 49
70 63 55 49 47 45 40 35 31 28 25 25 24 22 22 21 22 23 24 26 26 25 22 21 21 29 32 35 44 47 42 47 50 56 57 53 58 61 61 60 60 64 67 67 67 66 60 55 53
73 63 57 55 52 47 43 31 27 22 18 18 17 16 17 16 15 15 16 19 23 25 26 27 25 23 30 35 37 45 58 54 54 54 57 64 67 69 67 68 65 65 64 68 71 69 63 60 58
69 60 57 57 54 54 41 49 29 21 18 16 17 17 17 16 16 15 15 15 16 19 24 26 28 28 29 33 37 38 48 57 55 50 49 60 66 70 66 65 67 69 68 68 71 69 66 64 60
66 60 57 53 52 50 43 48 30 23 20 16 16 16 15 15 15 15 16 15 16 18 19 23 26 27 29 31 32 37 41 43 47 50 49 50 60 68 73 74 73 71 71 73 76 73 72 69 66
62 60 60 54 52 57 40 43 34 23 19 17 17 16 15 15 15 16 18 18 18 17 18 19 21 25 28 30 32 32 35 40 49 51 51 49 57 63 68 70 73 74 73 75 80 77 76 71 69
61 60 60 59 62 52 39 48 37 25 21 18 19 19 19 20 20 20 21 23 24 24 22 22 21 22 25 26 28 31 32 36 45 48 52 53 53 58 63 70 72 74 76 77 76 77 77 76 75
59 51 54 52 62 56 44 47 29 23 21 24 25 25 26 28 27 27 27 28 27 27 28 28 26 25 26 25 25 26 29 33 40 50 52 59 59 56 60 68 74 78 81 76 75 78 76 75 74
55 58 50 58 57 63 45 34 22 20 27 31 34 36 37 36 36 36 38 38 37 34 32 32 32 27 26 26 24 26 26 30 35 42 47 52 59 65 68 73 79 83 79 74 78 79 72 90 79
52 53 64 65 64 56 44 40 31 34 40 41 44 46 47 46 46 47 50 52 51 48 43 35 31 28 28 27 27 25 26 29 36 39 43 52 63 66 73 79 81 81 79 75 77 77 82 84 82
58 58 55 56 58 62 64 44 44 48 49 50 52 53 54 54 56 57 58 58 62 62 57 52 39 34 33 33 29 26 25 30 40 44 54 65 69 68 71 79 79 77 74 75 79 88 92 86 76
55 59 57 62 52 67 71 62 52 55 55 57 62 69 71 74 73 71 68 70 72 72 67 60 53 45 37 37 34 30 29 38 55 56 66 74 77 75 75 80 77 74 75 79 86 96 85 78 78

GFSSGP_prec_cthk_039.txt.gz
RH
36 33 32 31 32 33 32 26 25 27 25 26 28 30 33 36 39 42 43 46 45 43 41 40 41 42 38 36 34 33 31 31 30 29 27 24 23 22 15 20 21 23 30 37 38 37 25 22 18
37 34 33 33 35 36 30 24 23 26 24 24 26 28 30 36 37 40 43 46 45 43 41 39 40 39 38 37 36 34 31 30 31 28 25 24 23 17 15 19 25 26 28 27 26 23 21 19 18
40 37 37 38 40 36 28 24 26 25 24 24 25 25 26 29 34 36 39 42 43 43 41 37 38 37 36 37 37 35 33 29 27 27 28 26 22 17 16 16 23 25 27 26 24 23 20 18 13
40 39 38 41 37 29 25 25 29 27 26 24 25 27 28 26 27 31 33 36 40 43 41 38 36 36 35 34 36 37 35 34 34 30 27 23 21 21 18 17 16 19 24 27 28 26 20 21 21
40 39 43 41 33 27 23 23 30 30 29 25 26 27 27 27 26 29 31 33 37 40 41 39 36 35 36 36 38 37 38 39 35 29 27 25 25 24 23 21 20 19 19 18 19 21 25 28 30
40 41 45 41 29 23 22 22 27 31 27 25 25 26 28 27 25 27 29 30 35 39 40 40 37 37 37 38 38 40 38 40 33 30 29 27 27 27 27 27 26 25 25 25 27 29 29 31 32
42 44 44 36 29 25 21 22 27 29 27 24 25 29 29 27 27 29 31 32 36 40 40 39 40 40 40 40 39 40 37 37 35 34 33 33 30 30 30 30 31 32 32 32 33 34 36 36 35
43 45 43 38 31 23 21 21 25 27 27 24 25 28 27 22 26 29 33 34 37 39 43 40 40 41 43 43 41 40 40 40 37 37 37 37 38 34 33 34 36 38 39 39 40 39 37 37 37
41 48 48 36 30 24 22 22 23 25 26 26 25 24 23 23 23 27 31 34 37 40 44 47 48 47 46 46 44 42 41 42 39 37 40 40 42 43 39 37 36 39 42 44 46 45 44 42 41
37 44 40 32 27 25 23 23 24 24 27 25 25 25 27 28 27 25 28 31 35 35 41 49 54 57 56 49 46 44 41 42 42 41 41 42 43 46 47 43 41 41 43 42 45 48 48 48 47
37 38 31 29 27 27 25 25 25 25 27 26 26 32 33 36 34 31 30 30 30 38 41 45 53 57 54 50 47 45 43 43 43 42 42 43 44 45 47 46 45 48 48 47 46 45 45 47 49
35 33 30 28 27 27 27 25 25 24 25 28 28 35 39 39 38 36 33 30 31 34 38 42 46 49 49 50 48 48 46 45 43 42 42 44 47 48 47 46 45 48 54 53 51 51 47 47 47
35 34 31 28 27 27 26 26 25 22 22 28 29 31 35 36 38 41 36 34 34 33 34 38 42 43 46 48 50 49 48 47 45 43 41 45 46 48 48 49 49 48 52 55 54 53 49 47 47
34 33 32 32 30 27 27 25 26 22 21 26 28 30 31 31 30 31 35 38 35 35 35 36 38 40 44 46 48 50 52 51 48 44 41 42 44 46 48 53 54 50 53 55 55 52 50 48 47
35 37 34 30 28 30 28 25 25 23 23 22 24 26 30 30 28 26 29 35 40 36 36 36 38 40 40 41 43 46 51 52 47 43 41 40 41 43 48 58 58 54 55 57 54 53 53 50 47
41 42 44 33 30 31 30 28 24 24 20 20 21 23 25 27 27 26 27 29 32 39 39 37 37 40 41 41 42 43 47 49 45 43 41 39 40 44 51 55 57 56 59 58 57 54 53 51 52
47 51 45 37 33 33 35 35 26 24 21 21 18 17 19 21 23 24 26 26 29 31 33 33 31 34 37 40 42 45 49 50 46 44 42 41 43 48 51 55 56 55 57 58 57 56 56 59 60
53 46 42 41 35 36 38 40 29 27 27 27 25 22 18 17 16 17 21 24 26 28 31 34 34 32 32 36 42 47 47 52 49 48 44 41 46 49 56 54 53 57 62 62 61 60 61 61 58
52 51 48 42 39 37 34 35 31 26 28 27 26 24 22 19 17 18 19 19 21 25 26 27 32 35 34 32 37 44 49 52 52 53 49 45 48 58 62 62 57 58 60 64 65 64 65 64 57
66 62 59 50 44 42 38 35 29 25 24 26 26 25 23 22 21 20 21 23 22 21 20 19 22 31 37 35 33 35 43 48 52 59 60 54 48 54 64 62 63 63 61 64 66 66 68 68 59
74 68 62 55 49 46 43 34 27 23 22 20 19 17 18 17 18 17 17 19 23 25 26 25 24 23 28 35 37 34 36 44 51 53 51 52 53 63 67 66 70 75 73 69 68 67 65 67 60
82 71 61 56 55 57 48 53 32 23 19 18 16 16 18 17 16 16 16 15 16 16 21 25 29 30 29 28 28 29 33 37 41 45 53 58 59 61 64 71 81 82 79 75 75 77 74 71 65
81 73 65 61 59 53 47 51 31 22 20 17 17 17 18 17 16 15 15 16 16 17 17 17 23 27 29 30 31 30 30 36 41 46 47 61 66 65 64 64 76 79 80 84 86 86 84 77 72
74 69 64 63 58 60 44 44 32 22 21 20 19 18 18 17 17 17 16 16 18 19 18 18 19 20 24 29 31 33 36 45 47 51 56 53 53 56 59 60 65 71 80 84 85 86 85 81 78
68 66 64 55 64 51 45 48 31 25 23 21 20 20 21 21 21 21 21 22 23 22 22 21 20 20 22 24 29 31 33 36 38 44 48 59 59 55 59 60 61 64 72 78 83 85 87 87 82
65 63 62 46 58 55 46 50 31 25 23 24 27 29 28 28 28 29 29 29 30 30 28 27 26 24 23 24 24 25 29 33 36 40 41 45 54 66 64 63 62 64 67 74 82 85 89 89 88
67 67 57 57 54 60 45 36 23 24 27 31 33 32 33 34 34 35 37 37 38 39 38 37 33 32 30 28 26 25 24 26 29 32 37 40 41 49 62 67 72 72 73 77 84 87 89 91 82
58 54 58 57 47 50 39 41 32 31 37 40 42 43 44 46 47 48 48 47 47 48 48 49 47 44 39 35 33 28 24 24 26 27 31 36 39 43 54 66 74 79 78 82 87 86 88 83 78
56 57 56 56 57 56 59 39 36 44 49 51 52 55 59 60 58 55 54 57 55 54 55 57 57 55 52 48 37 31 31 31 30 28 27 33 42 44 52 66 73 78 81 83 85 84 82 79 82
56 56 57 57 53 65 63 55 51 55 57 62 64 66 63 57 56 54 52 49 50 57 61 67 65 61 63 62 54 41 30 33 33 32 31 35 44 57 64 70 81 82 82 81 79 80 85 79 83

GFSSGP_prec_cthk_042.txt.gz
RH
40 37 35 33 34 35 34 28 28 29 30 29 29 28 30 32 36 40 39 42 42 42 42 45 44 42 44 42 38 35 34 30 29 31 29 24 22 20 14 22 27 32 37 40 43 36 22 19 16
40 38 36 35 38 37 31 25 25 26 26 27 28 29 32 33 37 37 40 41 43 43 41 42 43 43 46 43 41 40 38 36 31 31 31 24 23 17 17 22 26 33 36 35 35 29 20 18 15
43 40 37 39 41 36 28 24 24 25 26 26 27 27 27 29 33 36 37 39 41 43 42 41 41 40 44 43 37 37 40 37 34 33 30 27 23 19 17 21 21 27 29 31 29 23 21 17 14
44 42 40 42 36 30 25 24 25 26 26 27 26 28 29 29 30 32 33 38 40 40 39 38 38 38 38 36 33 36 39 39 36 32 29 26 22 21 20 20 19 21 24 24 26 27 22 23 24
45 43 46 43 35 28 26 25 26 27 27 27 26 26 28 28 28 30 31 33 37 38 38 37 37 35 37 36 34 34 36 34 36 33 28 24 24 24 23 23 22 25 26 25 23 20 21 25 27
44 44 48 44 33 28 27 26 25 26 27 28 28 28 29 28 28 28 29 30 33 36 37 37 36 35 36 36 35 36 37 40 37 33 29 28 26 27 27 26 26 26 25 25 26 29 31 32 32
40 44 46 38 33 31 26 25 24 25 30 30 29 30 28 26 27 30 29 29 30 32 34 37 35 36 37 38 36 38 37 38 36 33 32 31 31 30 30 32 32 32 32 33 34 34 34 36 36
39 43 44 39 34 31 26 24 22 23 29 29 29 29 25 24 24 28 32 33 32 31 35 37 37 36 38 39 39 39 41 40 36 34 34 35 34 35 35 34 33 35 38 39 41 42 40 38 38
45 48 46 37 35 31 28 25 24 24 25 27 29 26 25 26 24 24 29 34 34 33 34 38 38 38 38 40 41 42 44 42 40 39 37 39 40 38 40 41 38 38 38 39 42 44 45 45 44
49 51 45 37 34 33 29 26 25 23 24 25 28 29 26 27 26 24 25 27 33 34 37 39 41 42 45 46 48 47 45 42 43 42 41 40 41 41 40 43 43 45 45 46 47 44 42 44 47
44 45 42 39 37 34 30 28 26 25 21 20 24 28 31 30 30 30 30 30 31 37 37 38 43 50 52 55 56 50 46 43 43 44 44 42 45 45 44 43 42 43 46 51 52 49 48 48 46
39 37 36 32 33 33 31 29 27 24 20 21 24 29 34 37 35 36 35 34 35 34 37 41 43 48 53 56 55 51 46 44 44 45 45 46 45 47 48 48 45 45 46 49 53 56 54 51 49
38 36 33 32 32 31 30 28 26 21 19 21 24 28 37 39 41 40 38 36 35 33 32 36 42 44 47 52 52 50 49 48 48 46 45 46 45 47 48 50 49 48 47 48 52 53 52 51 49
35 35 33 31 31 29 28 26 26 21 18 18 20 27 31 38 41 38 37 36 36 33 32 36 38 41 43 46 49 51 51 52 51 48 46 47 47 46 45 47 49 51 48 50 52 55 54 51 50
38 37 34 30 31 31 29 26 25 20 20 19 18 20 27 30 36 33 31 31 34 32 34 36 38 40 41 44 46 49 51 53 54 53 51 46 43 43 44 46 49 53 52 53 55 56 56 53 51
42 41 43 33 29 28 28 29 25 23 22 19 18 18 19 25 28 30 29 28 27 29 33 37 39 41 39 40 43 46 49 54 48 50 55 51 44 41 43 45 50 55 55 57 59 59 56 54 53
48 50 45 38 33 31 31 33 26 25 24 22 19 17 17 17 20 24 24 26 26 27 30 36 37 38 39 38 40 43 48 51 47 48 50 52 50 44 43 46 52 56 57 57 58 59 58 56 57
52 47 42 40 33 34 35 38 27 24 23 23 22 20 19 17 16 19 22 24 25 27 28 30 32 33 33 32 35 40 46 50 50 49 51 53 52 48 46 47 53 57 55 53 57 60 62 60 61
49 48 45 40 37 36 34 34 28 24 24 24 23 21 20 18 17 19 19 19 21 23 26 28 30 30 32 30 30 30 33 37 43 46 53 56 55 51 51 52 58 61 59 58 59 60 62 62 64
59 56 52 46 42 40 37 34 29 24 22 22 22 21 21 21 20 21 21 21 22 20 21 23 26 30 32 31 31 30 31 33 38 48 55 58 59 59 58 58 64 73 69 67 65 66 64 64 64
70 64 59 55 50 47 43 35 27 22 20 19 19 18 18 18 18 17 18 18 19 21 22 23 23 25 28 30 30 30 31 31 33 38 50 54 58 65 69 66 63 67 72 70 73 77 78 71 70
76 65 64 60 55 58 47 53 32 26 22 19 19 17 16 20 18 17 17 17 18 19 19 21 25 26 28 29 26 25 28 30 33 36 40 44 51 58 67 68 69 75 80 79 81 86 86 89 84
84 75 71 63 62 57 50 54 30 24 23 22 21 21 20 19 19 18 18 17 17 18 19 18 19 19 26 30 31 31 29 28 30 35 36 40 44 51 62 68 76 76 77 77 81 85 85 88 90
86 84 78 75 67 66 49 46 28 24 26 24 23 23 22 21 21 19 18 18 19 19 20 19 19 20 20 23 26 30 32 34 34 34 35 37 45 48 53 63 74 79 78 75 79 82 85 86 89
83 86 84 63 63 56 51 48 29 28 26 25 25 23 22 23 22 22 21 21 21 22 23 24 24 23 22 23 24 25 28 33 35 38 42 47 50 56 59 62 64 67 69 68 69 78 83 85 86
78 73 72 51 56 54 51 51 31 27 25 25 24 25 27 28 29 29 29 28 27 26 27 27 27 26 27 27 27 27 28 28 30 35 39 44 48 52 59 65 66 66 68 71 71 77 78 85 86
68 71 62 67 64 63 45 35 25 26 26 28 30 31 33 36 36 37 37 37 36 35 34 34 35 34 34 32 30 29 29 29 29 28 28 30 38 46 50 54 61 66 77 77 77 75 78 83 84
63 65 68 67 55 45 35 39 28 28 32 35 38 43 45 47 49 49 49 46 42 41 41 41 42 44 45 44 41 37 34 30 29 30 29 29 30 33 38 45 49 60 71 77 86 86 87 88 87
69 68 61 57 57 52 49 31 32 33 40 45 52 56 58 60 56 52 46 43 42 41 42 46 47 47 49 51 53 52 49 42 36 33 31 30 30 31 35 41 45 53 64 79 84 88 92 91 88
58 59 54 56 55 63 62 45 40 44 47 51 59 62 65 64 59 52 48 44 42 39 37 38 43 48 53 55 59 62 62 58 53 47 40 39 36 35 35 43 48 53 59 69 84 94 93 90 90

GFSSGP_prec_cthk_045.txt.gz
RH
46 41 39 38 40 39 39 32 29 31 30 30 28 28 26 27 33 36 36 38 38 38 40 45 43 40 39 39 37 35 35 32 30 29 26 26 24 20 14 21 25 30 38 49 48 36 25 16 17
49 43 40 38 39 37 32 30 29 30 30 31 31 31 34 32 35 37 39 40 40 40 39 41 42 43 42 42 38 36 37 35 33 32 27 24 23 17 21 25 33 40 42 44 39 29 20 17 12
53 46 42 42 39 34 28 25 26 27 28 30 30 31 29 31 36 37 37 38 41 41 39 38 42 42 42 41 39 36 38 36 35 32 26 26 22 20 24 26 30 34 34 35 34 26 20 16 14
55 49 45 44 37 31 26 25 25 27 28 28 28 29 30 31 32 33 37 37 40 40 38 39 40 42 43 42 40 35 37 36 34 30 27 24 21 21 24 26 28 31 33 29 24 23 22 23 25
54 50 50 47 37 30 28 27 26 27 28 28 26 27 29 32 31 31 33 37 40 39 37 37 36 38 37 37 39 34 37 36 33 32 28 23 22 22 23 24 26 28 27 27 27 23 22 23 26
51 50 51 46 36 31 29 28 26 27 27 26 27 26 28 30 31 32 32 34 36 39 39 38 38 37 34 37 36 34 35 31 32 32 28 26 26 25 25 26 29 31 31 29 27 28 30 32 33
46 47 46 39 35 33 30 30 27 26 27 27 28 28 27 27 29 30 31 31 32 34 38 39 36 36 36 36 35 35 36 37 35 33 29 29 29 29 28 27 29 31 32 33 35 36 36 35 34
40 43 48 41 35 31 30 31 28 25 24 25 28 29 28 29 30 28 29 33 32 33 35 36 36 37 37 37 37 37 37 43 38 33 31 32 32 32 34 33 33 30 32 36 39 42 43 42 41
42 44 43 37 35 31 30 30 29 25 23 25 29 29 28 29 29 28 27 30 35 34 33 35 35 37 37 38 39 39 40 42 42 38 37 35 34 35 35 38 39 39 39 40 41 41 40 41 44
50 47 39 32 32 31 30 31 31 28 25 24 29 32 29 26 29 28 27 28 30 36 35 35 39 37 38 39 41 41 43 45 46 42 41 40 39 37 38 38 40 40 42 44 48 46 44 43 42
51 47 43 37 34 33 34 34 33 29 25 24 26 29 32 30 32 31 31 31 32 34 36 36 38 40 40 43 45 47 50 49 47 44 42 44 45 43 41 40 40 41 42 44 47 49 51 49 47
52 47 46 44 43 40 39 37 35 30 24 24 24 25 28 32 34 35 35 34 36 34 34 38 40 40 45 51 51 55 56 53 48 46 45 44 45 46 44 43 43 42 43 44 46 48 50 52 53
48 46 43 41 41 40 38 37 36 29 26 23 22 21 24 29 32 35 37 38 36 33 34 36 40 42 45 52 56 55 56 56 50 48 45 45 45 45 47 46 45 45 44 44 47 49 51 53 51
43 41 39 37 36 35 34 33 33 28 24 21 20 19 22 27 32 33 34 38 35 32 32 33 33 35 43 46 47 51 55 56 53 50 48 46 45 45 46 47 46 46 45 45 48 52 53 52 52
45 41 38 34 34 34 32 31 30 24 22 20 18 18 19 23 28 31 34 33 33 33 33 35 33 34 34 38 42 47 51 54 55 54 53 51 48 47 47 46 45 45 47 46 49 53 54 54 53
44 43 43 33 31 31 32 31 25 24 23 21 18 17 17 16 22 26 29 28 28 29 28 30 32 31 33 34 38 44 50 55 50 51 54 54 53 51 51 46 42 44 47 48 51 54 56 55 54
51 49 45 37 35 32 30 32 26 24 24 22 21 19 18 17 16 20 23 27 27 25 24 24 27 31 33 33 37 44 47 51 52 49 49 56 54 53 54 53 46 44 45 50 54 55 56 56 57
56 55 45 36 32 34 36 36 29 25 24 24 22 20 18 18 17 17 18 20 22 23 24 24 24 27 33 35 36 39 44 46 47 45 48 51 53 53 56 58 52 47 46 49 53 56 56 58 58
46 45 46 38 34 35 36 35 28 27 25 24 22 21 20 20 20 20 20 19 19 21 22 22 23 24 27 32 35 34 32 34 40 42 46 50 52 53 60 60 59 53 51 51 55 57 60 63 62
50 49 48 44 39 36 36 34 27 25 24 24 22 21 20 20 20 19 19 18 18 17 19 20 22 23 25 27 29 31 32 32 34 39 41 46 46 47 54 61 65 63 61 59 61 62 67 70 70
59 54 51 48 45 42 39 33 27 25 24 22 20 18 18 18 19 18 18 17 17 17 18 18 19 20 21 22 25 27 29 31 33 34 35 36 40 44 51 59 64 68 71 69 66 68 71 74 77
74 61 59 55 53 53 46 46 31 28 24 23 23 22 21 20 21 20 20 19 18 18 18 19 19 20 22 24 25 24 24 26 26 30 36 39 40 45 50 57 62 67 72 78 77 71 74 82 82
77 68 66 63 60 57 51 48 31 26 25 25 25 24 24 24 24 24 22 20 21 20 20 19 19 19 20 21 26 29 30 30 30 29 29 34 36 41 45 54 59 60 67 76 77 80 81 85 87
83 74 75 72 65 64 50 47 28 27 28 28 27 27 28 28 27 25 23 21 20 20 21 20 20 20 19 19 20 24 29 33 33 34 36 37 36 39 42 51 55 60 64 70 75 78 84 86 89
89 91 85 69 71 62 55 51 33 30 29 30 30 30 29 28 27 25 24 23 22 21 21 22 22 22 22 22 22 23 25 28 31 33 35 39 42 44 42 46 53 57 60 69 77 81 82 85 88
85 87 84 66 60 54 53 50 32 29 29 30 30 30 29 30 31 31 31 30 29 27 26 25 25 26 26 25 26 26 26 26 27 30 36 37 38 44 49 54 54 61 67 72 75 81 83 85 86
85 87 76 77 71 61 43 36 29 29 30 30 31 30 31 34 36 37 38 37 36 35 34 33 32 33 34 34 33 33 31 30 30 31 30 31 33 37 42 48 54 62 69 74 79 78 83 86 87
74 74 74 70 61 50 35 33 25 28 31 33 35 38 41 44 44 44 43 41 39 36 35 35 35 36 37 39 41 40 40 41 41 39 35 34 32 31 31 36 43 52 61 68 74 75 81 92 95
71 70 67 63 59 44 34 25 27 30 34 35 39 44 47 50 50 49 48 43 39 36 35 34 34 35 37 38 38 40 42 44 50 50 50 46 41 37 35 35 37 43 49 56 64 66 73 84 91
71 72 62 62 56 58 56 36 31 32 39 42 47 52 54 56 55 53 48 45 42 42 43 40 36 34 35 38 41 43 45 51 50 57 64 63 59 54 48 42 42 42 45 50 55 59 66 72 82

GFSSGP_prec_cthk_048.txt.gz
RH
55 49 43 43 45 39 35 30 27 28 26 25 23 21 22 26 34 39 35 35 39 40 44 43 45 39 39 38 35 33 34 32 30 28 28 27 25 21 14 18 28 33 39 45 40 31 20 13 18
58 54 47 42 41 40 34 32 29 30 29 29 29 26 27 30 34 37 40 40 44 44 44 44 42 40 41 40 37 34 33 33 32 30 25 25 23 17 23 29 35 41 44 45 37 28 19 14 12
61 57 53 46 40 35 34 31 29 31 30 30 32 32 29 32 36 39 38 41 47 46 46 45 42 41 41 41 39 34 32 34 32 31 23 24 20 21 29 34 34 36 39 38 34 26 18 15 14
65 61 56 48 39 32 31 28 27 30 31 31 31 32 33 32 35 39 38 38 46 47 46 41 42 43 42 42 41 37 33 32 33 28 22 22 19 22 27 31 33 36 35 33 29 21 19 21 24
68 61 58 52 40 33 30 29 28 29 29 28 30 30 31 33 32 33 37 39 46 47 46 40 42 44 43 43 42 41 38 35 33 29 25 22 21 21 23 28 30 34 33 27 24 23 24 25 26
66 58 56 51 40 33 31 29 28 28 28 27 28 28 31 31 32 32 33 40 46 47 46 44 45 46 44 44 43 41 40 39 34 31 28 25 25 23 24 27 31 31 29 28 27 27 30 32 32
55 58 51 46 40 35 31 30 28 29 28 26 27 28 31 31 31 31 33 38 40 45 45 46 45 47 44 44 38 38 38 41 36 31 27 28 27 28 27 27 30 33 33 31 33 35 37 37 36
52 53 53 48 40 34 33 31 28 27 26 26 25 28 30 31 30 29 30 32 34 38 39 44 46 44 43 39 38 38 37 41 43 36 30 29 31 30 31 32 31 30 30 33 36 38 41 42 42
44 47 48 45 39 34 32 31 29 28 26 24 24 28 30 29 30 31 29 31 35 38 38 40 41 41 42 41 38 39 39 44 44 41 36 34 36 33 34 34 36 37 38 39 41 41 40 38 38
42 40 37 38 38 34 32 31 31 29 28 26 24 27 30 29 30 35 33 29 29 35 37 36 38 40 37 38 41 39 44 46 47 44 41 42 46 42 40 36 36 37 43 43 43 44 44 44 43
49 41 38 39 34 32 31 32 32 31 31 28 26 25 32 31 33 37 37 32 26 28 34 34 36 41 38 38 42 46 49 48 49 50 50 48 49 46 41 40 38 42 42 45 44 45 44 46 48
57 49 46 43 37 35 34 34 33 32 33 31 27 25 27 34 36 38 37 33 29 28 30 34 35 38 38 41 43 49 53 53 51 51 52 50 47 49 48 47 45 46 47 47 47 47 45 46 46
57 57 52 50 46 43 41 39 37 35 35 32 28 25 25 28 34 37 35 34 30 30 31 33 36 39 40 42 52 54 57 56 59 52 51 53 49 50 51 51 49 47 47 47 47 45 45 46 47
52 55 54 53 50 46 44 43 40 36 36 33 29 25 23 23 26 29 31 32 32 33 32 32 34 39 43 41 44 47 54 61 61 58 53 50 48 46 49 51 51 51 50 47 45 44 46 47 49
58 51 49 50 45 43 41 38 36 34 32 30 28 25 22 19 21 24 27 29 32 35 36 35 34 34 35 36 38 42 47 53 61 63 61 55 50 48 47 47 52 52 51 47 43 44 46 48 51
61 48 45 36 42 42 38 30 30 29 27 26 25 23 20 17 17 19 23 26 28 31 32 35 35 32 33 34 32 33 37 43 53 61 63 62 60 52 50 48 51 56 54 46 41 43 46 48 52
59 45 38 37 34 35 35 28 28 26 25 25 25 23 20 17 16 14 18 21 26 27 28 27 28 31 32 28 29 31 34 37 43 48 54 59 65 69 58 54 56 53 56 55 46 44 46 49 54
48 50 46 36 36 36 33 30 28 26 26 24 23 21 20 19 17 17 17 17 19 21 24 25 24 26 28 32 28 29 36 35 38 41 44 51 57 59 61 60 60 60 56 56 52 48 50 50 54
48 47 40 32 36 34 33 34 28 27 24 22 21 20 19 19 19 18 17 17 16 18 19 20 23 23 24 28 29 29 31 32 36 38 38 44 49 54 54 57 59 60 57 60 59 57 54 52 55
47 44 42 42 36 35 36 32 28 27 26 25 23 21 21 20 18 18 17 17 16 16 16 17 19 21 22 23 27 24 28 31 33 35 37 39 42 46 53 54 57 60 60 61 63 62 61 60 58
52 46 45 43 43 42 37 30 28 26 25 25 23 21 20 20 20 20 20 19 17 16 16 16 16 17 18 19 21 27 30 31 27 28 30 34 38 42 44 46 53 54 59 62 64 66 68 71 68
55 56 52 48 46 45 42 34 30 26 28 26 25 25 24 24 23 23 22 22 19 18 17 17 17 18 19 21 21 23 26 27 25 25 27 32 35 39 42 44 52 52 54 61 64 68 70 78 76
63 58 57 54 52 50 44 41 30 27 27 28 27 28 27 26 26 26 24 21 20 19 18 18 18 18 18 18 20 22 28 31 32 34 35 30 29 31 37 42 49 56 58 57 65 66 72 77 83
67 64 62 60 59 63 48 42 28 28 27 29 29 30 30 28 27 27 26 23 22 20 19 19 19 19 19 19 18 18 18 25 32 35 37 39 39 36 35 36 42 47 50 61 66 68 73 73 81
82 78 84 83 79 60 48 43 29 29 28 30 32 32 32 31 29 28 28 26 24 23 22 21 20 20 20 21 20 20 20 21 27 31 34 38 40 37 38 42 44 45 49 55 64 71 73 75 83
97 96 76 68 55 47 51 43 31 31 29 31 34 34 33 33 33 32 32 31 30 28 26 24 24 23 23 24 25 25 26 26 26 26 30 36 39 40 37 39 45 50 53 56 59 65 75 73 82
92 97 76 68 62 57 41 35 32 31 33 34 35 37 37 38 38 37 37 36 35 32 32 32 32 33 32 31 31 33 33 33 35 36 37 38 39 37 38 40 45 51 53 60 63 65 71 73 78
79 79 84 83 77 64 41 34 27 33 32 32 34 36 39 41 41 41 42 42 41 36 35 32 30 29 31 35 36 34 35 35 34 35 39 41 43 47 48 45 43 45 51 55 61 67 77 82 87
74 72 73 67 60 44 29 24 24 27 31 34 32 37 43 46 45 46 45 46 44 38 36 34 33 33 33 32 31 31 31 33 35 38 40 45 47 52 52 54 56 52 46 49 55 61 67 73 78
65 60 54 54 60 56 48 30 29 29 34 33 37 46 51 52 51 48 48 48 47 41 39 38 36 34 31 29 29 32 35 37 42 42 44 51 55 60 59 65 63 66 62 55 51 52 59 64 67

GFSSGP_prec_cthk_051.txt.gz
RH
56 53 50 46 47 39 36 32 26 26 22 21 20 18 21 26 34 47 44 39 38 36 38 40 43 42 38 36 36 31 31 32 31 30 27 27 26 20 14 21 28 34 41 41 35 26 14 11 18
63 60 54 52 44 46 38 35 30 28 28 23 21 19 19 27 36 43 47 40 41 45 43 43 42 41 40 38 35 33 31 31 30 25 25 26 22 18 27 31 36 40 47 42 35 25 16 12 12
67 66 63 54 45 41 43 39 34 32 27 27 28 25 29 37 34 39 40 40 47 51 44 43 40 41 42 41 38 37 33 31 32 26 23 21 18 23 32 33 35 40 41 40 35 23 16 14 14
78 70 65 59 50 39 41 41 35 33 30 29 30 32 32 32 37 40 38 42 51 52 52 44 41 41 42 42 40 39 35 32 31 27 22 19 19 25 27 30 33 36 35 34 29 19 18 19 22
82 76 68 60 51 43 38 40 32 33 33 31 31 35 39 36 36 38 39 43 51 51 51 42 43 41 43 42 41 40 39 35 32 25 22 20 20 24 26 28 31 33 33 29 23 21 23 25 26
80 72 72 61 52 48 40 35 31 32 33 30 31 32 42 38 39 39 40 45 51 52 53 45 42 42 43 43 42 42 41 39 36 29 23 22 22 22 23 29 31 32 30 26 25 24 26 28 29
78 65 63 61 56 50 43 36 30 30 30 30 30 31 43 41 39 38 40 44 48 49 46 44 43 44 43 43 43 42 40 41 38 32 25 24 24 25 26 26 28 29 29 30 29 32 34 34 34
72 65 65 62 56 48 46 37 32 30 30 31 27 31 38 37 36 32 36 42 44 44 45 46 42 42 44 43 43 42 40 38 38 35 29 26 27 28 29 32 32 31 29 28 30 32 35 35 36
62 66 59 57 54 49 53 42 34 30 30 27 26 31 36 34 30 29 29 31 34 40 41 44 46 43 44 43 40 38 38 38 44 39 34 32 32 31 31 32 30 31 33 35 36 37 37 37 36
50 54 47 49 54 52 51 38 35 30 28 26 26 27 30 32 28 30 32 32 32 39 42 41 42 43 42 42 41 38 39 42 45 43 38 38 44 39 38 35 32 32 36 37 37 37 39 39 41
50 43 43 52 50 50 44 37 36 33 31 28 28 29 29 31 32 34 35 35 32 32 36 39 41 40 40 38 39 40 43 46 47 47 46 45 48 46 41 36 34 34 36 40 39 41 40 40 41
57 49 49 48 43 44 43 37 36 34 35 34 31 29 26 30 32 32 34 36 35 33 31 32 39 41 41 40 39 41 47 48 52 51 48 48 53 54 48 44 40 40 43 43 44 45 44 43 42
66 58 53 50 43 40 42 37 36 35 35 33 33 29 26 24 29 36 33 35 35 34 34 32 33 39 41 41 42 44 47 51 53 54 54 55 57 54 55 50 48 46 49 47 48 48 45 44 43
70 68 63 56 52 47 47 44 40 36 38 34 33 30 26 24 24 26 34 37 37 36 35 35 34 36 42 41 42 45 50 53 55 56 55 57 57 55 55 57 54 53 51 50 49 46 43 41 43
74 69 66 61 57 52 50 49 44 40 38 35 32 30 27 25 22 22 25 28 33 41 41 37 33 30 32 37 37 43 47 48 48 51 55 58 59 59 57 58 55 54 57 54 54 52 45 39 39
67 73 68 58 57 53 49 42 40 39 37 35 32 30 28 26 23 20 20 22 25 27 28 32 36 33 34 34 34 35 40 41 43 45 51 55 60 63 62 61 62 60 58 58 57 56 55 46 39
69 64 62 55 48 52 48 40 39 37 33 30 29 28 26 25 24 20 18 18 20 23 27 29 32 34 38 39 35 32 35 37 39 42 42 46 54 60 61 63 64 68 66 60 59 58 55 53 49
50 54 50 50 45 42 43 41 39 35 32 28 26 25 25 24 23 20 20 18 18 19 21 23 26 29 32 36 39 33 30 33 38 42 37 40 45 48 53 58 62 67 69 69 66 64 60 55 55
47 52 49 53 47 41 37 37 34 34 29 26 24 24 23 21 22 22 20 17 16 16 16 19 21 24 27 30 34 36 28 26 30 34 39 41 41 45 48 51 58 60 63 64 65 65 63 60 59
53 54 53 60 53 41 33 35 34 30 25 24 25 24 23 22 22 20 18 18 17 16 16 16 17 19 21 23 26 31 29 24 23 27 32 37 37 38 43 46 46 52 56 60 64 66 66 65 64
56 52 51 53 55 43 38 35 29 27 25 24 23 21 20 20 20 22 22 20 19 19 16 16 16 16 17 17 19 21 28 28 26 24 24 29 35 41 44 42 47 50 55 57 60 64 66 66 67
63 50 55 56 52 42 40 28 37 30 27 26 26 24 24 24 25 25 24 21 21 19 18 17 17 16 16 17 19 20 22 26 28 29 30 28 29 33 39 44 48 52 56 56 56 58 65 71 70
69 55 57 59 52 56 46 38 38 31 30 27 27 29 28 27 27 26 24 23 22 20 18 18 18 19 17 16 16 17 20 23 27 31 35 34 34 32 31 37 45 48 54 59 67 61 61 65 72
71 58 56 58 62 62 46 39 38 32 30 31 28 29 28 28 29 28 26 26 25 24 21 19 18 18 20 19 18 18 17 18 21 24 33 35 36 37 40 41 42 47 50 52 55 61 65 67 74
69 69 74 76 81 65 52 48 38 33 30 32 33 32 31 31 31 31 28 27 26 25 23 22 22 22 22 21 21 21 20 20 20 23 28 34 35 35 38 37 40 43 48 53 59 61 62 66 70
76 70 69 64 61 59 54 44 32 31 29 32 32 32 32 33 33 32 30 30 29 29 29 28 27 26 26 26 26 28 29 29 30 31 32 36 41 45 48 48 43 44 48 54 58 59 60 68 67
93 89 65 56 49 47 40 36 36 33 31 32 34 35 35 37 37 36 35 35 35 34 34 33 31 30 33 34 35 34 32 32 30 31 33 35 37 40 42 47 51 49 53 56 60 64 63 65 66
90 85 91 77 73 56 45 36 31 32 33 35 38 37 39 40 41 40 38 38 38 37 37 35 34 33 31 29 29 30 33 33 31 30 29 31 34 38 40 47 51 50 50 59 68 68 73 76 74
81 82 79 78 68 60 43 34 34 34 33 34 35 38 41 44 43 42 40 39 40 40 40 38 35 33 31 30 30 29 29 29 29 31 31 32 35 40 44 51 53 56 52 55 57 68 75 76 78
66 69 70 73 73 65 57 45 33 34 34 35 33 39 44 48 47 45 43 44 44 45 43 40 37 35 34 31 29 28 27 27 28 31 35 36 38 40 43 48 54 60 63 66 71 69 70 72 72

GFSSGP_prec_cthk_054.txt.gz
RH
52 49 48 46 46 38 35 31 28 26 24 23 20 19 22 25 35 50 48 44 41 31 29 34 40 42 38 37 35 31 31 31 30 29 27 26 23 18 18 24 29 36 40 34 29 20 12 10 17
59 58 55 53 52 48 37 35 32 27 27 22 20 17 19 36 34 43 47 46 43 34 33 38 40 41 39 37 35 34 31 30 29 23 23 23 19 25 28 31 34 40 41 35 30 19 12 12 13
67 65 64 56 52 48 45 41 37 31 26 24 24 21 23 42 38 40 43 43 44 40 39 38 41 39 40 39 36 34 34 29 22 21 21 20 18 27 29 31 33 36 36 33 30 17 15 15 15
77 72 66 64 53 42 45 46 41 33 29 26 27 28 31 39 36 35 38 44 46 46 43 39 38 41 41 41 40 37 34 33 24 21 20 17 22 25 27 29 32 34 34 28 25 16 17 18 21
85 80 73 65 59 50 44 47 43 37 35 30 29 35 40 34 34 37 38 44 46 44 46 41 39 42 43 42 41 38 37 34 32 22 19 19 22 25 27 28 30 29 30 28 21 20 22 23 25
89 85 83 70 58 54 49 48 42 38 37 31 33 40 45 41 40 40 43 46 48 49 48 44 39 39 40 41 40 39 38 36 33 26 20 20 21 21 24 27 29 31 31 26 24 24 26 26 26
88 92 87 76 63 62 52 49 40 34 35 33 35 37 53 44 41 45 47 48 49 48 46 42 39 40 40 40 41 40 40 40 36 28 24 22 22 21 23 28 27 28 27 25 25 28 30 32 32
84 93 87 75 71 64 59 52 45 34 32 35 33 40 65 47 40 42 45 45 46 47 43 42 36 35 38 40 41 42 40 39 38 33 26 25 24 24 24 26 31 31 30 28 29 30 30 30 30
85 91 95 82 63 65 61 58 49 38 32 33 31 38 53 45 37 36 38 39 42 41 43 40 39 37 37 38 39 40 42 38 37 37 34 29 28 27 26 29 29 30 29 28 31 32 33 34 35
68 79 80 78 62 61 67 66 54 40 31 30 29 31 38 38 32 30 31 33 35 38 39 40 38 40 39 40 40 37 36 36 37 39 37 33 32 31 31 31 30 30 29 30 32 33 33 34 35
67 62 56 62 70 57 59 67 58 42 35 29 28 29 33 32 33 32 31 30 31 35 41 41 40 39 39 39 37 35 34 35 38 44 39 36 41 41 38 36 35 33 32 33 35 36 37 37 36
69 49 51 58 67 56 53 62 51 41 36 34 31 33 30 30 30 31 33 35 32 33 35 37 39 39 37 35 34 35 35 39 38 41 44 42 44 46 47 42 39 37 35 35 38 38 38 36 37
72 62 48 53 58 54 49 53 50 42 38 37 35 31 28 28 32 32 32 33 37 34 33 35 36 34 35 35 35 35 38 38 41 42 45 45 45 47 48 48 48 44 42 41 41 44 41 40 38
62 71 63 56 52 49 44 46 48 39 41 37 35 32 29 27 27 28 33 36 35 37 36 33 32 32 34 38 39 39 40 46 47 49 47 47 47 49 50 50 54 53 49 49 46 48 48 47 44
62 76 72 61 53 56 53 47 43 44 41 37 34 32 30 28 26 25 25 29 42 44 40 35 30 31 30 34 36 40 42 43 42 45 45 48 48 50 51 51 53 55 55 59 58 53 51 51 47
65 75 77 67 62 58 57 51 46 47 43 37 35 33 31 28 27 25 24 24 28 38 42 46 39 32 31 31 34 36 41 43 44 44 44 41 42 45 48 50 53 57 57 59 60 63 63 55 53
66 70 72 70 66 66 60 52 48 44 48 40 36 34 31 28 27 26 25 22 22 24 27 34 37 37 33 34 39 33 36 39 39 40 40 39 38 38 43 46 51 56 58 59 61 62 64 64 63
60 57 60 65 63 65 63 53 49 45 44 42 35 32 31 28 27 26 25 24 21 20 19 21 25 29 36 39 39 36 33 37 38 37 38 39 39 40 39 41 46 50 55 58 59 60 62 65 67
67 57 56 59 64 63 60 53 49 45 42 39 35 30 28 26 25 25 23 23 21 20 18 18 18 21 24 27 34 38 34 32 33 34 34 36 40 40 40 40 42 48 51 51 57 60 61 62 64
59 58 51 59 59 58 61 49 42 40 38 37 34 30 27 26 26 24 22 22 21 19 17 16 16 16 17 20 22 27 31 27 27 28 28 31 36 41 41 45 45 46 51 55 56 56 59 61 61
61 56 52 56 57 60 59 49 39 36 34 33 32 28 26 24 23 23 23 22 20 18 17 17 17 16 16 17 17 17 20 24 26 23 21 21 26 38 42 48 48 48 53 55 60 59 59 64 69
67 55 57 58 60 63 57 46 36 33 30 29 28 25 24 23 23 23 24 23 21 19 18 18 17 17 16 17 18 19 20 21 27 30 27 26 26 26 31 40 47 50 50 51 54 60 62 67 69
70 56 59 60 63 69 63 61 39 40 35 30 27 28 27 27 27 27 26 23 23 21 19 19 19 18 19 17 17 16 16 17 20 26 31 35 33 32 30 32 36 42 48 54 58 65 67 66 69
74 68 60 61 64 80 61 59 47 38 32 31 30 29 30 29 29 29 27 25 24 23 21 20 19 19 19 19 19 18 18 18 18 19 20 22 27 31 33 32 36 40 44 46 50 58 64 72 73
79 74 83 83 80 74 57 57 45 36 34 34 34 33 33 31 31 30 28 28 27 25 23 22 21 21 21 21 21 22 23 23 22 21 22 24 30 38 40 41 47 50 56 56 55 55 58 62 66
82 74 77 71 77 62 58 66 44 36 34 34 36 37 36 36 35 34 32 32 30 28 28 26 26 25 26 27 28 28 28 28 30 31 30 29 30 34 40 45 44 44 55 58 60 66 68 75 77
90 88 66 73 55 65 53 46 47 42 40 38 37 36 36 37 37 36 35 35 34 32 31 31 30 31 31 30 29 31 33 33 31 30 30 29 29 28 28 30 34 40 42 51 57 59 64 75 82
86 80 86 86 81 67 51 43 41 41 39 36 39 39 38 37 37 38 37 36 36 35 34 35 34 33 31 29 29 29 29 29 30 30 28 26 25 26 28 31 35 40 46 48 50 54 58 65 76
95 94 86 80 73 77 60 45 37 37 35 37 40 38 39 41 41 40 38 38 39 39 38 38 37 35 33 32 30 29 28 27 27 26 26 26 28 30 30 31 34 38 41 45 50 57 60 69 70
85 83 83 98 89 74 70 55 38 37 40 40 37 38 41 43 45 43 43 43 44 44 42 41 41 38 36 33 31 29 29 29 27 26 27 29 31 31 32 33 35 38 45 53 59 64 72 77 81

GFSSGP_prec_cthk_057.txt.gz
RH
50 45 42 39 39 39 32 33 28 26 23 22 21 23 30 35 41 44 42 42 37 33 29 34 35 37 36 36 35 32 29 29 28 26 25 24 20 18 23 26 33 39 32 29 22 13 11 14 17
57 53 50 47 47 44 35 33 29 27 25 21 20 22 28 37 37 40 39 43 43 35 30 36 41 38 37 37 36 33 32 28 26 21 22 19 21 24 26 27 36 36 31 28 21 13 11 13 17
66 61 58 54 52 47 38 36 32 29 26 23 21 20 30 36 38 41 39 43 45 35 31 37 42 39 39 37 36 34 33 29 19 19 18 17 23 25 28 30 33 33 30 28 20 15 15 15 15
74 68 63 60 53 43 44 39 38 33 29 25 24 27 34 36 36 38 39 41 41 38 36 39 42 40 40 38 36 35 33 25 21 18 16 21 24 24 26 29 31 29 24 24 18 16 17 18 19
79 76 75 63 54 46 50 45 39 35 34 28 28 36 38 36 33 36 40 40 42 43 39 39 39 41 41 40 39 37 35 29 25 22 17 21 25 24 25 27 27 26 26 24 19 20 21 22 23
84 86 82 71 58 51 58 49 45 38 36 32 35 41 45 41 36 40 44 41 41 41 43 41 39 42 42 40 39 38 36 30 25 23 20 19 22 24 25 25 27 27 29 25 23 24 25 26 26
78 92 85 77 69 60 60 50 46 41 37 33 36 48 53 49 44 48 50 46 44 46 48 46 40 40 40 39 39 39 38 34 28 25 23 22 21 22 25 26 27 28 26 25 24 25 26 26 26
81 86 91 85 79 70 62 60 46 41 38 37 40 47 55 56 46 47 50 47 47 49 47 43 40 38 38 39 38 38 39 39 34 29 25 24 24 24 24 26 26 27 28 28 27 28 29 29 30
93 92 89 91 85 71 76 69 53 45 39 34 43 42 47 54 55 50 49 48 45 44 44 44 40 35 35 38 38 38 38 37 35 34 30 28 27 26 26 27 28 28 28 27 27 28 28 29 29
88 93 74 72 80 83 83 75 58 51 43 39 38 38 44 50 50 53 47 45 44 40 38 38 39 37 33 34 34 34 32 33 33 34 34 33 32 31 30 30 32 33 31 30 30 30 30 30 30
79 86 72 80 80 89 84 77 69 57 51 42 37 33 34 42 39 41 43 42 40 38 35 32 33 33 32 34 36 35 32 30 30 32 35 34 36 37 36 36 36 36 34 34 34 32 33 34 32
71 66 70 74 79 84 81 75 70 59 52 42 36 33 33 37 39 37 36 36 37 35 35 35 32 32 30 30 31 30 31 31 33 32 34 35 36 40 42 41 39 39 41 39 38 39 37 36 35
67 66 69 66 70 75 76 70 66 65 56 44 41 38 34 34 36 36 34 32 36 36 37 35 36 36 34 31 31 29 29 31 34 33 37 40 39 40 43 43 43 41 43 46 47 45 42 40 38
56 68 73 71 64 66 70 66 62 64 56 47 43 40 32 32 31 31 33 34 32 34 36 38 37 37 36 32 31 31 31 31 34 36 38 41 42 40 41 43 45 46 46 47 51 54 55 55 48
57 73 80 75 63 55 56 63 51 59 58 51 43 38 33 30 29 28 28 30 34 35 36 38 37 37 36 34 32 31 32 32 35 37 37 37 41 42 42 43 42 44 47 50 51 54 56 58 60
65 66 85 72 68 55 49 52 49 48 49 46 41 38 34 33 29 28 27 28 29 31 35 36 39 42 39 37 34 34 34 37 41 42 40 41 41 39 38 39 40 42 46 49 52 53 55 56 57
74 70 72 69 65 58 49 48 48 44 41 44 43 38 34 32 30 29 27 26 26 29 34 31 33 35 37 38 40 35 36 38 39 38 39 35 34 36 39 37 35 39 42 44 50 53 56 55 57
68 63 58 60 61 63 60 55 54 53 46 42 45 41 36 33 31 29 28 27 26 25 25 32 32 30 30 31 34 38 38 39 40 41 39 39 39 37 37 40 42 41 43 44 46 49 52 56 57
68 68 63 56 57 63 62 61 58 52 49 44 43 44 38 34 33 30 27 26 25 24 24 24 22 28 29 29 30 33 33 37 41 41 41 44 42 42 45 45 44 45 48 47 51 52 54 56 63
67 70 64 56 60 58 64 65 62 52 47 44 41 39 40 36 31 29 27 26 25 24 24 25 24 22 20 20 21 23 25 27 29 29 31 35 38 42 43 47 43 45 50 52 57 62 63 67 72
64 65 65 62 56 58 59 64 60 52 42 40 40 38 36 36 32 29 27 25 24 24 23 22 21 20 19 17 18 18 19 19 19 21 23 25 28 29 31 37 43 45 52 54 54 61 69 69 73
64 60 64 62 61 62 55 60 55 55 43 39 36 35 35 34 33 32 29 26 24 22 20 19 18 18 17 17 18 18 19 20 21 21 22 25 28 29 30 32 34 42 48 54 54 63 66 62 66
72 67 67 64 65 64 58 63 50 51 45 39 35 33 32 34 34 31 28 25 23 23 22 20 20 19 18 18 17 17 17 17 17 18 20 22 26 29 31 33 34 34 34 38 44 51 51 60 63
76 75 76 73 70 80 59 60 51 51 42 37 37 34 32 31 32 30 28 26 24 24 23 21 20 20 19 18 18 18 18 17 17 16 17 18 20 23 24 26 29 33 38 42 47 52 61 65 66
84 81 94 93 87 74 52 63 50 45 43 38 35 33 32 31 32 31 29 28 27 26 24 24 22 22 21 20 20 20 20 20 20 20 21 21 21 24 29 33 39 39 38 43 47 52 56 59 63
83 80 81 80 78 66 51 62 50 42 42 37 34 34 34 33 32 32 30 30 29 28 27 26 25 25 24 24 25 25 25 26 28 28 27 29 29 27 28 31 34 31 32 33 36 41 46 51 55
92 91 74 75 63 69 56 47 45 48 45 40 37 37 37 37 37 37 36 35 34 33 33 31 31 29 28 27 26 27 29 30 30 30 30 28 27 27 26 27 27 29 31 33 37 41 40 46 48
91 85 88 91 86 70 62 51 46 44 47 47 46 44 41 41 41 41 41 40 39 38 36 33 32 30 30 29 29 29 28 27 26 27 26 26 25 24 24 24 26 28 30 34 36 37 38 42 45
92 94 85 79 85 85 64 53 42 44 44 43 46 46 43 43 42 43 42 40 37 37 37 36 35 34 34 33 32 30 28 28 27 26 25 23 24 25 27 28 27 27 29 31 35 36 41 47 51
88 86 84 89 87 77 73 57 41 41 43 43 43 43 43 43 45 47 45 43 42 42 42 42 42 40 38 36 34 31 29 29 29 28 27 29 28 26 26 27 28 31 32 33 37 43 46 49 56

GFSSGP_prec_cthk_060.txt.gz
RH
47 41 38 37 37 37 33 28 26 26 27 29 32 35 41 45 46 44 43 40 40 36 32 30 33 35 36 36 35 31 27 25 26 25 23 22 18 20 24 29 33 28 26 21 12 10 11 17 23
55 47 43 41 44 42 33 29 29 24 23 23 26 31 36 45 47 44 41 39 39 35 32 32 37 38 37 38 36 33 29 25 22 20 20 17 21 23 24 30 30 29 26 20 12 11 14 16 18
64 55 51 48 48 41 36 32 30 27 26 22 23 27 32 39 40 43 41 40 40 36 33 35 39 39 39 39 36 33 30 28 20 18 17 21 21 23 25 31 31 29 25 19 14 14 15 17 19
73 64 57 56 48 37 40 37 32 30 28 25 26 31 33 35 37 38 41 40 42 38 33 39 42 42 40 39 36 33 30 25 21 19 18 23 23 24 26 28 28 26 22 20 16 17 18 18 18
76 74 70 60 49 46 45 40 36 34 30 29 26 35 36 37 33 32 37 41 42 37 35 40 42 43 42 40 38 35 30 25 23 21 22 24 21 23 24 25 25 25 25 21 20 21 21 22 22
77 81 80 67 53 53 51 45 38 34 32 35 33 33 38 36 33 33 39 45 45 40 38 39 40 44 43 41 38 37 32 26 24 24 25 27 24 22 22 21 25 25 26 22 22 23 24 24 24
72 79 82 70 62 60 60 55 43 37 35 33 38 41 41 39 36 35 38 45 47 46 41 37 41 44 44 41 39 39 35 30 27 25 24 24 26 26 25 24 26 27 27 25 25 26 25 24 25
80 80 84 76 69 68 66 58 48 41 39 39 39 45 46 46 44 44 48 48 47 47 48 48 43 44 42 40 40 38 37 33 33 31 27 24 24 25 27 27 28 28 27 26 26 26 25 25 25
90 90 83 77 73 72 67 66 55 46 42 40 39 39 43 47 49 49 50 52 52 52 51 46 45 41 40 38 36 37 37 35 35 33 30 27 26 26 26 28 30 32 33 31 29 29 28 28 28
91 87 72 65 68 76 75 73 65 53 47 49 42 45 48 52 55 53 53 52 51 49 46 46 43 40 38 35 34 34 31 32 33 33 31 29 29 30 30 31 32 35 35 34 34 34 34 32 31
91 74 73 70 78 83 82 77 70 61 51 50 46 45 51 54 56 60 57 54 49 47 43 42 40 37 32 31 31 33 33 31 30 29 31 31 31 32 34 35 36 35 37 38 38 40 39 37 36
82 79 77 77 83 88 90 84 72 66 55 49 44 38 40 45 48 52 54 54 49 43 39 39 36 34 33 31 30 30 29 30 31 31 32 32 31 34 36 38 39 39 38 39 40 43 45 46 43
74 73 79 84 87 85 92 91 83 72 62 56 52 45 40 40 44 43 42 48 48 42 35 34 34 33 33 32 31 29 28 27 28 32 32 33 34 34 36 40 42 42 41 41 41 41 43 48 50
66 75 83 83 85 87 90 87 91 78 63 64 57 52 44 40 39 41 42 41 39 39 38 35 34 33 32 32 32 30 30 29 30 32 34 35 36 37 38 41 43 43 43 43 43 42 43 47 50
63 82 85 80 77 78 80 83 85 78 72 63 58 48 42 38 36 35 35 35 35 37 38 40 37 34 32 33 33 32 31 29 30 31 37 39 39 38 39 40 40 41 42 43 44 46 47 48 51
67 75 85 70 71 73 72 73 72 74 74 67 59 51 43 37 35 33 31 29 29 31 34 40 40 39 39 37 37 36 35 32 30 31 35 40 39 37 35 33 31 34 37 37 38 42 46 49 53
73 72 70 69 68 69 66 65 61 67 66 62 60 60 50 40 36 34 31 28 28 28 28 30 35 39 42 42 42 48 41 38 34 33 34 34 35 37 35 34 34 40 41 41 42 41 44 45 47
59 62 58 58 62 66 66 60 50 55 55 50 51 51 45 42 36 33 31 29 27 27 28 29 30 31 32 37 39 37 36 35 37 36 37 43 45 40 39 44 51 52 52 50 49 49 50 52 52
55 62 62 54 56 64 67 65 55 47 47 42 40 40 43 39 36 34 31 29 29 28 26 26 27 30 33 31 31 29 29 33 35 38 46 56 53 54 56 58 55 51 55 57 58 59 57 61 64
61 65 66 59 56 60 67 64 61 53 45 47 45 42 42 44 40 36 34 32 30 29 28 27 26 26 26 28 28 28 26 26 26 28 34 36 38 40 38 39 43 42 42 46 53 52 55 60 66
59 62 64 62 59 58 58 61 57 52 52 48 47 45 42 40 40 40 36 34 31 28 26 25 25 25 25 25 24 23 22 20 20 21 23 25 28 30 33 34 32 29 30 33 40 51 59 61 61
68 57 60 65 69 65 56 64 48 52 52 50 48 44 41 41 38 39 39 35 31 29 27 26 26 24 23 22 22 21 21 20 20 20 21 21 22 23 26 28 30 34 34 38 39 40 44 52 58
68 61 61 63 70 68 62 64 46 48 49 47 48 43 40 39 39 38 37 37 33 29 28 27 24 24 23 21 19 19 19 19 19 20 19 18 18 21 24 26 28 33 41 38 37 36 36 39 44
71 67 69 73 75 80 64 61 50 44 45 48 49 41 38 39 39 38 37 37 34 31 28 25 27 26 24 23 22 20 19 18 18 18 17 17 16 16 17 20 24 26 27 32 37 41 45 48 51
76 75 91 92 91 80 65 69 43 38 41 44 50 45 42 41 39 37 36 36 34 29 26 25 24 23 23 22 21 20 20 20 19 19 19 19 19 19 20 22 26 30 31 34 37 37 40 41 43
80 79 83 86 87 75 66 64 43 37 37 43 47 48 42 42 39 36 35 34 32 30 28 27 25 24 24 23 23 23 24 24 24 25 25 25 26 27 27 26 26 28 30 30 30 29 33 36 37
84 89 75 76 72 78 63 48 36 36 37 42 47 48 41 37 36 35 34 33 33 32 31 30 28 27 27 27 27 28 28 27 28 28 27 27 28 27 26 26 25 24 24 25 28 30 31 35 37
90 86 87 88 84 75 64 55 43 38 41 44 51 49 44 39 38 37 37 36 35 34 34 34 33 32 31 31 32 32 31 28 27 26 26 26 25 26 25 24 24 24 25 27 28 30 32 34 35
95 90 84 83 84 84 74 57 43 42 45 47 49 53 51 45 42 42 42 42 40 39 39 39 39 40 39 38 35 32 31 30 28 27 25 24 25 24 23 24 25 24 25 26 27 30 33 34 34
87 87 85 90 85 80 79 62 45 44 50 52 52 52 52 51 48 47 47 47 45 43 43 43 42 41 40 39 36 34 32 31 29 28 27 28 28 29 30 28 26 26 26 28 31 34 33 34 40

GFSSGP_prec_cthk_063.txt.gz
RH
49 41 38 36 36 37 36 36 39 41 44 44 46 47 44 53 47 45 42 39 39 34 31 29 28 31 34 33 32 28 26 25 25 20 19 18 19 20 26 28 24 23 18 11 10 10 17 22 22
56 47 44 41 44 43 34 26 32 36 39 46 48 51 46 52 52 48 43 41 38 32 31 30 31 35 36 35 34 32 31 26 22 19 16 18 20 22 26 30 27 24 18 12 11 13 15 20 21
68 54 49 49 49 43 33 26 29 30 33 36 42 47 48 48 47 46 42 40 38 35 33 35 34 37 37 37 35 33 30 28 21 17 17 19 20 23 27 30 26 24 18 13 13 14 16 18 19
73 67 57 57 49 39 35 34 33 29 28 29 35 42 45 46 45 47 44 40 38 36 36 36 36 38 39 39 36 34 29 27 22 19 20 20 21 22 25 26 25 22 19 16 17 17 17 19 19
76 75 69 61 51 42 40 41 38 33 32 29 30 37 40 41 42 44 45 43 41 34 36 38 37 39 41 40 37 34 28 25 24 24 27 26 23 24 25 25 25 22 22 20 21 22 22 22 22
83 77 79 67 51 44 46 44 41 36 32 35 34 34 36 36 35 40 42 42 42 36 36 39 40 41 42 41 39 35 30 25 24 25 31 27 28 27 25 25 24 25 24 22 23 23 23 23 24
84 72 78 69 58 54 50 49 47 39 33 34 36 38 35 35 36 39 40 44 42 39 35 39 39 42 44 44 40 36 33 27 26 24 24 26 31 28 27 27 28 26 24 22 23 24 25 24 25
75 76 80 74 63 61 55 52 53 43 35 40 41 43 37 32 35 37 39 44 46 44 39 36 37 44 45 45 41 37 34 30 28 28 26 24 26 28 29 30 31 31 30 28 28 28 27 26 26
92 89 76 73 69 62 62 60 54 45 40 41 39 39 36 36 37 40 41 43 45 47 46 43 42 44 45 43 41 39 35 33 31 30 29 27 27 27 28 29 30 30 31 32 32 33 33 33 30
96 91 71 64 69 70 69 70 62 51 44 46 45 42 43 40 41 44 46 48 50 53 50 48 47 47 44 42 41 37 35 33 31 31 29 28 30 30 29 30 31 32 32 32 34 37 37 37 37
92 75 69 72 77 79 75 80 70 60 49 48 56 45 46 46 46 48 52 51 49 50 49 48 46 46 44 42 38 35 32 31 30 29 30 30 30 31 31 32 33 36 36 35 37 39 40 43 45
91 82 83 84 83 81 79 81 82 68 57 50 52 58 51 52 49 52 54 53 54 52 49 47 44 42 40 36 32 30 31 31 31 29 29 31 33 32 31 31 32 33 35 36 36 38 41 42 44
76 84 88 91 86 87 84 83 89 75 63 54 50 58 52 53 52 52 57 59 57 54 51 48 44 41 37 34 32 31 31 29 28 26 28 30 31 30 31 33 34 37 39 39 38 38 39 41 42
70 78 88 90 89 88 87 86 87 76 67 58 53 54 49 44 46 50 52 53 53 54 51 47 42 39 36 34 34 33 32 30 28 28 30 30 31 35 37 38 39 42 44 45 44 45 43 42 42
67 72 85 90 89 84 88 94 88 77 70 65 66 62 57 52 46 45 46 44 45 45 45 41 39 36 34 34 34 34 34 32 29 28 31 33 36 39 41 42 41 41 40 39 39 41 42 42 44
71 76 84 85 83 83 91 89 86 86 77 70 69 62 56 51 45 41 44 44 43 43 41 38 37 36 36 35 35 35 36 35 33 31 31 31 34 39 41 37 36 37 36 35 37 42 42 43 45
73 78 76 80 79 78 84 78 83 83 83 74 68 64 59 51 45 41 38 37 35 33 34 38 41 40 39 39 38 37 39 39 41 37 34 32 33 34 35 35 36 39 38 45 48 48 51 50 50
53 55 60 65 68 71 75 70 74 77 79 82 72 66 62 55 49 45 40 37 33 31 30 31 34 37 39 40 41 41 39 38 38 33 33 35 35 37 41 46 43 46 56 62 60 58 55 55 56
48 51 56 54 58 68 71 75 75 73 71 71 68 61 60 59 56 46 40 37 34 30 28 28 30 31 32 36 39 38 35 35 35 34 38 39 41 48 59 58 57 56 60 52 53 51 52 52 53
50 57 64 62 58 67 74 77 77 74 64 58 54 56 53 50 50 43 39 37 35 32 30 29 28 28 28 29 30 31 33 33 32 31 32 34 37 40 41 42 44 49 46 43 40 38 38 40 48
55 57 63 62 61 64 65 70 73 67 60 55 46 45 41 42 42 43 40 38 37 35 33 31 30 28 27 26 25 25 25 26 25 24 23 23 26 29 33 34 34 32 31 31 29 30 34 39 42
63 59 63 65 67 70 62 69 54 59 56 52 46 41 41 42 41 40 42 42 40 37 35 33 30 28 26 25 25 24 25 25 25 24 23 23 23 22 22 23 25 27 29 29 30 32 38 41 40
63 58 59 61 64 64 63 67 47 50 52 43 41 43 44 42 44 43 40 39 41 40 38 35 32 29 27 25 23 23 23 24 24 22 21 20 21 21 22 21 22 23 26 28 30 34 39 39 39
64 66 65 67 69 76 63 65 51 45 42 40 42 43 45 45 44 43 42 41 40 40 40 36 33 29 27 25 26 27 26 25 23 21 20 19 18 18 18 18 18 19 22 26 29 31 36 42 48
71 72 86 86 84 75 62 62 42 41 41 38 39 43 45 50 45 42 41 42 41 38 37 36 34 32 30 28 27 27 27 26 24 23 21 20 21 21 21 21 21 23 26 30 35 38 40 41 38
73 73 79 81 81 71 65 58 44 39 39 39 39 42 44 49 47 44 44 43 41 38 37 36 36 34 31 29 27 26 25 25 25 24 24 25 27 27 26 27 28 29 29 31 35 38 38 38 36
76 84 71 74 70 75 63 49 39 40 37 35 39 42 47 52 53 50 47 45 41 38 37 37 37 33 29 27 26 26 26 26 26 27 28 29 29 29 28 27 27 27 27 26 26 28 30 32 34
78 84 85 82 78 75 62 59 46 39 37 35 38 41 47 52 55 48 45 44 42 39 38 37 37 36 33 31 29 29 29 28 30 30 31 30 29 26 25 25 25 25 25 25 26 27 28 30 31
88 88 86 80 76 73 72 57 49 45 41 38 42 43 48 52 52 49 45 44 42 39 37 37 37 37 36 35 34 34 34 34 34 33 33 28 26 25 26 26 26 25 26 26 27 27 27 29 31
88 89 85 84 78 78 75 61 51 50 44 46 46 51 51 53 55 54 47 43 42 41 40 41 41 41 41 41 41 42 42 39 36 32 29 28 28 29 30 30 30 31 28 28 28 28 30 33 36

GFSSGP_prec_cthk_066.txt.gz
RH
57 47 40 36 35 39 40 41 51 52 48 44 48 46 43 50 49 49 48 39 36 35 34 31 28 31 32 30 28 26 25 25 24 18 19 19 19 23 23 20 19 16 11 10 11 15 21 22 22
61 55 45 41 44 43 37 35 43 50 50 52 50 51 50 56 54 52 46 42 36 33 31 30 28 32 33 32 32 31 29 25 21 18 17 18 20 23 25 23 22 17 12 11 12 14 20 23 23
68 62 51 47 50 45 31 30 38 46 47 55 52 53 54 54 59 53 47 43 39 32 31 31 30 36 36 34 34 30 28 28 23 18 19 19 21 23 25 24 23 19 15 14 15 16 18 20 20
77 70 61 55 50 40 34 32 32 39 41 45 50 54 55 54 55 54 49 44 40 35 33 34 34 37 37 36 34 31 28 26 24 21 21 20 20 23 25 24 24 20 18 19 19 20 20 21 22
83 78 74 61 51 42 39 37 34 35 36 39 47 50 53 54 52 52 49 45 40 37 36 36 35 35 37 38 36 33 28 25 26 29 28 23 22 23 23 24 23 21 19 20 20 20 20 21 22
88 78 80 71 52 44 44 41 40 35 30 36 44 46 48 50 50 51 50 47 42 38 39 38 36 35 39 40 39 34 28 26 25 27 34 31 28 28 25 24 23 23 20 21 22 22 22 23 24
92 87 72 71 55 49 46 45 45 41 33 32 41 43 42 44 45 47 49 48 47 40 37 38 37 37 40 42 41 37 31 28 26 25 26 29 33 31 26 26 27 28 26 24 25 24 24 24 25
83 92 84 73 67 52 53 50 50 46 39 38 42 41 37 35 38 42 45 46 44 40 37 38 39 40 42 44 44 39 34 30 28 25 25 27 28 28 28 29 29 29 28 29 31 32 31 30 29
79 95 83 74 69 58 58 55 55 47 42 44 44 40 37 36 35 39 42 41 43 40 38 40 39 39 43 45 43 40 37 34 30 28 26 26 27 28 29 30 31 31 31 30 31 33 34 34 34
84 90 83 67 70 66 68 62 61 54 47 47 44 47 44 40 38 39 39 39 39 43 44 42 41 42 44 44 42 39 38 35 32 30 29 27 27 28 28 30 32 32 33 33 32 32 34 35 37
84 77 81 77 76 77 76 71 68 62 55 52 46 47 55 52 44 44 43 44 43 43 44 44 44 49 48 45 43 41 38 33 30 31 30 29 27 28 29 30 32 33 33 34 33 32 33 36 37
80 78 88 84 83 77 78 76 70 68 61 54 48 47 55 60 51 46 48 50 49 47 47 49 47 49 49 48 45 40 35 32 30 30 30 29 30 30 29 29 29 30 31 32 32 33 33 35 36
64 73 87 89 88 81 77 80 77 69 64 57 52 50 55 61 59 55 53 53 52 49 48 48 47 46 46 43 39 35 32 31 29 28 27 27 29 31 28 29 31 34 36 37 36 36 35 37 38
59 67 78 89 92 86 83 82 80 69 66 61 55 54 57 61 62 57 55 55 52 53 52 52 50 49 46 42 38 35 35 33 31 28 28 28 29 30 33 34 36 39 41 40 41 41 40 41 41
65 69 90 94 94 91 87 88 78 78 73 64 61 59 62 60 61 60 58 57 57 57 58 54 52 50 46 42 39 37 37 36 34 31 29 29 31 35 36 39 40 42 39 38 38 37 35 37 40
70 71 88 91 94 96 93 87 79 82 80 72 66 62 60 59 57 55 52 50 49 51 53 55 52 49 45 42 41 40 40 39 37 36 34 32 31 33 35 38 41 42 39 40 39 37 43 49 52
73 74 74 86 86 86 91 82 76 82 85 79 74 69 65 59 55 53 52 49 46 45 44 43 44 42 42 43 43 43 42 39 39 40 40 40 37 35 34 34 37 42 44 46 45 49 56 58 54
60 67 61 67 65 76 80 74 76 80 86 82 78 71 65 59 56 53 49 45 42 39 40 40 38 37 39 39 39 40 41 42 42 40 41 41 36 35 36 35 37 42 52 55 56 60 58 54 50
52 60 62 57 61 71 76 79 76 78 82 84 76 70 68 63 60 55 50 46 43 39 36 35 35 34 36 37 37 36 37 40 39 37 37 36 35 36 38 41 44 53 55 51 51 51 49 44 45
49 55 61 58 61 70 76 78 75 72 75 85 78 75 69 66 60 58 56 53 47 41 38 35 34 32 32 33 33 34 35 35 34 35 35 35 39 37 35 34 36 39 41 47 45 44 40 36 32
51 53 54 56 58 65 67 74 70 67 70 77 78 75 68 62 61 58 55 52 47 40 38 36 34 33 33 32 31 30 30 29 29 30 32 32 33 33 32 31 29 30 31 32 33 32 33 32 32
56 49 48 57 62 71 64 75 63 64 65 71 68 67 56 53 54 53 51 49 45 41 38 37 36 35 34 32 30 28 27 26 26 26 27 28 28 27 26 26 25 24 25 26 29 32 32 32 31
58 53 53 59 65 64 63 68 48 49 54 54 54 57 57 48 47 46 47 48 47 46 43 39 37 36 34 32 30 28 27 25 24 23 24 25 25 26 25 23 22 22 23 23 24 27 30 31 33
62 58 63 71 73 79 69 69 51 46 39 41 52 54 51 49 46 44 43 43 44 44 44 43 42 39 36 33 30 28 26 24 23 23 24 24 25 25 23 21 20 18 18 18 21 25 29 32 37
65 66 78 81 81 78 61 64 44 44 42 38 39 44 46 44 45 45 45 46 46 45 44 43 41 40 39 35 33 30 28 27 26 26 27 28 27 25 24 22 21 21 21 22 23 27 31 37 40
70 63 69 71 77 68 61 60 44 38 41 41 39 42 43 41 43 45 48 49 46 47 47 44 41 38 37 36 36 34 33 32 30 29 28 27 26 25 24 24 26 28 29 29 30 32 35 39 40
77 73 60 63 64 69 58 48 39 38 38 40 40 40 41 40 45 48 52 51 49 48 47 44 42 40 38 37 37 36 35 32 30 29 27 25 25 25 26 28 29 29 28 27 27 28 30 34 35
74 68 74 76 73 70 57 54 48 42 38 36 40 40 45 45 48 51 54 54 54 49 47 45 42 40 39 38 38 38 35 31 29 28 27 27 27 28 29 28 28 27 24 25 26 27 30 33 33
78 81 78 78 75 72 69 55 45 45 41 37 37 38 39 45 48 51 55 56 55 51 49 48 47 44 42 40 39 39 38 36 35 33 31 31 31 31 31 30 28 26 27 27 28 29 30 30 31
72 77 77 86 80 80 76 60 45 48 50 44 43 41 43 46 49 51 54 55 55 51 50 49 48 47 44 41 40 39 39 38 37 36 36 36 35 35 32 31 31 32 33 34 33 32 32 32 35

GFSSGP_prec_cthk_069.txt.gz
RH
59 53 46 36 34 40 42 41 58 53 45 47 51 48 52 58 52 46 46 40 38 35 37 32 32 30 30 27 24 23 23 23 19 19 19 19 21 20 19 18 15 11 10 10 12 17 20 21 22
63 58 54 42 39 36 39 41 49 57 50 50 52 52 50 57 56 53 46 41 38 35 33 30 30 32 31 28 28 28 28 25 19 18 17 19 21 21 21 19 16 12 11 11 12 16 20 21 20
63 62 57 53 45 37 31 39 45 51 58 50 51 55 53 53 53 53 48 42 39 35 33 35 32 34 32 32 32 32 29 26 20 18 18 19 21 23 23 21 17 14 14 15 16 17 20 21 21
67 69 62 59 50 39 32 35 41 46 51 58 52 56 56 54 57 55 50 45 43 37 37 36 32 36 34 35 33 30 28 25 23 21 19 19 22 24 25 23 19 17 17 17 18 19 20 21 21
73 76 71 66 54 43 37 35 36 41 46 52 59 56 60 57 56 59 54 47 43 38 37 35 37 36 35 36 35 31 28 25 25 27 23 21 23 26 24 23 20 18 18 19 19 19 20 21 22
76 86 78 68 60 48 41 40 34 37 40 46 56 61 61 59 55 56 57 51 44 39 38 38 38 37 37 38 37 33 29 26 26 31 30 26 28 29 27 26 24 22 20 20 20 20 21 22 24
70 81 83 73 66 55 45 42 39 38 36 41 50 56 59 58 56 54 55 53 47 40 39 39 38 37 38 40 41 37 30 28 26 26 32 34 33 32 27 26 25 25 24 26 27 28 28 29 28
78 79 90 79 72 63 54 48 44 42 37 41 50 52 52 55 53 54 55 54 48 42 41 41 39 37 38 41 43 41 35 30 28 26 25 26 28 27 29 29 29 29 28 27 29 31 32 33 33
83 87 85 85 73 73 62 56 48 47 45 46 47 48 50 52 51 51 52 52 48 44 42 40 39 39 40 41 43 43 39 33 29 27 26 27 27 28 29 29 30 30 30 29 30 31 32 33 34
79 83 76 77 80 78 70 61 55 52 51 51 46 47 46 50 50 47 45 46 47 44 41 40 39 40 41 40 43 43 41 36 33 30 28 26 26 26 27 28 30 31 31 31 30 30 31 32 32
70 67 67 76 81 81 76 70 62 57 56 55 51 47 52 51 48 49 46 42 43 43 42 40 41 40 42 42 44 43 41 38 35 32 30 29 27 25 26 27 28 29 30 30 29 30 30 32 33
64 66 71 75 85 79 79 72 69 64 61 56 52 48 54 53 50 49 50 46 43 43 43 43 44 45 47 48 47 46 42 39 34 31 29 28 28 28 27 28 28 28 29 30 30 31 31 32 33
61 74 73 82 81 83 82 79 72 70 66 61 57 52 54 55 57 53 53 53 51 48 46 45 44 48 50 51 50 48 42 37 34 31 29 27 27 27 29 28 29 30 32 34 36 36 34 35 35
60 68 77 81 86 89 86 82 76 73 68 63 61 58 57 59 57 59 58 60 59 55 51 49 49 49 50 49 47 44 40 36 34 31 28 29 28 27 29 30 33 35 37 38 39 38 39 38 36
62 66 75 86 85 90 88 83 73 72 70 65 63 62 59 59 60 63 63 64 65 61 55 52 50 50 51 51 49 45 41 38 36 35 32 32 31 31 33 36 38 41 41 40 37 37 38 36 37
75 69 76 80 83 88 92 77 75 75 73 70 65 62 59 57 58 63 66 68 68 63 57 56 54 53 52 52 51 47 43 41 40 38 37 36 35 35 34 35 38 41 41 40 39 40 42 42 46
75 71 66 74 80 82 87 85 76 77 79 75 69 63 58 56 57 57 62 65 66 64 61 59 57 57 56 54 50 47 45 43 43 41 40 41 41 40 39 36 37 39 40 41 42 44 50 51 51
65 64 65 63 74 79 90 88 86 82 80 78 73 70 63 56 55 54 54 62 62 58 55 52 50 49 49 49 46 44 43 43 44 44 44 43 42 41 40 35 35 38 40 41 45 52 54 50 49
55 62 61 60 67 80 84 82 85 83 80 79 78 72 70 64 60 56 52 49 51 51 47 45 44 43 41 39 36 36 35 37 38 40 41 41 39 38 37 36 36 38 40 43 44 46 46 44 47
56 62 61 60 64 71 77 78 75 74 74 72 72 76 72 68 64 61 56 54 50 48 45 41 39 38 38 36 36 35 34 32 34 35 35 35 35 36 36 35 37 35 32 31 33 35 37 37 34
61 56 60 60 64 64 67 72 71 67 68 68 67 73 74 67 62 60 57 56 55 52 50 46 41 38 36 35 34 34 33 31 31 31 32 31 30 32 32 32 33 32 31 28 28 30 32 34 33
61 51 51 55 58 66 60 63 52 53 60 63 59 67 70 67 65 62 61 59 57 55 51 50 44 40 38 37 36 34 31 30 28 27 27 27 27 28 28 28 28 27 27 26 26 26 29 31 31
54 50 50 52 55 54 55 60 43 45 47 51 54 62 72 72 71 66 65 63 58 53 51 48 43 41 40 38 37 35 34 32 30 28 27 25 24 25 25 25 25 24 24 25 24 22 23 26 30
55 55 57 59 58 65 55 59 50 44 41 44 52 58 66 74 70 68 66 61 56 52 50 47 46 44 42 40 39 37 35 33 31 29 27 25 24 24 24 25 25 26 25 23 21 19 19 22 29
60 63 73 73 73 67 55 60 49 47 44 43 43 43 53 60 68 60 56 53 51 49 48 47 47 47 45 43 41 39 36 34 33 31 29 28 28 27 27 27 28 27 26 24 21 21 25 28 32
66 61 65 71 72 64 60 62 49 44 45 47 44 40 42 45 51 60 54 52 50 49 47 45 45 44 44 43 41 39 38 38 36 35 34 34 32 31 30 28 27 25 24 25 27 30 32 34 35
68 68 59 64 62 60 53 49 40 37 37 36 37 36 36 41 45 47 53 53 51 52 52 51 47 46 46 44 41 39 39 38 38 37 37 35 33 30 28 26 23 24 25 27 28 28 28 28 32
70 63 68 67 65 62 52 49 44 40 39 35 32 32 36 36 41 48 52 54 55 55 55 53 49 46 45 44 42 40 38 37 37 36 36 34 31 28 26 26 26 26 26 25 25 25 25 27 32
75 75 72 67 67 65 59 48 44 46 45 43 39 36 37 38 41 46 53 56 56 56 56 55 52 50 47 47 45 43 42 40 39 38 37 36 33 31 30 29 29 29 28 28 27 27 29 30 31
77 74 69 74 72 72 67 56 49 48 50 48 47 44 42 42 46 49 54 57 57 57 56 57 54 53 51 51 50 48 44 41 39 38 38 38 37 35 33 33 34 33 33 31 32 34 34 33 34

GFSSGP_prec_cthk_072.txt.gz
RH
47 45 45 45 38 37 39 42 52 51 49 53 55 52 60 57 51 51 49 43 44 41 39 32 33 30 30 28 24 22 22 19 20 20 19 20 18 19 17 13 10 10 10 11 15 18 19 20 19
50 48 51 48 41 34 35 39 48 58 48 54 57 56 55 60 57 56 49 44 44 40 37 34 32 31 31 29 26 23 23 19 19 18 20 21 20 19 18 15 12 11 12 12 17 18 19 19 18
55 52 54 51 48 34 32 38 43 56 50 51 54 58 56 63 62 58 52 46 46 41 37 34 31 33 32 30 29 29 23 21 19 18 20 21 22 22 19 17 15 15 15 16 18 20 20 20 20
62 59 52 53 49 40 35 38 42 44 60 54 50 61 56 58 63 58 52 53 49 45 40 35 32 34 33 33 32 29 26 23 20 19 20 22 23 23 21 19 17 17 17 18 18 19 19 19 20
63 59 56 52 54 47 38 34 40 44 49 61 54 59 62 59 61 60 57 54 52 48 45 37 35 34 34 36 34 31 27 24 25 23 21 22 24 24 21 20 18 18 18 18 18 19 19 20 21
68 61 57 50 52 54 44 38 35 42 44 63 63 62 63 61 62 63 60 56 56 52 46 39 39 35 35 36 37 33 28 26 27 28 26 25 26 29 26 24 23 21 22 22 22 23 23 24 24
77 59 55 57 63 60 52 43 37 38 43 52 68 69 65 65 65 69 66 61 57 54 49 41 40 39 36 36 38 36 32 29 30 31 29 31 31 32 28 26 26 25 25 27 28 28 29 30 30
65 65 69 63 67 64 63 50 43 38 39 52 58 67 71 67 66 67 68 62 57 55 50 44 42 40 39 38 39 39 36 32 30 28 29 31 30 27 29 29 29 28 28 29 29 30 31 32 32
88 76 70 62 71 71 67 59 50 43 40 43 53 56 61 70 69 66 65 63 61 57 53 48 45 42 41 41 38 40 38 35 31 29 27 27 32 28 29 30 30 31 30 29 29 30 31 31 32
88 68 54 52 68 71 72 67 59 49 45 43 44 52 54 61 68 70 67 63 60 61 57 52 47 45 42 40 40 41 42 39 35 32 28 31 29 30 28 28 30 31 31 30 29 29 30 32 32
82 60 60 66 70 77 80 73 66 56 53 48 45 47 55 58 61 63 63 60 60 57 54 53 47 46 44 42 42 44 46 43 39 37 33 30 27 26 26 26 28 29 29 30 29 29 30 31 32
73 89 85 76 70 75 77 77 72 70 60 54 51 49 53 57 57 57 60 62 57 53 53 47 45 42 45 44 43 45 48 44 42 38 34 30 29 28 26 26 27 27 28 28 28 29 29 29 30
68 69 75 77 72 77 79 81 80 76 68 60 56 54 55 60 59 55 55 59 60 54 47 50 50 48 44 44 47 47 49 44 43 38 34 30 28 27 28 27 26 27 28 30 33 34 34 33 34
63 65 68 72 70 76 75 76 79 76 72 66 61 58 57 58 61 56 54 56 59 58 50 47 46 47 47 47 48 50 51 49 43 37 32 30 30 29 28 28 27 29 31 34 37 39 38 37 38
65 66 67 74 69 76 79 85 78 77 76 74 69 64 61 58 61 61 59 58 60 65 64 55 48 46 48 52 54 54 50 46 43 38 33 33 34 34 33 33 34 35 36 37 38 39 37 36 37
71 66 73 74 77 84 86 71 72 78 79 75 74 69 66 61 58 59 58 60 61 62 63 60 53 49 49 52 52 52 50 49 44 39 38 37 37 37 37 38 39 38 37 38 38 39 38 38 41
74 64 67 77 75 86 80 74 83 84 80 75 76 71 68 65 59 57 60 61 62 64 66 66 62 55 52 52 53 53 52 50 47 44 42 42 41 41 40 39 41 42 39 37 38 40 40 42 47
57 59 64 64 68 76 77 80 79 75 77 74 75 75 71 66 60 57 58 61 64 66 69 69 67 63 57 55 55 54 52 49 47 45 44 45 45 44 41 40 41 42 40 38 40 41 43 41 46
58 63 73 62 65 69 75 74 73 76 82 77 72 70 70 68 63 57 56 57 58 64 64 65 62 61 58 55 52 49 46 46 44 42 42 43 42 42 40 39 39 41 43 42 44 43 43 43 45
69 59 69 67 63 65 68 72 71 73 72 75 74 70 68 68 64 61 56 55 56 56 59 59 57 56 55 52 48 45 43 41 39 36 37 37 37 37 37 37 35 35 36 36 36 35 35 32 34
64 56 61 57 63 64 64 65 65 65 65 71 70 71 69 64 68 67 61 54 53 54 53 52 52 50 48 46 43 42 40 39 37 36 35 34 34 33 32 30 31 32 33 33 33 33 35 34 35
69 56 56 56 59 56 53 43 49 57 60 59 60 62 65 72 72 69 67 62 60 58 56 53 52 49 48 45 41 39 39 38 35 34 32 31 30 29 28 28 28 28 28 28 28 28 27 28 34
64 56 54 54 51 52 52 52 40 46 47 47 55 61 63 67 73 73 70 66 63 61 60 59 57 54 52 48 43 40 38 36 36 34 32 31 29 27 26 25 24 24 25 25 25 25 25 26 27
64 57 53 51 53 58 47 48 44 41 39 38 42 50 59 63 69 74 71 66 63 63 61 61 60 55 53 50 47 45 42 40 38 36 35 33 30 28 27 27 26 25 25 25 25 25 25 25 23
66 59 72 69 70 55 50 49 37 35 39 37 38 41 46 57 65 71 68 66 62 61 61 62 58 56 55 51 47 44 43 42 40 38 35 34 32 32 30 29 28 28 28 28 28 27 25 23 26
70 60 56 56 56 49 49 50 38 34 37 39 39 38 39 44 53 62 70 71 68 67 65 61 57 54 51 49 47 45 43 41 40 38 37 36 36 35 33 33 33 32 32 30 28 26 26 28 32
71 66 51 53 52 49 44 44 37 34 37 36 36 39 40 39 40 46 61 67 64 60 59 61 59 57 55 51 49 47 46 45 43 40 38 38 37 37 37 36 34 32 29 27 25 25 27 27 31
69 61 62 60 62 51 42 39 36 36 36 35 34 33 34 37 39 40 43 48 58 63 61 57 54 54 54 52 49 46 45 45 44 42 40 38 37 36 35 34 33 30 28 26 26 27 26 27 31
71 66 63 58 56 52 46 38 36 38 40 40 39 38 36 33 37 40 42 45 50 55 61 64 61 58 54 53 52 49 47 46 46 45 43 41 39 38 36 35 34 32 31 30 30 29 29 31 30
76 68 63 64 65 59 54 43 40 42 44 44 43 43 41 39 39 41 42 43 48 54 65 64 62 61 59 57 54 52 51 49 48 47 45 44 42 39 37 37 36 35 34 33 33 34 36 34 34

GFSSGP_prec_cthk_075.txt.gz
RH
47 47 45 43 53 47 43 49 50 52 51 51 57 58 64 62 54 68 53 50 45 43 39 31 28 30 29 27 24 22 22 20 20 19 19 20 17 14 11 9 10 10 11 14 16 17 19 18 16
56 52 47 48 45 48 43 45 46 52 51 54 59 58 63 68 61 59 55 52 44 41 37 35 29 31 28 25 23 22 19 19 19 19 20 22 19 16 12 11 11 10 11 16 17 18 18 18 17
56 57 54 49 41 43 43 45 42 54 56 54 57 61 66 76 65 60 55 51 47 41 37 34 31 30 30 26 25 23 20 20 19 20 20 22 22 19 15 13 13 14 14 18 20 20 19 19 20
66 62 59 50 42 36 44 48 43 49 53 55 62 62 67 76 67 61 56 55 55 49 47 35 31 32 31 30 30 25 23 21 20 21 22 24 24 22 18 17 16 16 16 18 18 19 19 19 19
69 65 58 49 46 41 50 50 41 45 55 58 57 75 72 72 75 68 59 60 57 54 49 39 33 32 32 33 31 28 26 24 23 22 23 25 24 21 18 17 17 17 17 18 18 19 20 21 22
68 66 60 49 45 52 51 49 37 44 47 59 64 71 73 68 76 72 64 63 61 58 52 44 39 34 33 33 33 31 27 28 27 26 26 27 27 26 23 21 20 21 21 21 22 23 24 25 25
69 64 55 48 51 57 50 51 37 42 44 58 66 70 72 69 71 73 68 71 68 63 56 49 42 37 36 33 34 32 31 30 30 29 30 32 32 31 26 24 23 23 24 25 26 27 28 28 29
74 69 57 56 62 61 52 51 49 37 45 52 68 71 74 73 72 75 74 72 72 66 63 55 45 40 37 36 35 32 33 34 33 31 31 34 30 27 29 27 27 26 26 27 29 29 29 29 29
86 85 74 66 76 63 51 49 55 43 41 46 58 71 73 72 73 76 75 72 73 68 63 62 54 45 41 40 35 34 32 36 35 32 29 30 34 30 29 28 29 29 29 28 28 29 30 30 31
88 91 65 54 56 61 54 56 55 54 44 44 51 59 69 73 73 78 80 73 71 68 67 64 61 52 45 42 38 38 33 34 39 36 30 36 35 36 35 28 28 29 30 30 29 28 28 30 35
89 76 71 73 71 64 61 54 56 59 60 51 45 52 61 73 79 77 79 79 76 72 71 65 60 56 51 46 40 44 40 40 43 40 38 36 34 30 26 30 26 28 29 29 30 29 29 35 31
81 85 81 73 71 79 58 62 62 67 72 54 48 49 58 64 70 82 83 79 80 75 73 70 63 58 54 48 44 47 48 45 47 45 42 39 34 31 32 31 31 29 33 34 36 34 34 33 30
87 84 78 91 85 62 60 63 67 72 70 60 53 51 57 62 67 73 74 79 79 74 70 67 65 61 54 50 47 48 48 47 48 48 45 41 35 33 32 31 30 30 30 32 34 36 36 36 35
65 81 80 85 66 65 63 62 70 76 78 68 60 56 59 60 64 68 68 68 69 68 65 64 67 63 53 50 49 49 48 51 52 49 48 40 36 33 30 31 28 27 28 33 36 37 39 40 39
69 68 79 73 81 89 79 72 65 65 75 75 67 61 62 57 61 64 65 61 59 60 61 63 65 61 55 53 52 49 50 52 56 52 47 39 34 33 33 33 34 33 33 34 36 37 37 38 38
74 71 82 70 86 85 72 58 62 66 74 78 76 66 64 62 62 61 62 61 58 56 57 61 66 60 53 55 52 52 53 57 57 54 51 45 39 36 35 36 37 38 38 38 39 39 38 38 39
73 68 69 72 77 79 67 56 70 75 77 79 77 73 67 63 66 62 62 62 62 60 61 62 69 68 58 59 59 57 56 56 56 56 55 50 47 43 40 39 40 41 41 42 41 39 38 39 43
67 60 63 66 76 69 72 72 78 77 73 76 75 77 72 68 64 61 63 63 61 63 62 63 62 64 64 60 59 57 56 55 57 58 56 55 51 47 45 45 45 46 44 42 42 43 45 49 51
58 53 69 65 73 74 78 81 82 79 78 77 80 77 74 71 70 65 63 61 60 62 62 64 64 64 68 66 64 58 56 56 56 56 55 53 51 48 46 44 45 44 43 44 44 46 48 47 42
66 60 71 72 72 73 75 68 73 68 65 70 72 73 71 73 71 69 65 61 60 61 64 65 66 67 70 68 64 68 66 59 57 53 46 46 43 41 40 39 40 42 41 39 40 42 44 44 44
64 59 72 72 67 68 66 62 58 58 67 61 64 65 68 68 72 72 68 64 63 59 60 60 58 58 58 61 61 59 57 55 54 50 45 40 38 37 37 36 35 34 36 38 38 40 42 41 37
77 65 68 68 75 63 56 44 46 49 55 55 60 62 68 71 71 74 71 68 66 60 56 54 52 52 53 56 57 58 58 56 51 45 40 37 35 34 32 32 31 31 31 30 29 29 31 35 34
72 71 69 68 68 61 60 57 46 46 45 55 59 57 64 70 68 72 70 70 66 62 61 57 56 55 55 54 54 54 51 49 47 43 40 37 35 33 33 33 31 30 28 26 26 27 26 26 28
74 67 67 66 64 67 54 49 37 38 38 41 52 50 55 62 69 72 71 71 67 63 61 61 59 58 58 57 55 54 53 50 46 43 40 38 36 35 35 34 32 30 29 28 28 28 27 28 29
70 67 76 70 74 64 51 48 41 43 38 37 39 46 45 49 54 61 66 70 68 66 64 65 65 63 63 61 59 58 57 53 49 47 45 44 41 39 37 35 34 32 32 32 32 31 31 32 31
75 67 61 57 56 46 51 49 40 33 31 32 35 36 38 42 49 53 57 64 68 68 67 63 63 63 65 64 61 58 56 55 52 48 44 41 40 39 38 37 36 36 36 35 35 35 34 31 30
81 77 66 62 57 53 52 41 35 30 34 32 30 31 35 35 38 46 51 59 66 67 69 68 68 67 63 62 62 60 55 55 53 48 46 44 42 41 40 40 39 38 37 36 34 33 31 30 28
77 76 66 63 65 48 44 38 41 32 33 33 33 33 33 35 35 37 40 45 54 65 66 74 74 72 71 70 66 61 59 55 53 51 48 45 45 44 42 41 39 37 36 35 34 32 31 31 30
72 70 68 64 56 56 45 43 37 35 36 36 36 35 34 33 35 37 37 38 43 55 67 74 75 70 63 64 62 58 56 54 54 52 50 47 45 44 43 42 41 39 38 37 35 34 34 34 33
77 69 62 63 61 53 55 48 40 37 37 41 41 40 39 38 36 34 35 38 41 45 49 61 66 68 68 66 66 58 55 54 53 52 51 50 49 48 46 45 44 42 40 39 38 37 37 36 36

GFSSGP_prec_cthk_078.txt.gz
RH
51 52 50 53 61 55 51 53 61 64 58 66 64 59 66 69 62 66 54 52 42 36 31 29 29 28 28 23 22 20 19 18 16 17 16 15 11 10 13 16 17 16 15 15 16 17 15 14 18
56 58 57 53 56 54 48 50 56 66 57 57 66 61 71 73 68 61 59 52 43 34 32 30 29 29 25 21 20 18 17 16 17 19 19 17 13 11 10 10 9 12 15 16 16 16 16 17 21
61 63 63 58 52 51 45 48 50 58 52 55 61 70 76 78 73 64 59 52 44 35 31 32 31 28 26 21 20 18 17 16 18 19 21 20 17 13 12 13 12 15 17 17 17 17 17 18 20
67 73 69 58 46 37 41 49 55 53 52 57 63 68 85 89 79 67 60 57 47 43 37 33 32 31 28 25 22 19 18 17 19 20 24 23 20 17 15 15 15 16 17 17 17 17 18 19 20
76 74 67 58 43 38 46 55 54 50 51 57 63 77 80 87 78 68 63 62 52 49 44 38 33 32 29 31 26 23 22 20 19 21 24 24 19 17 16 16 16 16 16 16 17 18 19 20 21
80 77 65 54 45 41 54 51 50 49 50 55 61 72 90 83 84 73 69 68 60 54 49 42 38 33 30 30 29 27 26 25 24 24 26 25 24 21 19 19 19 20 20 21 22 23 24 25 26
74 71 66 49 49 54 58 49 47 47 49 56 53 68 78 83 89 81 76 75 63 61 53 47 43 36 33 31 30 28 30 30 29 29 30 31 26 24 22 21 21 23 23 24 25 25 26 26 27
72 77 64 59 59 65 59 50 46 45 50 58 60 61 78 84 85 84 83 80 71 66 57 53 49 42 36 33 31 28 32 34 33 31 32 31 26 25 25 26 26 26 26 27 27 28 28 28 28
81 85 73 63 67 71 59 51 49 48 48 51 64 68 72 75 82 84 87 85 77 71 64 59 55 47 42 36 33 30 33 36 37 35 34 33 28 27 27 26 26 28 29 29 28 29 29 30 30
87 93 68 58 66 74 64 58 50 51 49 51 54 67 80 75 78 82 83 86 82 77 73 65 59 54 49 40 35 32 31 33 34 36 32 36 36 32 27 27 26 27 28 29 29 29 28 29 30
95 89 70 80 75 75 73 64 52 55 61 50 44 57 73 81 72 83 87 83 85 87 77 76 66 63 56 47 38 36 32 32 38 40 37 39 38 35 29 25 24 24 25 27 28 29 29 29 29
95 73 78 88 86 76 73 66 60 59 53 52 46 46 64 79 72 73 80 84 76 75 79 80 70 65 61 57 46 44 40 39 40 42 44 42 38 34 30 29 27 23 22 24 26 27 31 32 30
92 87 77 81 92 82 86 72 64 58 55 52 49 48 56 69 77 81 78 83 85 82 81 81 76 68 63 60 52 50 45 45 43 44 45 46 43 37 31 29 28 26 24 24 26 28 29 31 34
83 85 85 80 78 82 87 76 60 55 54 49 53 54 53 61 70 73 76 82 85 83 84 86 78 71 67 60 57 52 48 48 46 46 46 48 46 39 33 29 27 26 25 25 27 29 32 33 34
72 80 82 90 86 82 87 90 66 56 53 56 59 58 57 58 63 69 73 82 84 84 80 82 80 75 68 60 57 50 48 49 47 48 47 48 43 40 35 31 32 31 31 33 33 34 35 35 34
78 80 86 90 85 79 85 80 75 67 57 59 63 68 61 63 59 68 76 74 79 78 79 75 72 72 71 67 63 53 55 50 49 49 53 49 44 43 39 37 38 37 36 36 37 37 38 37 36
82 86 78 86 86 78 79 92 80 68 57 59 62 70 66 62 65 57 70 74 67 69 69 72 70 66 61 65 67 59 56 53 51 54 55 52 49 48 46 45 44 43 43 41 41 40 40 42 45
74 77 76 73 81 77 86 89 79 67 57 54 64 71 71 66 66 64 55 65 72 69 70 66 66 62 61 66 70 64 57 56 56 56 55 56 56 56 55 51 50 48 46 44 43 43 44 46 48
64 59 62 59 72 77 78 81 83 75 62 63 63 64 70 67 67 66 62 62 63 68 69 70 66 71 65 65 68 67 63 60 55 53 56 58 58 60 58 57 52 49 48 46 46 49 49 49 50
87 71 70 66 74 76 77 75 76 69 65 62 65 62 65 68 72 68 65 64 62 65 64 68 70 62 67 67 67 68 68 66 63 62 56 54 54 53 50 48 46 44 44 42 42 40 39 41 43
91 73 65 83 71 74 82 74 70 67 65 60 61 60 61 67 70 69 68 67 65 61 61 64 63 69 67 70 65 64 63 65 67 64 66 58 55 53 47 44 42 41 41 40 39 39 39 39 37
83 66 62 69 82 80 71 66 60 55 51 49 52 60 60 64 70 73 66 68 69 68 63 63 66 66 66 64 59 58 59 63 63 61 59 57 53 47 44 40 37 34 33 33 34 33 33 33 32
78 71 76 74 72 74 75 70 53 52 52 49 47 52 57 61 62 70 69 66 70 68 67 65 64 61 60 57 55 57 59 62 65 64 61 53 46 45 43 40 36 35 34 33 33 32 32 31 30
80 78 82 81 79 84 66 67 49 50 44 42 40 44 56 58 60 67 70 65 67 70 70 65 62 62 61 56 56 58 59 58 59 56 52 50 49 46 42 40 39 37 35 34 35 34 34 33 32
77 88 89 90 87 77 56 57 46 44 42 39 37 37 47 54 55 58 64 67 67 68 69 70 66 64 62 63 63 60 57 56 53 53 53 52 50 48 45 42 41 39 38 38 37 37 36 36 37
73 69 78 70 72 65 55 58 47 39 38 36 31 33 35 40 50 54 51 53 61 68 71 70 68 66 65 65 64 62 61 61 60 60 59 55 53 48 47 45 43 41 39 39 38 38 39 38 36
78 77 68 70 58 63 56 46 40 36 33 31 29 28 31 34 37 42 48 48 50 56 67 73 73 69 68 66 68 70 68 66 68 65 60 57 57 52 50 47 44 43 43 41 41 40 38 36 35
82 75 77 75 75 59 61 47 43 33 30 30 32 32 31 30 34 36 40 42 50 53 56 65 71 71 69 69 68 70 70 66 64 61 62 57 55 57 51 49 47 45 45 44 42 39 38 38 36
81 90 77 72 74 80 68 53 39 35 34 36 38 38 38 37 35 33 34 35 37 41 49 56 67 73 74 70 72 74 75 74 73 68 64 61 58 55 55 52 50 45 44 44 43 42 41 39 37
84 79 79 85 75 67 73 66 49 44 40 41 42 42 40 39 39 37 35 33 36 38 42 44 50 65 71 75 75 81 79 69 65 62 60 59 56 53 52 51 49 48 47 47 45 44 44 41 41

GFSSGP_prec_cthk_081.txt.gz
RH
63 61 54 57 61 67 59 54 55 58 64 69 66 63 72 71 64 61 53 47 44 38 34 31 30 30 29 24 21 20 16 14 13 11 10 14 21 24 24 23 22 18 13 14 14 12 16 19 21
65 69 62 59 65 63 57 49 56 59 57 68 70 70 76 76 69 64 58 51 40 35 32 32 29 26 24 21 19 18 16 15 17 14 12 10 10 10 10 10 10 13 14 14 15 15 18 20 20
67 72 67 64 61 56 48 48 49 62 61 64 73 72 82 80 71 68 59 53 39 34 31 32 30 27 23 20 17 17 16 16 18 18 14 12 12 12 11 11 14 15 15 16 16 16 18 19 20
71 72 70 68 52 44 44 51 56 58 66 57 65 75 83 83 77 74 64 52 40 36 33 33 32 29 24 20 18 16 17 17 19 22 17 15 15 14 14 15 15 15 15 15 15 17 18 19 21
77 75 79 66 52 42 47 59 53 57 60 61 71 83 85 91 82 78 67 54 43 42 40 36 33 30 27 23 21 19 17 18 19 23 18 16 15 15 15 15 15 15 15 16 18 19 21 23 25
80 77 79 64 50 47 49 53 52 60 57 56 65 77 90 87 88 92 75 62 49 49 46 42 37 31 32 28 26 23 21 21 22 24 22 19 17 17 17 18 18 19 20 21 22 23 24 24 25
83 83 77 54 53 55 51 51 51 57 57 55 57 72 81 92 91 93 78 68 57 56 52 48 43 35 33 29 27 27 27 27 28 29 27 24 23 20 20 20 21 22 22 23 24 25 25 25 27
77 86 79 66 61 61 55 53 51 51 58 58 59 62 68 78 89 89 85 77 68 66 57 51 48 41 34 31 27 27 28 30 32 33 31 25 24 23 23 23 23 24 25 26 27 26 26 27 28
77 94 83 73 66 70 58 55 53 51 56 56 57 55 57 70 70 94 83 89 79 74 65 56 51 47 42 35 29 28 30 31 33 36 35 31 28 26 25 25 25 25 26 27 27 27 27 27 28
86 96 75 69 71 63 57 58 58 54 53 62 60 59 58 56 64 72 88 87 86 76 71 62 56 53 48 42 33 29 30 32 33 35 37 35 32 30 28 26 26 26 26 27 27 27 27 27 28
89 94 80 81 83 72 68 68 63 57 50 49 57 62 60 61 53 61 92 96 89 85 76 66 63 56 52 48 41 32 29 31 32 32 38 39 37 34 30 26 24 23 23 23 25 26 27 27 27
89 84 92 85 82 82 71 69 67 58 53 49 47 55 64 60 60 61 70 96 97 91 83 76 68 63 58 54 50 44 34 31 34 36 39 41 42 37 32 27 25 24 22 22 23 23 25 27 28
87 81 91 88 83 85 73 71 70 64 58 52 50 52 60 66 62 68 77 79 88 88 82 82 79 71 69 62 56 52 50 40 36 38 40 42 43 40 36 31 27 25 24 22 22 23 24 25 27
75 79 81 93 93 85 83 76 76 73 62 55 53 51 56 64 62 65 67 69 75 82 79 82 81 77 76 72 65 62 58 52 44 42 42 44 44 44 39 34 29 27 26 26 27 28 30 31 32
82 82 79 92 87 95 89 83 73 71 66 57 54 53 55 58 57 61 66 73 76 79 86 89 87 82 80 78 71 65 63 59 51 46 44 43 44 46 41 38 34 32 31 33 33 34 34 34 36
80 81 92 87 95 91 92 92 86 80 67 60 57 54 53 53 54 59 63 72 79 89 88 90 87 82 84 83 75 70 64 61 55 49 45 42 43 45 43 42 41 39 39 39 39 39 39 39 39
84 95 95 93 92 93 94 92 86 82 70 63 57 54 54 54 54 56 64 65 69 78 83 90 92 90 84 84 80 75 68 66 64 51 49 46 48 46 46 46 46 46 46 45 43 43 42 42 42
89 88 88 89 91 93 91 86 84 73 73 67 62 56 53 52 53 54 58 63 67 74 76 82 81 81 79 79 72 72 73 73 66 55 53 52 51 53 53 52 52 53 52 51 48 45 45 45 46
85 81 79 80 83 81 81 79 71 77 76 68 60 56 53 53 57 57 59 63 68 68 67 72 79 77 73 73 71 66 72 78 71 64 67 60 57 56 55 55 56 56 50 51 49 48 47 44 44
86 79 80 78 85 82 79 72 71 76 74 68 60 55 53 57 59 62 62 61 64 68 67 77 79 80 78 74 80 74 71 73 72 70 71 68 65 59 57 58 56 51 47 45 43 43 41 39 39
82 72 71 71 84 92 88 85 76 68 64 66 62 57 52 53 58 61 64 67 63 65 67 67 75 82 81 81 78 84 79 71 71 74 80 79 70 69 65 57 52 46 47 46 43 41 39 38 38
88 75 74 76 78 91 80 91 73 67 65 65 61 53 52 55 58 60 63 65 64 65 66 68 72 73 71 70 70 78 81 78 70 70 70 68 68 65 62 58 52 46 44 41 38 36 36 34 34
88 73 73 78 86 84 83 80 62 59 60 57 49 48 49 53 55 55 53 55 62 63 63 67 69 73 75 75 71 73 75 71 68 64 66 67 66 64 59 52 48 48 46 42 40 38 36 35 34
82 77 78 82 87 91 78 73 62 53 54 52 48 46 44 48 52 55 53 53 57 62 64 65 67 68 73 75 74 69 66 62 60 59 60 62 62 60 57 55 53 50 46 42 39 38 37 36 35
88 85 97 98 96 82 67 72 62 48 47 46 43 42 43 44 48 49 49 52 55 61 66 68 70 71 70 69 67 66 64 61 61 62 61 58 55 54 54 53 50 48 46 43 42 41 40 39 37
83 86 84 88 90 73 62 65 51 47 43 40 38 36 36 36 42 44 49 52 57 60 68 71 71 70 70 70 70 67 65 65 64 65 60 56 56 57 58 57 54 51 48 45 44 43 41 41 41
86 86 65 71 64 71 64 55 47 45 43 41 39 34 32 31 34 36 39 43 50 58 58 67 72 73 71 69 72 71 70 70 68 68 69 70 67 65 61 58 58 54 50 52 49 45 43 43 43
78 75 78 80 75 67 66 54 49 44 42 38 36 33 29 29 32 34 33 36 41 47 50 54 59 65 72 75 74 73 73 72 71 71 70 71 71 68 64 62 60 57 55 52 50 49 46 44 42
79 82 75 74 83 83 67 56 43 39 38 36 35 33 33 32 31 30 30 31 35 41 44 48 53 58 66 71 74 74 74 74 73 75 76 78 80 76 66 59 56 55 54 51 49 49 48 46 44
79 80 81 87 76 77 75 62 49 44 37 36 37 36 36 36 36 35 34 32 31 33 36 40 42 48 54 67 74 76 80 80 83 84 85 86 71 67 64 61 57 55 54 53 52 51 50 48 48

GFSSGP_prec_cthk_084.txt.gz
RH
66 72 61 63 67 76 64 55 61 62 81 74 71 69 74 71 59 60 59 46 44 37 35 35 33 33 33 25 23 18 17 13 15 22 27 34 38 41 40 30 21 17 13 13 13 17 19 19 20
69 75 71 66 73 68 61 50 60 62 71 74 75 74 78 75 66 65 62 53 47 38 37 35 34 33 28 23 20 16 15 13 11 12 17 21 22 21 19 16 11 13 13 14 17 18 18 18 19
71 76 77 72 69 57 49 52 54 66 67 71 77 73 85 83 74 65 62 57 48 40 38 36 37 30 25 21 18 16 19 15 13 10 10 10 10 10 10 11 13 15 14 15 16 17 17 18 19
73 77 81 78 64 45 44 53 55 65 71 70 74 79 86 83 74 66 64 55 46 40 38 38 36 29 25 20 18 16 19 19 15 13 12 12 12 13 14 14 14 14 14 14 15 18 20 22 24
82 77 87 82 63 47 45 49 58 59 61 65 70 78 90 89 76 74 66 54 44 40 39 40 39 31 26 21 18 18 18 22 19 15 15 14 14 14 14 14 14 14 15 17 20 22 23 24 25
92 77 90 80 62 50 46 50 54 59 62 62 70 76 83 94 88 75 72 56 47 43 46 45 38 32 28 24 20 19 18 21 23 17 16 15 15 15 16 17 18 19 20 21 22 23 23 23 24
95 74 84 67 62 59 47 50 54 54 61 62 66 72 79 81 93 80 74 65 53 53 54 51 40 34 30 28 26 24 23 24 26 21 19 18 18 18 18 19 20 21 23 24 25 25 24 25 26
97 74 73 72 66 59 53 49 51 51 58 63 63 69 77 80 87 82 83 76 64 58 56 53 45 40 34 29 28 28 29 31 32 29 26 23 22 21 21 21 22 24 25 26 27 26 26 26 27
97 81 84 72 68 61 61 57 52 51 54 59 62 62 61 74 78 79 83 92 80 66 58 55 50 45 39 33 30 30 30 32 36 36 31 28 26 25 23 23 23 24 26 28 28 27 27 27 27
97 83 85 71 70 69 65 64 57 53 55 60 62 57 61 66 68 66 86 93 89 73 67 59 53 49 45 38 33 32 31 32 33 36 36 33 31 29 27 25 24 24 24 25 26 25 25 26 26
96 78 71 80 78 76 68 68 60 54 56 56 56 60 63 63 64 66 67 81 90 87 79 70 60 56 51 45 38 35 34 32 33 36 37 37 35 34 31 27 25 24 23 23 23 24 25 26 26
95 86 74 88 81 80 77 75 69 59 53 60 61 62 68 65 62 60 63 70 94 98 89 79 72 63 58 52 45 40 38 35 33 33 38 39 40 38 35 29 26 24 23 23 23 23 24 25 27
80 90 79 93 89 88 78 74 68 64 57 57 60 63 65 63 63 64 67 77 80 95 94 88 76 69 62 59 55 49 44 40 36 34 37 39 40 41 40 36 31 26 24 23 23 25 26 27 28
73 85 76 89 94 89 88 78 70 67 60 58 55 55 62 60 59 63 65 63 62 74 88 97 88 77 66 65 62 58 55 54 49 41 37 38 40 42 42 39 34 31 28 26 26 28 30 31 33
80 95 88 87 93 96 93 85 77 72 64 62 58 55 57 63 62 62 63 69 72 76 76 85 96 92 82 73 68 66 62 61 58 55 46 43 41 42 43 41 38 37 33 32 33 35 35 36 37
82 94 97 97 96 93 88 88 84 76 66 62 61 57 55 59 62 67 68 70 78 84 82 81 81 95 93 86 82 76 70 68 64 64 58 50 44 41 43 44 42 43 43 42 41 41 40 40 40
83 98 93 94 89 95 94 89 84 78 70 65 61 57 52 50 57 61 65 68 68 74 78 75 80 79 96 92 90 84 77 71 68 64 63 55 48 43 43 46 46 46 48 48 49 50 48 45 43
77 92 91 90 89 90 97 96 86 81 72 69 65 59 55 53 49 54 61 64 67 67 70 73 70 72 76 89 96 88 84 77 70 68 69 60 53 50 48 49 51 52 53 54 55 52 50 47 47
74 74 83 85 87 94 95 94 91 87 74 66 60 60 60 58 57 53 56 60 64 65 71 75 76 75 72 77 90 89 85 80 73 74 75 69 60 54 54 52 53 52 51 52 52 51 51 47 45
80 73 85 85 85 90 89 89 89 90 78 70 64 60 58 55 54 55 53 54 56 57 62 73 78 79 80 74 83 84 88 86 87 92 85 82 80 66 62 55 55 60 57 53 52 54 47 45 47
87 88 79 88 94 91 92 90 79 74 73 70 65 58 53 54 53 51 51 51 55 57 60 61 73 74 79 78 76 75 82 84 86 83 80 80 83 81 74 67 66 64 59 52 49 48 48 46 44
87 87 85 85 92 96 94 93 78 71 70 68 62 56 53 52 51 49 48 49 53 58 59 67 73 70 78 79 76 72 74 80 83 88 81 82 86 83 78 72 69 61 56 52 49 47 46 46 44
91 85 80 85 91 84 93 92 66 63 66 59 56 51 47 48 48 48 47 51 52 57 63 69 71 70 76 78 79 76 84 80 83 83 81 77 76 71 67 65 62 60 55 53 52 50 47 44 42
93 83 83 88 97 94 82 80 65 59 61 52 48 48 51 46 46 47 48 52 54 57 57 60 65 67 74 75 77 79 80 82 87 87 79 76 72 69 63 59 57 54 53 52 50 47 45 42 40
94 85 97 98 98 86 76 78 65 53 51 49 47 42 41 44 45 46 47 48 50 53 58 62 62 63 67 73 78 79 83 84 78 77 75 71 67 66 66 60 57 55 52 50 48 47 48 46 43
91 83 85 90 91 78 75 75 56 47 45 43 42 41 43 42 40 40 43 48 48 50 54 61 64 67 68 70 73 77 81 81 79 72 72 69 67 62 61 64 65 61 58 56 52 50 48 47 47
91 82 74 75 75 82 72 59 50 47 47 45 42 40 38 35 34 36 39 43 46 49 55 63 68 71 73 75 72 72 77 78 75 76 73 71 69 68 69 69 67 68 66 60 59 57 55 52 48
76 78 80 82 77 70 70 62 52 50 48 46 42 40 38 34 32 31 33 36 39 43 47 53 57 61 66 72 75 76 74 76 77 76 74 76 77 73 73 76 78 77 74 67 58 54 52 49 48
79 79 75 71 76 72 69 60 48 48 47 45 41 35 34 32 30 29 31 33 34 36 39 42 48 51 53 59 69 73 75 80 83 81 81 82 81 81 85 84 82 76 71 62 59 54 53 53 51
75 75 72 79 73 78 74 59 49 50 49 43 41 40 38 38 37 36 34 32 31 30 33 37 42 43 47 53 59 65 73 73 73 74 76 78 83 90 85 77 72 68 63 60 60 59 56 54 54

GFSSGP_prec_cthk_087.txt.gz
RH
64 77 72 71 70 71 64 57 59 69 81 77 73 73 73 71 59 58 59 51 45 41 40 38 36 34 35 30 24 22 20 23 31 38 44 51 58 63 57 44 20 14 12 12 16 16 16 17 17
65 76 82 78 79 71 57 53 61 65 71 77 75 78 77 77 68 67 63 54 46 40 38 37 36 38 36 28 22 17 18 21 27 34 38 41 44 38 24 18 13 12 13 15 16 16 16 16 17
75 78 90 85 82 62 49 53 52 67 69 77 78 80 82 83 78 69 61 60 49 42 39 37 37 38 30 26 20 17 13 14 21 24 25 24 22 19 14 12 13 14 15 15 15 16 17 19 21
78 80 93 90 82 52 44 52 58 65 73 77 82 82 83 85 81 70 65 63 52 44 40 39 41 36 28 26 20 19 20 12 11 12 13 12 12 11 13 15 14 14 14 15 17 20 22 23 24
83 82 94 94 74 53 47 44 62 61 74 80 81 84 86 91 79 73 68 63 52 45 41 42 41 35 26 25 21 24 20 15 13 13 13 13 14 15 14 14 14 15 17 20 22 23 24 24 25
83 87 98 96 69 56 51 50 57 65 67 75 81 81 86 94 85 78 69 65 54 47 46 44 41 32 25 24 22 25 26 20 16 15 15 15 15 15 15 17 18 19 20 21 22 23 24 25 27
80 97 88 84 64 63 54 52 53 58 64 65 70 80 84 93 94 80 71 64 55 49 47 45 42 33 28 26 24 24 27 24 17 16 16 16 17 17 18 19 20 21 22 23 23 24 25 26 27
66 84 82 81 65 61 56 54 52 57 64 68 73 77 76 80 99 89 74 70 58 56 51 49 44 36 31 30 27 26 27 28 23 20 19 20 20 20 21 21 22 23 24 25 25 25 25 26 27
67 83 94 72 62 57 60 58 58 61 66 70 71 67 66 73 88 97 80 75 67 65 56 54 49 44 38 35 32 31 32 35 32 29 26 24 24 23 23 22 23 23 24 25 25 25 25 25 26
75 78 83 84 58 54 66 61 62 64 65 69 67 68 71 67 70 90 83 74 74 68 64 61 54 50 43 37 34 33 34 36 38 37 34 32 30 28 26 25 24 24 24 23 24 24 24 24 26
67 69 71 92 76 60 70 67 61 62 63 60 60 64 69 68 68 69 82 76 73 83 76 69 63 56 49 43 37 36 35 36 38 37 38 37 36 35 32 29 26 26 25 24 24 23 23 24 25
66 67 71 93 87 72 66 70 65 59 52 54 58 61 67 72 71 71 76 75 73 89 91 89 80 64 54 51 44 41 38 37 38 38 38 39 40 41 38 34 29 25 24 23 24 24 24 24 26
71 60 73 94 90 76 64 70 69 63 61 63 62 66 65 70 72 69 70 75 74 79 84 96 86 75 64 59 52 48 46 43 40 39 38 40 42 44 42 38 35 31 26 25 25 25 27 28 30
67 64 92 90 92 85 70 75 71 67 64 68 69 63 68 68 69 74 72 71 80 80 85 92 89 86 76 69 63 55 51 48 47 44 41 38 39 41 43 44 41 36 32 29 28 29 31 32 33
77 70 92 95 92 94 81 80 78 73 73 67 71 73 77 75 71 72 75 72 78 81 78 75 89 91 87 75 69 67 64 59 55 53 52 46 42 41 43 43 44 41 39 36 34 35 35 36 37
79 86 98 94 92 95 88 90 82 77 75 70 66 63 66 71 66 70 71 75 77 72 74 74 77 89 89 90 79 72 71 68 66 64 63 59 52 45 43 43 44 44 44 44 43 44 44 43 43
78 79 93 97 86 95 94 92 86 79 74 70 67 62 62 68 75 76 78 83 81 79 79 75 71 80 87 86 97 92 87 80 75 73 70 67 61 55 46 43 44 46 48 50 51 51 51 49 49
82 76 95 98 95 96 96 90 91 85 76 71 69 62 57 57 62 72 80 82 76 75 80 80 81 81 86 91 89 83 98 92 90 84 79 69 64 61 52 49 45 48 52 53 54 55 53 52 51
68 77 93 95 96 96 95 95 94 92 80 73 69 67 61 56 54 55 60 70 75 74 76 81 83 80 92 85 83 83 91 93 95 85 78 74 70 65 62 57 51 50 52 50 53 52 54 53 53
83 75 85 91 92 91 93 94 89 92 83 74 73 68 63 60 56 53 50 55 64 67 71 79 81 78 85 81 77 84 84 80 88 92 90 92 90 79 72 64 55 52 56 58 61 57 52 50 48
88 81 74 75 89 89 93 93 87 91 81 77 66 64 64 59 56 53 52 53 56 62 68 74 72 78 76 73 71 79 80 90 87 88 81 89 83 93 85 85 79 77 68 65 61 60 54 52 51
90 83 77 85 86 96 90 94 79 79 86 73 69 61 60 57 55 53 53 53 55 57 61 66 66 67 70 74 76 87 79 79 83 82 82 85 83 85 85 85 84 83 76 71 67 62 58 56 52
91 85 89 82 86 93 95 97 71 69 79 74 66 60 56 53 50 50 53 51 54 58 56 55 65 71 71 74 78 81 86 81 81 87 88 81 81 87 89 87 77 74 71 67 61 58 55 52 51
91 93 91 93 96 96 86 88 69 65 62 65 60 55 53 51 51 49 47 49 49 52 56 58 61 66 72 82 82 88 89 88 87 83 83 83 84 90 88 79 76 73 67 62 59 57 57 52 51
95 88 98 98 98 88 80 86 68 60 57 60 55 50 48 48 48 48 50 49 53 54 56 59 60 60 62 68 74 84 85 86 84 87 88 84 82 83 83 79 74 67 61 63 60 56 56 53 51
91 79 87 94 93 84 83 80 65 55 56 58 53 49 46 45 46 45 46 54 57 57 54 52 53 57 60 62 64 69 76 84 82 88 88 82 82 82 81 77 66 61 61 60 61 62 67 66 58
92 82 71 73 77 81 78 62 53 54 55 56 53 48 45 42 40 39 41 44 51 54 56 54 54 58 60 61 62 63 66 70 76 83 82 79 80 81 78 69 64 63 70 72 73 74 71 66 58
81 74 75 77 81 72 70 64 53 53 52 50 50 45 43 40 37 36 38 40 44 45 46 48 53 56 58 59 61 64 69 71 72 74 77 78 80 77 71 69 71 76 81 81 77 75 70 65 58
80 75 76 77 80 74 73 62 55 51 49 48 47 43 39 38 37 33 33 35 37 40 40 40 42 44 47 48 49 51 56 62 69 72 74 75 75 77 82 86 88 89 81 76 71 66 62 59 59
79 79 79 80 77 78 72 60 55 54 51 48 48 47 44 41 39 37 36 35 32 30 29 32 37 39 41 41 44 47 48 56 67 69 72 76 81 82 84 86 86 82 81 69 66 64 62 58 57

GFSSGP_prec_cthk_090.txt.gz
RH
52 60 70 70 77 81 69 62 56 68 83 77 75 76 74 70 60 56 57 58 47 44 44 47 37 35 38 31 24 22 29 33 41 39 38 40 53 68 65 53 27 13 12 15 14 14 14 15 14
54 61 73 78 90 84 58 47 61 62 68 79 81 75 77 79 71 65 64 58 52 46 45 44 38 37 36 28 27 23 30 35 43 50 54 64 67 62 39 19 14 13 15 15 14 14 15 17 19
50 66 77 86 91 87 53 44 49 62 70 80 84 79 75 83 78 69 66 59 55 48 44 41 37 40 34 27 24 26 30 36 39 43 50 58 43 23 18 14 14 14 15 15 15 17 19 21 22
46 69 78 95 90 72 49 46 50 61 73 76 80 87 82 84 84 77 68 64 59 51 44 41 40 40 30 25 21 19 26 31 34 35 32 25 19 15 13 15 14 14 15 17 20 21 22 23 23
42 64 80 92 90 65 55 49 52 56 66 77 84 90 87 90 88 82 71 65 59 53 46 44 43 38 29 24 21 23 17 22 25 24 22 17 14 15 15 14 14 17 19 20 22 23 24 24 25
50 60 83 90 85 67 62 58 55 58 66 76 79 88 88 91 90 84 78 67 59 55 49 49 46 37 31 26 29 24 18 15 14 14 14 14 16 15 15 16 18 20 21 22 23 24 25 25 26
50 56 68 77 87 78 69 63 58 56 58 66 74 81 88 91 96 90 86 75 62 58 54 53 45 36 30 27 35 32 24 19 16 16 16 19 16 17 18 19 21 22 23 24 24 25 24 25 25
54 59 60 76 77 75 73 69 60 56 55 56 72 74 84 94 92 98 90 79 66 65 60 54 45 35 30 28 32 37 33 22 19 17 17 19 19 20 21 22 23 24 24 24 25 25 25 25 25
60 72 63 72 77 65 73 70 65 62 58 62 61 62 75 89 95 96 91 80 77 72 63 57 46 37 33 31 30 37 37 27 22 20 19 21 22 23 23 23 24 24 25 25 25 25 24 25 25
78 70 58 52 68 74 82 77 65 66 67 64 65 68 81 82 91 93 96 81 78 80 71 59 49 43 37 35 34 35 37 35 28 28 25 25 25 25 26 26 26 25 25 25 25 25 24 24 25
85 73 54 55 71 80 82 81 73 65 70 61 61 68 72 77 87 88 89 93 81 73 77 66 57 56 47 41 38 36 40 41 41 38 34 33 32 31 30 29 28 26 25 24 24 23 22 23 24
90 71 62 55 72 78 86 80 76 70 63 61 61 72 75 78 84 79 77 86 94 82 64 68 64 61 57 51 40 38 39 41 42 41 39 38 38 38 36 35 32 29 26 25 24 24 24 24 26
95 70 58 59 75 91 89 76 79 64 66 69 67 72 79 74 74 77 75 78 90 90 72 75 72 65 60 55 50 44 41 41 42 42 42 39 41 42 42 40 37 32 28 26 27 27 27 28 30
82 68 58 59 69 83 96 74 74 67 70 75 72 73 69 75 76 78 82 80 72 81 78 78 79 76 71 63 57 52 50 44 45 45 45 42 43 44 44 43 43 40 35 31 30 30 32 34 36
76 77 63 63 74 91 97 78 78 73 71 75 72 73 78 77 74 77 77 78 80 83 74 73 82 77 76 73 70 62 55 56 54 54 48 46 45 45 43 42 44 46 41 38 36 35 37 39 39
80 85 84 74 71 96 95 87 82 76 76 74 77 73 75 77 82 83 77 78 80 81 82 75 79 82 79 78 76 74 66 61 59 58 58 57 56 53 49 46 44 46 47 44 44 45 46 47 47
83 85 89 79 82 97 94 91 86 82 78 72 78 80 79 79 82 84 82 80 80 83 83 80 76 78 81 84 82 86 82 77 71 69 68 69 68 66 62 54 50 46 46 49 50 51 52 54 53
82 83 83 79 90 96 96 91 86 84 81 79 77 77 80 86 86 84 82 82 81 78 83 82 78 78 80 85 84 84 84 86 79 77 78 77 73 73 69 61 56 54 49 51 54 57 57 56 51
77 74 83 94 93 96 96 96 89 85 82 82 81 77 71 72 75 79 85 80 80 76 81 83 80 81 76 74 89 86 80 81 89 93 86 83 83 79 72 67 64 65 58 55 56 53 55 55 51
75 78 85 91 96 96 94 94 90 87 83 82 82 78 71 66 65 68 70 73 74 72 82 82 82 85 79 74 74 75 83 85 84 84 84 88 89 86 83 75 71 70 61 54 55 56 58 54 52
81 71 72 83 90 90 95 94 86 87 89 89 78 79 72 68 64 62 64 69 70 78 77 76 80 88 92 79 76 89 91 84 82 83 84 88 91 92 89 89 87 86 82 70 63 57 58 59 56
84 77 72 77 80 88 88 93 85 87 87 87 87 74 75 70 66 63 62 61 67 68 74 82 80 80 80 80 90 86 84 85 88 83 82 91 89 88 86 94 89 91 91 89 85 77 72 66 59
91 81 81 75 85 85 94 91 80 80 83 87 78 74 71 71 68 64 62 63 61 61 61 66 72 74 78 80 88 92 97 94 92 94 95 94 90 92 93 94 95 92 93 90 86 79 68 59 56
90 86 87 82 84 92 90 84 76 80 74 75 75 72 69 66 64 66 62 59 57 57 58 60 59 62 67 76 78 78 87 87 87 89 91 94 95 91 90 93 92 91 90 86 80 70 65 63 62
89 98 97 97 98 91 84 85 76 67 64 67 77 70 60 59 59 58 57 55 53 52 51 52 54 59 60 66 73 78 79 80 84 86 88 91 96 96 96 90 88 87 89 81 72 67 65 61 60
96 91 96 94 92 89 88 85 71 62 59 64 68 63 58 57 59 57 54 51 52 52 51 51 51 57 58 59 62 66 70 73 73 76 80 84 95 95 91 88 86 89 83 74 68 70 70 70 69
87 88 76 81 78 87 86 72 60 63 66 67 65 59 58 57 57 54 50 46 49 52 53 53 53 54 55 55 56 58 58 59 63 67 73 78 83 82 86 88 85 81 74 73 76 76 74 74 75
81 72 78 80 84 72 75 71 63 62 64 67 65 59 54 52 48 45 43 47 51 56 55 52 49 50 51 50 51 53 55 57 57 59 63 70 76 77 80 81 79 74 74 76 80 81 80 76 70
80 77 76 74 78 72 74 64 58 59 58 58 60 58 52 48 44 41 39 40 44 47 50 51 50 50 51 53 53 54 54 53 52 55 60 66 69 72 75 75 75 78 82 83 84 83 77 68 68
81 74 69 72 72 77 72 61 59 55 53 53 52 49 49 48 44 42 40 38 38 38 36 37 39 41 43 44 46 46 45 45 45 45 51 58 65 69 73 74 83 85 85 84 80 80 72 64 61

GFSSGP_prec_cthk_093.txt.gz
RH
30 31 43 50 60 67 61 54 49 58 66 81 82 80 72 69 61 56 60 62 56 48 51 53 41 35 31 27 23 29 35 33 26 23 22 33 39 52 61 54 31 15 15 15 14 15 15 14 15
27 36 45 58 66 67 57 50 49 56 58 67 84 81 80 78 71 69 66 64 60 51 52 52 41 37 35 26 24 29 40 45 41 40 39 41 60 67 54 30 15 14 15 14 14 15 17 18 19
27 36 47 60 67 56 58 48 47 50 63 69 84 86 84 81 79 73 68 68 62 56 52 50 40 39 36 28 22 28 40 56 63 64 69 75 68 49 23 14 14 16 14 15 17 18 21 22 22
29 37 50 60 62 61 62 45 44 50 66 69 69 92 87 87 84 78 71 67 63 62 59 48 42 41 34 29 26 31 37 50 57 66 71 69 38 20 16 15 15 14 16 18 20 21 23 24 24
33 43 51 58 60 66 66 55 51 50 56 65 67 81 90 93 88 84 76 68 66 64 59 47 49 41 32 27 24 31 38 44 49 53 49 26 18 15 16 15 15 18 20 21 23 24 25 24 24
43 46 52 52 49 58 64 62 63 61 58 62 69 73 81 90 94 94 82 76 69 62 58 55 54 41 31 25 22 25 33 37 37 32 25 20 17 17 15 17 20 22 22 23 25 25 25 25 26
49 54 46 41 40 54 52 67 68 66 66 65 63 69 72 82 86 98 86 78 69 62 58 63 56 41 32 29 29 21 23 25 25 22 17 18 17 16 17 20 22 23 23 24 24 25 25 25 25
51 58 52 50 46 44 45 66 68 69 64 61 64 65 70 75 83 94 96 80 69 64 64 63 52 39 33 39 31 27 21 19 18 17 22 17 17 19 20 21 22 24 26 26 25 25 25 25 25
55 72 63 52 49 39 45 62 72 73 70 69 66 61 58 70 82 92 97 97 83 71 71 64 52 38 34 39 39 36 28 23 21 19 18 19 20 21 22 23 24 25 26 27 26 26 25 24 24
64 77 65 49 46 44 47 62 67 81 73 73 66 62 64 73 79 88 95 98 83 85 78 64 51 40 35 34 39 40 35 28 23 21 21 22 22 23 23 24 24 24 25 25 26 25 24 23 23
54 71 69 58 49 54 51 67 71 86 73 67 66 59 60 65 75 94 90 98 91 89 84 66 52 44 39 35 35 39 37 32 29 26 24 25 24 25 25 25 26 25 25 24 24 24 22 22 22
65 58 67 66 57 62 55 78 79 87 71 67 67 60 66 71 77 88 95 95 97 93 83 67 54 47 43 40 38 37 40 39 37 34 34 31 31 31 30 29 29 28 26 25 24 23 22 22 24
71 60 63 69 68 66 65 78 86 88 81 72 75 72 71 76 84 84 86 85 88 93 87 73 53 49 47 44 41 42 45 48 48 45 41 38 38 36 36 36 35 32 28 26 25 25 25 25 27
78 77 75 83 68 63 69 76 80 80 87 74 74 78 76 77 80 82 84 79 77 87 94 84 68 55 53 51 47 44 46 46 50 49 46 43 42 42 43 42 39 38 35 30 29 30 30 31 33
84 92 89 86 69 66 72 78 80 88 88 75 74 84 81 86 79 72 76 74 71 78 94 83 75 64 58 58 53 47 46 44 46 49 48 48 45 46 46 45 43 43 42 38 35 33 34 36 38
96 98 96 79 66 73 70 71 79 89 85 82 79 81 82 74 71 67 67 73 73 81 81 88 83 75 61 58 60 59 52 47 47 47 50 47 47 46 46 45 46 46 47 46 41 42 43 44 45
95 95 89 90 66 72 75 80 86 84 80 79 79 87 86 83 78 74 68 76 83 88 84 85 79 76 66 64 64 64 61 57 50 51 51 54 55 56 54 52 53 53 49 48 47 48 50 54 53
87 86 88 85 75 75 84 88 95 89 82 78 76 84 87 84 84 80 84 84 88 90 85 89 84 79 78 70 69 67 68 67 67 66 63 64 67 67 64 62 61 59 55 50 51 52 55 55 54
84 78 83 89 84 81 89 98 94 92 85 79 77 78 82 85 92 97 95 95 93 86 90 83 82 81 78 76 78 75 75 74 73 70 73 77 75 73 71 72 70 67 65 62 58 55 57 51 51
85 77 90 94 89 81 91 96 95 88 86 82 81 78 84 88 94 92 91 97 97 91 80 74 78 83 80 79 78 82 80 75 78 78 87 87 83 85 84 81 80 76 75 74 72 64 56 55 56
86 78 83 92 85 81 90 98 96 86 87 82 84 82 81 83 84 86 88 83 79 82 82 81 82 86 82 79 80 79 76 84 83 86 86 90 88 94 93 91 93 92 85 83 87 83 69 62 60
88 79 75 78 79 86 84 94 95 91 88 87 83 83 79 75 75 77 81 82 86 81 84 85 84 85 82 85 89 91 91 90 89 93 94 96 92 94 95 92 96 98 97 93 95 92 88 80 73
88 81 77 76 77 78 88 95 92 85 90 89 84 80 77 77 77 75 75 73 74 77 82 81 80 84 84 84 95 98 98 88 86 94 93 96 95 95 95 97 98 98 96 93 92 93 91 87 75
94 89 83 78 73 84 91 92 80 81 73 74 84 79 81 76 75 75 72 71 69 64 65 64 69 74 77 77 82 89 86 85 89 95 91 91 90 97 95 98 96 97 96 93 90 92 91 84 75
93 92 89 85 80 87 87 86 80 68 65 69 82 86 78 84 81 77 71 68 66 66 63 61 60 61 63 66 65 73 81 83 83 93 92 93 88 88 93 94 96 96 93 91 90 86 79 76 78
98 89 80 81 81 88 87 91 75 68 66 67 77 79 78 76 72 72 71 65 61 60 54 54 55 59 59 57 58 62 68 72 70 79 81 82 83 87 90 92 89 88 87 86 85 80 80 78 75
84 86 72 71 73 79 87 77 68 72 72 80 80 71 70 67 63 64 63 61 60 59 52 51 53 54 53 55 58 59 62 64 63 64 67 69 71 78 79 83 80 82 84 81 79 75 75 71 71
83 76 78 81 81 79 75 74 74 75 76 73 70 69 65 62 63 60 56 56 56 53 51 56 56 56 57 57 59 61 63 61 59 58 58 59 64 68 70 70 73 76 78 77 74 72 69 71 76
79 76 73 72 74 69 74 68 67 69 71 74 71 62 57 57 54 52 51 49 49 50 51 57 57 55 54 55 57 56 55 54 52 50 51 53 58 61 64 68 70 70 71 69 74 78 76 78 74
79 73 64 69 70 69 65 65 63 62 64 64 64 64 57 53 49 47 45 44 44 43 44 46 47 51 54 56 56 57 55 54 52 50 49 50 55 60 61 66 68 67 68 72 74 78 76 73 70

GFSSGP_prec_cthk_096.txt.gz
RH
26 32 33 39 37 37 34 34 40 40 50 65 61 71 79 75 63 62 61 58 62 62 58 55 48 35 30 27 23 25 30 27 22 24 18 32 46 53 54 51 27 23 17 20 21 21 13 14 15
29 33 36 45 41 35 35 34 45 38 40 55 67 67 83 81 77 71 63 64 66 65 61 59 48 36 31 25 26 31 32 25 25 23 27 46 56 54 56 32 22 18 21 20 15 15 17 17 19
27 31 38 39 44 37 35 40 43 38 40 47 64 65 83 82 83 79 71 68 67 68 66 58 49 40 34 25 29 35 36 35 35 40 53 55 61 62 37 23 20 18 19 16 17 19 20 21 21
30 36 40 42 34 34 36 38 51 35 44 50 58 67 71 85 84 83 78 73 72 70 68 57 48 42 35 26 30 41 47 52 60 61 65 81 71 41 23 16 20 15 21 19 20 21 22 23 22
31 42 37 34 32 33 39 44 53 39 42 52 56 56 59 70 83 88 85 78 73 71 68 58 51 44 35 27 30 44 52 58 66 71 83 81 51 29 15 16 16 16 21 20 22 23 23 23 23
42 38 37 35 29 30 36 51 48 43 43 48 61 65 60 61 80 91 94 85 79 72 70 61 54 49 34 26 30 42 51 57 64 73 72 44 28 16 15 16 17 20 21 21 24 25 24 24 24
42 44 35 32 29 28 38 46 44 43 48 52 61 66 54 57 72 85 96 91 81 74 76 59 62 47 34 25 32 40 47 53 59 61 40 23 17 16 15 18 20 21 22 23 24 25 25 24 24
41 49 42 37 36 33 35 41 40 44 53 55 66 62 58 47 63 80 81 95 88 76 74 67 69 49 35 30 27 35 42 46 44 32 23 18 17 16 18 20 22 22 23 24 24 24 25 24 24
44 57 50 45 40 39 33 43 39 43 61 63 64 65 68 55 69 76 78 94 98 88 80 83 74 54 42 39 29 30 30 29 26 23 20 20 18 18 21 22 23 24 25 26 26 24 24 24 23
42 46 46 43 45 48 42 49 36 49 59 69 66 73 70 59 73 81 80 87 97 91 87 90 73 56 50 43 37 29 24 21 25 26 23 27 23 24 25 23 25 26 26 26 26 25 24 22 22
40 45 40 44 51 59 53 54 46 56 60 67 70 69 68 68 72 81 89 92 90 97 94 89 72 55 47 49 46 38 33 31 30 31 30 31 27 24 25 25 25 26 26 26 25 25 23 22 21
48 39 44 39 52 70 65 54 61 58 59 66 75 74 78 71 69 77 85 83 98 95 98 91 69 55 48 49 49 49 37 36 32 29 27 27 27 26 27 30 29 27 27 26 25 24 24 22 22
56 56 56 50 48 67 70 61 60 55 59 65 81 78 85 79 69 75 82 79 88 97 99 88 66 52 46 44 49 51 44 36 33 32 30 30 30 29 29 30 30 29 28 27 26 25 25 24 25
71 67 60 60 55 62 75 57 71 59 68 66 76 78 78 91 77 70 73 75 91 89 98 88 71 52 46 41 39 40 43 43 39 39 38 38 38 35 34 35 36 35 33 30 28 27 29 29 31
71 67 78 70 61 72 73 70 66 65 73 71 76 79 74 95 84 75 70 69 79 86 92 96 87 63 51 44 39 38 38 42 46 48 46 43 43 42 40 42 41 40 39 36 33 31 32 32 34
75 91 85 70 67 74 81 62 60 72 73 78 80 84 80 94 90 74 70 67 74 80 86 92 90 77 62 53 47 42 45 46 48 51 50 49 47 47 49 51 52 47 47 44 42 38 36 39 40
82 97 97 90 78 81 77 67 68 65 69 78 87 81 79 88 94 86 72 77 75 83 89 88 91 90 73 65 62 56 51 49 51 50 50 49 47 48 49 53 55 50 54 49 49 49 49 50 49
93 83 79 83 82 80 73 71 64 65 76 81 81 79 80 86 94 89 77 79 78 86 84 88 92 91 79 76 73 69 59 57 52 52 53 49 49 49 51 62 59 55 58 52 51 54 57 57 58
95 90 84 94 84 74 62 61 62 79 82 86 88 81 77 89 98 95 78 76 85 87 85 90 89 87 84 82 77 72 66 63 65 66 65 59 59 58 63 69 71 66 63 61 61 62 62 59 59
92 85 87 93 93 72 66 69 71 74 74 90 89 86 85 90 96 99 94 87 85 88 93 94 91 88 85 84 84 78 71 71 69 69 68 70 71 77 73 76 85 77 76 75 73 70 79 70 62
84 76 85 92 91 79 79 85 83 75 80 87 88 83 87 90 91 97 98 98 97 97 96 90 89 90 87 86 83 86 83 80 74 74 75 77 82 79 83 91 89 92 92 86 82 81 81 78 77
78 71 79 92 86 81 75 96 98 96 95 85 82 84 88 96 94 92 89 91 93 93 90 92 91 89 89 87 85 86 90 86 85 82 81 84 82 86 95 91 96 95 98 98 95 91 91 87 81
80 72 76 79 79 74 79 93 96 94 90 82 83 82 88 88 89 93 91 92 95 93 92 89 87 82 83 84 89 90 88 83 85 83 79 82 88 97 92 95 97 96 98 98 98 94 96 93 88
86 74 80 81 73 80 91 98 96 87 81 85 87 91 88 87 88 90 91 91 90 89 89 89 86 82 85 82 85 91 97 92 84 87 88 91 94 93 93 95 97 98 99 92 90 90 89 93 92
90 77 82 77 77 89 96 95 84 77 74 80 84 89 86 88 85 82 81 78 77 76 75 72 72 72 76 78 80 87 88 94 98 96 93 92 97 95 94 92 91 87 88 91 87 86 86 87 87
94 82 74 66 69 83 89 91 84 77 68 72 90 82 82 80 80 79 79 81 77 74 71 68 65 63 64 63 63 71 78 84 83 85 89 93 92 93 94 95 94 90 91 85 89 83 81 74 72
90 78 61 63 64 71 80 75 81 84 78 81 82 82 79 79 83 85 85 81 76 72 67 63 59 59 59 60 59 58 63 69 74 75 74 78 78 76 80 87 89 88 86 81 80 79 71 70 69
84 69 67 62 66 72 72 73 80 80 77 85 80 75 76 75 75 78 74 71 68 67 63 60 58 58 57 56 56 58 59 61 64 66 66 62 65 66 72 77 80 81 79 78 77 71 70 68 64
80 73 66 59 58 54 62 71 72 75 76 74 75 77 76 72 70 69 64 59 61 62 59 56 57 61 62 61 63 63 63 62 63 64 60 58 57 59 64 66 68 71 71 70 68 71 66 67 68
78 71 60 60 60 61 56 65 69 70 71 70 71 68 64 61 58 57 55 54 53 52 54 53 53 53 58 59 59 57 60 62 61 58 55 54 53 56 58 63 66 67 65 60 62 63 64 64 65

GFSSGP_prec_cthk_099.txt.gz
RH
18 29 34 40 41 36 32 28 22 28 31 41 55 55 53 63 70 74 67 56 60 60 58 58 54 42 34 29 25 21 23 19 20 22 20 34 57 61 56 52 31 32 25 21 14 12 12 14 15
19 27 35 39 42 36 28 24 30 28 34 45 56 52 53 62 78 80 71 58 59 64 62 61 56 42 34 29 24 25 31 26 25 24 20 35 55 57 53 33 24 26 23 21 14 14 15 16 17
20 28 36 39 42 38 27 27 29 31 40 40 51 55 55 62 69 78 74 66 60 66 67 65 57 43 36 30 25 31 33 28 31 32 26 43 59 56 48 24 26 28 22 15 16 17 17 18 19
28 33 38 43 33 29 29 25 27 38 46 45 51 54 54 57 63 67 77 75 67 69 73 68 61 46 40 31 30 36 34 32 34 29 41 58 65 55 34 26 30 22 19 17 18 19 20 20 20
29 36 36 32 32 30 29 33 26 33 45 43 50 48 51 43 56 64 76 79 77 73 77 73 64 51 43 32 35 41 38 38 38 52 63 63 69 48 31 28 21 23 24 19 20 21 22 22 22
39 31 36 30 27 27 28 27 32 33 39 45 46 50 50 47 48 61 69 82 89 80 79 77 66 56 46 35 39 47 47 56 62 67 68 74 69 37 27 22 22 25 21 21 22 23 23 23 22
35 37 31 28 26 28 28 30 31 37 41 45 41 53 50 54 46 48 65 80 95 91 84 85 66 65 50 38 40 52 57 62 70 71 78 77 49 30 24 21 25 27 21 23 24 24 23 23 23
35 36 35 34 31 29 28 28 32 38 43 44 47 48 64 53 49 47 57 85 98 98 89 88 71 73 53 41 41 54 60 66 71 75 75 51 34 26 21 23 27 28 24 25 26 25 24 23 23
35 40 34 34 34 32 34 32 29 38 44 46 46 54 53 71 61 49 53 80 83 93 97 97 81 82 57 43 43 53 61 65 72 73 53 33 23 20 22 26 26 26 26 26 26 26 25 24 23
39 37 31 29 32 38 38 36 34 35 45 48 49 52 64 68 60 61 61 71 74 82 92 98 90 89 62 51 39 48 52 59 64 58 33 28 26 26 28 24 25 25 26 27 27 26 25 24 24
45 39 33 33 33 34 37 44 48 41 45 53 43 53 57 70 77 62 64 72 79 74 91 94 98 91 67 62 41 46 49 53 51 38 32 34 29 28 31 25 26 28 29 29 27 27 25 27 26
40 41 35 32 32 41 46 47 61 50 55 57 50 56 67 61 85 67 58 73 77 80 88 88 99 94 66 56 48 48 46 46 39 33 35 36 34 32 33 29 28 28 28 31 29 31 29 26 26
50 42 44 39 39 43 42 49 70 53 63 67 67 65 75 65 84 88 66 68 67 69 80 84 99 97 70 72 63 51 46 41 39 42 41 37 35 33 35 34 34 33 32 32 30 29 29 27 29
60 63 55 52 47 50 51 42 50 60 56 74 68 73 81 84 88 98 79 64 68 76 79 92 98 94 63 79 78 67 48 47 44 38 35 35 36 36 36 36 36 35 33 32 32 31 31 30 31
71 63 58 51 54 56 55 54 52 59 63 59 65 56 68 79 75 95 87 68 69 71 78 90 98 84 61 63 80 80 67 48 44 41 38 38 37 38 36 40 37 36 35 35 34 34 33 34 36
67 63 66 64 62 65 73 59 53 63 71 61 74 60 61 74 73 90 93 87 81 74 82 88 96 84 69 63 56 56 60 56 45 41 41 40 38 40 40 40 40 40 39 39 44 46 37 35 38
64 70 74 86 75 69 65 69 72 74 67 75 59 58 57 68 72 90 96 91 82 82 79 84 90 87 78 73 63 55 50 46 45 45 45 46 44 45 46 46 48 48 47 47 57 51 46 44 46
73 78 74 95 80 69 78 78 71 86 64 66 59 55 57 70 73 84 92 95 88 88 89 82 86 83 88 86 72 58 51 49 47 47 49 55 54 56 54 56 56 55 53 54 63 53 58 57 57
73 70 78 95 95 72 80 78 73 73 59 64 64 64 60 74 74 93 96 95 95 91 90 84 91 92 95 86 83 70 63 55 53 55 58 58 62 63 61 61 57 61 62 59 68 53 59 55 57
70 71 78 84 87 77 76 70 65 63 55 66 74 72 74 84 86 92 93 92 96 91 92 84 90 88 92 83 82 75 71 73 75 73 72 69 65 63 66 65 66 68 66 68 74 70 62 61 74
74 78 84 93 90 83 75 73 67 71 71 78 76 76 83 87 94 93 96 98 96 94 92 87 93 92 89 89 90 88 84 82 88 85 82 76 72 73 76 75 69 75 73 84 85 86 78 81 84
84 75 85 93 98 95 73 88 87 86 78 72 72 82 86 92 95 90 98 99 99 98 91 94 90 93 92 95 94 92 89 88 83 84 86 78 77 78 82 79 78 79 82 88 92 90 94 95 93
82 73 89 82 83 95 85 81 98 92 87 79 87 89 94 95 95 95 91 96 98 98 98 96 96 96 96 95 95 92 91 91 90 94 93 84 83 85 84 85 86 87 93 91 92 92 96 98 95
90 81 82 84 86 97 96 98 99 94 90 90 79 87 95 98 94 94 89 95 94 96 95 91 90 91 95 93 96 92 91 87 95 97 96 90 87 87 84 88 86 83 94 94 96 90 90 86 89
94 81 95 95 91 96 98 98 98 93 93 91 85 86 90 94 94 94 93 95 96 92 89 91 92 89 91 89 93 94 93 96 94 93 94 94 90 85 88 88 89 88 94 97 86 89 87 92 89
94 95 97 77 88 94 92 97 98 89 90 93 89 88 95 93 92 91 90 88 84 83 83 82 81 83 82 86 88 89 89 90 93 97 94 94 93 95 94 96 94 94 94 92 91 91 91 86 82
81 81 70 71 69 71 91 98 92 92 91 94 87 86 89 91 89 88 87 90 87 85 81 76 74 73 71 71 70 71 71 74 80 85 84 81 82 81 84 89 92 95 94 94 93 92 92 84 77
86 69 75 69 73 76 87 93 96 95 89 91 89 87 81 82 83 88 87 90 85 84 78 73 69 63 62 61 60 63 64 67 68 69 70 73 72 67 74 76 83 87 92 89 89 85 79 74 67
80 68 58 56 60 61 72 94 76 81 86 78 83 84 83 79 78 73 75 77 74 69 67 67 65 61 59 61 61 60 62 65 66 63 63 62 63 62 67 64 70 78 79 79 75 72 75 66 62
73 66 57 56 54 56 60 78 70 73 73 78 77 75 70 66 63 61 58 57 56 57 57 56 56 56 56 59 61 62 62 60 62 62 62 63 62 61 61 62 68 74 80 78 70 67 64 62 63

GFSSGP_prec_cthk_102.txt.gz
RH
16 23 29 36 43 39 37 31 24 25 26 23 32 44 51 47 53 75 77 68 67 54 55 55 52 52 41 34 29 25 22 21 23 33 30 35 57 65 58 57 39 31 34 18 13 11 12 14 15
22 25 33 37 45 46 29 23 25 22 22 27 34 42 47 48 52 56 68 66 62 57 55 57 57 54 44 34 30 25 21 22 21 30 25 34 52 60 55 48 32 31 29 13 11 13 14 15 16
18 27 36 41 42 44 30 25 25 23 23 26 34 43 55 50 54 56 57 72 73 65 58 60 62 56 46 36 30 26 29 30 28 31 27 36 51 56 53 30 26 32 24 13 14 15 16 17 19
31 29 36 42 36 26 26 25 26 30 30 29 34 47 50 51 56 59 58 65 75 72 64 62 65 59 47 39 32 32 35 35 35 34 30 41 51 53 48 22 29 30 16 15 16 17 18 19 20
36 40 42 38 32 30 30 28 24 28 30 32 39 41 49 46 51 52 55 56 59 72 68 70 69 61 51 40 35 38 43 34 40 39 35 47 59 59 31 32 32 20 16 17 19 20 20 21 20
46 39 44 40 35 29 25 25 28 25 28 31 39 44 47 42 41 48 48 58 63 69 71 75 79 70 58 45 39 49 41 38 41 34 44 62 68 65 31 34 25 24 19 19 21 22 22 21 21
40 47 41 33 31 31 29 27 27 26 24 29 37 42 37 47 49 40 44 49 62 67 81 80 82 77 63 49 43 54 48 43 40 52 71 72 71 55 43 36 25 26 20 21 22 24 23 22 22
40 43 42 40 40 34 27 27 29 29 30 27 33 41 43 44 55 55 40 41 52 67 80 87 90 83 70 53 47 63 57 55 60 73 75 77 75 51 46 34 27 28 23 23 24 25 24 24 23
40 47 44 39 35 30 29 31 26 27 28 29 34 37 49 47 46 51 69 42 47 58 80 97 95 91 81 65 48 69 70 65 70 76 76 81 64 49 41 33 28 29 27 25 26 26 25 25 24
42 42 40 32 32 33 33 32 30 28 28 29 34 37 45 52 46 52 67 57 43 48 74 85 95 92 91 80 51 67 69 71 74 78 77 71 46 41 37 30 30 30 30 26 27 27 26 25 25
46 43 39 36 35 35 36 33 32 33 30 30 33 40 37 47 50 44 56 63 47 50 54 84 90 96 89 90 64 54 81 72 80 78 84 52 41 36 31 30 32 29 26 27 28 27 26 26 26
39 38 41 39 38 37 35 35 34 35 35 36 37 41 49 46 43 41 57 70 54 53 59 72 81 83 88 92 75 48 65 75 71 84 65 46 38 31 28 27 27 28 29 29 29 28 27 27 26
46 40 39 40 38 35 34 31 34 35 39 40 40 47 60 55 61 56 63 71 65 63 66 68 79 90 95 96 78 47 60 65 78 72 59 40 33 30 31 29 30 31 31 30 32 32 31 28 26
44 44 45 45 45 39 40 35 33 31 28 43 42 49 57 74 61 52 66 65 71 72 59 58 70 86 93 99 83 50 57 62 61 59 45 39 34 31 34 33 32 33 33 33 32 30 31 30 29
53 49 51 49 47 45 49 43 40 34 29 31 40 49 54 58 50 49 58 74 88 81 75 60 72 94 98 98 81 60 59 59 58 53 43 40 35 34 35 35 33 31 32 32 32 33 33 32 33
54 58 63 51 51 61 63 45 41 40 39 34 40 51 57 81 68 63 68 78 99 95 85 78 78 85 90 98 91 79 68 57 48 43 41 40 36 36 34 35 35 34 35 37 36 34 36 35 37
66 71 68 62 65 73 70 48 46 45 48 38 38 62 75 76 60 72 80 82 88 95 95 81 75 76 85 90 98 98 88 73 53 49 44 40 38 37 36 37 39 40 41 41 42 42 50 41 45
79 78 67 63 69 92 71 57 53 60 70 45 54 59 66 60 54 73 79 80 85 96 95 89 81 78 79 82 89 90 94 94 75 52 46 44 41 40 41 43 46 47 48 49 49 51 53 49 61
69 73 71 60 75 86 64 59 56 77 84 61 74 83 59 57 52 59 75 83 93 98 95 93 85 81 82 82 77 73 70 75 81 69 60 54 51 50 51 53 53 53 53 54 58 60 54 56 70
81 75 71 69 84 78 68 64 64 73 79 78 61 63 56 54 48 64 75 87 89 98 97 95 93 92 87 88 87 79 68 65 60 56 57 61 62 63 64 64 59 57 61 65 72 64 65 64 68
72 76 77 90 91 84 87 75 69 75 77 61 54 57 54 62 57 72 85 93 85 96 98 95 97 95 88 90 92 94 87 79 69 65 59 60 62 64 64 66 68 72 79 77 73 71 72 73 80
81 78 81 96 98 98 85 94 82 83 75 61 58 64 59 70 75 80 92 93 91 98 96 98 96 97 87 93 90 90 93 93 91 84 69 70 74 77 78 82 84 83 82 79 80 77 78 85 87
80 83 87 90 96 98 98 94 96 94 87 75 79 66 77 81 75 92 95 96 92 98 97 97 95 96 94 96 97 97 93 91 94 93 93 91 87 89 83 93 90 89 85 82 82 80 83 92 94
83 84 80 83 94 98 99 97 98 99 95 89 84 81 89 88 95 91 96 98 99 98 95 98 93 94 90 93 93 94 93 92 90 94 94 93 91 92 88 94 92 88 85 82 84 85 90 92 91
89 96 97 98 98 98 99 97 98 98 95 94 95 98 97 95 94 97 95 93 98 98 96 93 94 97 97 94 92 94 94 95 92 91 92 91 93 92 94 95 90 90 88 87 86 82 89 95 89
96 95 98 97 97 98 90 98 98 98 87 91 98 99 97 94 96 98 94 95 91 91 92 92 94 94 96 92 97 96 96 96 93 94 92 90 88 90 95 94 93 95 89 94 91 83 88 93 93
93 92 82 98 89 97 98 99 98 97 97 91 90 95 97 96 93 92 89 91 93 92 90 87 84 83 82 83 83 88 87 84 84 85 89 93 93 95 96 93 92 92 92 92 92 89 87 91 93
83 74 84 89 96 97 95 90 98 98 98 94 95 94 95 93 94 92 90 87 87 86 82 79 76 74 69 68 68 68 68 69 76 76 72 73 80 85 85 83 79 81 85 92 92 94 94 97 94
74 68 71 73 74 80 89 96 93 95 94 93 94 92 87 86 89 86 85 85 85 80 76 72 73 70 66 63 61 59 60 60 62 64 67 69 69 68 69 69 71 70 76 78 85 85 87 85 80
70 61 60 78 71 72 84 95 88 87 87 87 88 86 87 82 78 69 69 68 65 63 61 58 57 57 57 57 57 59 60 59 59 59 58 58 59 61 62 64 62 65 68 71 75 82 86 88 78

GFSSGP_prec_cthk_105.txt.gz
RH
17 22 29 36 40 43 42 35 27 24 22 18 21 35 37 44 46 52 52 62 67 67 66 58 52 49 46 39 32 29 26 25 30 33 27 40 64 62 58 50 43 40 30 23 12 13 13 13 15
19 26 30 37 45 52 36 25 25 18 20 24 25 30 39 44 46 49 52 51 57 70 67 63 55 54 48 42 34 30 27 26 26 33 30 36 58 60 59 50 43 35 24 18 12 13 14 15 16
20 29 34 38 48 46 38 23 18 20 20 29 29 31 41 49 45 48 51 51 54 65 70 67 60 56 55 44 38 31 27 27 25 30 34 35 55 58 59 47 38 32 23 14 14 15 15 16 18
29 29 33 46 44 32 26 25 22 25 23 27 30 37 41 50 50 42 43 47 47 56 63 66 67 59 57 48 40 33 29 32 25 30 37 34 53 56 61 41 30 29 21 14 15 17 18 18 19
34 38 42 44 37 31 29 27 25 26 30 26 32 37 42 45 50 47 45 46 46 52 62 73 74 65 60 52 43 37 38 40 34 35 37 37 55 55 53 34 26 29 19 16 18 19 20 20 20
39 39 49 50 41 30 25 23 26 27 28 29 27 32 42 43 42 42 40 42 45 50 60 78 78 76 65 58 47 42 48 44 43 42 38 39 54 54 54 32 32 25 16 17 19 21 22 21 21
41 46 46 41 38 32 28 24 26 27 26 30 32 32 33 43 44 40 40 41 39 45 52 62 72 80 76 66 52 48 56 49 48 49 43 48 57 61 53 35 34 22 17 19 21 22 23 22 22
42 47 47 45 45 38 28 30 30 29 27 28 32 33 35 40 50 48 44 39 48 60 54 55 72 77 80 72 55 51 64 51 53 55 47 57 68 69 48 37 37 22 19 20 22 23 24 23 23
38 50 53 46 40 36 29 30 29 30 29 24 32 33 34 37 42 48 47 47 46 58 67 54 76 82 83 79 64 52 68 63 62 51 56 75 75 71 53 50 40 25 21 22 23 24 24 24 23
41 48 45 39 38 37 33 33 31 30 31 29 24 32 38 46 44 44 47 49 43 53 63 66 69 84 84 86 74 60 74 73 64 60 79 78 79 69 53 50 39 30 22 25 26 25 25 25 24
41 44 39 38 37 38 37 35 34 32 27 32 33 27 35 39 50 46 43 45 41 56 64 66 70 97 90 90 85 70 76 83 72 74 83 80 83 65 52 47 41 33 26 25 27 27 26 26 26
42 38 38 39 37 38 38 36 33 33 31 26 33 33 33 38 42 52 49 43 38 50 63 59 61 67 85 92 94 83 76 81 81 78 87 82 83 63 48 45 40 31 26 27 28 28 27 27 26
44 38 38 38 37 36 35 34 32 30 29 32 28 33 35 40 44 49 55 58 48 48 53 55 50 59 68 83 90 87 70 89 73 79 86 87 63 55 54 44 34 28 28 28 29 29 29 27 25
40 41 38 37 39 40 40 35 37 31 26 23 33 29 36 39 44 48 55 57 62 46 49 54 54 45 57 70 87 92 76 81 95 88 89 80 72 64 49 36 30 29 30 31 31 30 29 28 26
47 46 40 39 38 40 42 40 29 28 31 27 24 31 39 42 42 43 50 45 60 46 51 56 66 53 47 60 74 94 85 65 92 83 85 90 64 55 42 31 30 31 32 34 34 34 33 31 30
48 47 49 40 45 46 46 42 38 40 37 33 27 24 32 37 45 45 58 50 52 53 59 72 77 74 59 54 69 96 98 66 74 84 86 81 67 48 33 32 32 34 36 36 35 35 36 35 35
53 58 56 49 48 51 56 56 53 44 40 38 33 28 26 34 49 50 57 52 46 57 61 71 82 92 76 66 70 96 95 76 71 72 70 62 59 41 36 37 38 39 38 38 39 40 39 40 40
57 60 55 57 53 63 65 66 63 53 47 47 42 38 34 39 47 51 56 47 52 60 71 89 95 97 86 74 82 94 97 80 69 73 68 65 47 44 41 41 40 40 42 43 43 44 46 44 44
59 60 61 56 61 76 72 65 60 51 60 64 57 42 40 41 41 54 58 60 65 74 81 85 93 98 89 82 84 93 99 95 81 69 58 50 46 44 44 44 45 45 47 49 50 51 49 48 49
66 71 68 61 71 84 81 70 59 56 58 63 53 62 53 50 54 63 61 71 84 84 85 88 96 99 89 87 91 96 98 97 96 89 71 54 50 48 48 49 51 52 55 56 56 54 54 55 60
72 70 70 77 75 82 85 76 64 55 57 63 68 68 68 67 75 68 63 74 79 84 91 98 98 99 94 89 92 93 94 93 90 90 89 74 67 59 56 55 56 59 60 61 62 67 71 76 78
76 71 78 85 90 92 93 89 82 73 74 67 63 64 64 66 70 62 62 72 85 89 95 90 99 99 97 96 96 96 95 94 94 90 84 80 77 78 77 71 67 68 70 74 77 78 81 83 84
74 77 80 86 94 98 92 97 92 92 79 67 61 62 64 65 75 78 74 83 85 84 92 93 99 99 98 97 96 93 96 95 94 92 88 87 83 75 74 79 83 82 86 88 87 88 91 91 91
79 83 86 88 94 98 98 99 98 94 84 80 71 69 71 85 93 89 84 83 88 89 93 98 99 98 99 98 98 98 93 94 93 90 89 91 88 86 90 91 86 92 88 87 89 86 85 91 86
90 95 96 98 98 97 98 96 98 96 90 82 81 76 92 94 94 91 89 80 99 97 99 99 98 98 96 98 97 97 94 92 93 91 93 96 97 93 94 89 92 90 89 89 90 88 88 89 89
92 98 98 97 97 98 98 97 98 97 99 98 97 98 98 96 95 93 97 98 99 98 98 99 98 94 97 96 97 95 93 93 92 91 93 91 92 91 91 92 94 97 93 92 96 93 94 91 93
95 99 97 98 98 97 98 99 94 93 98 98 99 97 98 99 98 98 99 98 96 96 95 93 93 93 93 93 91 92 96 94 92 92 93 93 93 92 92 92 97 93 92 93 93 92 93 92 90
92 93 97 96 97 96 97 97 98 98 96 97 98 97 98 97 98 97 97 95 95 94 93 91 89 87 83 82 85 85 84 82 84 88 87 85 86 85 89 87 91 91 88 90 91 90 93 93 92
86 85 84 79 84 90 93 97 98 98 96 95 91 92 96 96 96 95 93 92 90 88 85 83 82 80 76 75 77 78 71 68 69 70 72 70 73 75 75 76 77 75 75 77 79 81 86 90 92
73 78 73 84 76 82 87 97 96 96 95 93 93 86 85 87 81 83 85 76 75 72 69 69 68 67 66 65 63 61 60 60 60 59 59 59 59 61 62 63 64 65 71 73 71 73 78 80 82

GFSSGP_prec_cthk_108.txt.gz
RH
16 23 33 35 36 41 43 36 29 27 23 19 20 22 29 32 37 44 43 48 56 65 62 61 57 51 45 40 37 33 33 33 34 34 30 35 52 61 56 55 52 45 37 25 20 18 12 12 13
19 26 32 41 42 48 36 29 27 22 19 24 21 21 27 38 43 40 45 45 50 60 70 67 64 58 51 44 39 36 31 32 33 39 30 36 59 61 54 58 52 41 28 21 14 14 15 16 18
23 26 28 37 47 46 39 28 21 17 17 24 25 24 31 40 47 43 43 45 43 50 58 71 69 65 57 51 44 38 35 33 30 37 38 34 53 60 58 54 48 32 24 20 14 15 16 17 20
25 30 31 42 45 36 31 31 23 24 22 25 26 27 36 46 40 46 50 48 47 47 53 58 65 70 66 54 48 41 37 35 33 32 45 37 49 61 63 52 46 30 21 20 14 16 18 19 19
32 34 39 46 42 32 28 25 23 23 26 26 28 27 27 42 49 38 42 48 47 48 51 61 68 76 71 62 48 42 38 37 35 32 43 39 46 62 62 53 39 27 22 20 15 17 19 20 21
34 39 50 50 41 32 27 26 29 26 24 29 30 28 29 30 46 62 43 41 47 45 49 52 62 68 73 65 52 41 40 42 44 32 41 42 47 60 60 49 35 25 25 18 16 18 20 21 22
32 38 46 46 42 36 30 26 26 26 26 27 32 29 30 30 38 52 74 51 45 44 42 46 52 63 68 71 61 47 42 51 52 43 45 46 47 61 57 43 36 29 25 18 19 20 20 22 22
29 36 39 41 44 40 30 29 29 27 25 28 30 32 32 32 36 50 69 73 56 47 48 41 48 60 65 71 69 59 49 56 58 53 56 53 49 59 54 46 37 32 26 19 20 21 22 23 23
30 37 43 36 37 40 36 31 26 29 28 26 32 31 35 42 41 58 53 66 75 56 50 52 52 67 72 69 68 67 60 61 58 59 60 62 53 60 65 52 41 36 30 21 22 23 23 24 24
33 41 39 33 31 32 34 36 31 29 30 28 29 34 31 35 50 55 57 53 56 56 54 50 51 62 70 78 69 67 68 70 59 66 66 60 58 70 72 57 51 43 34 24 24 24 24 24 24
35 39 33 31 30 32 33 34 35 32 28 29 28 34 34 33 37 41 57 65 60 46 45 42 51 59 64 73 80 73 71 77 73 68 73 58 62 81 79 57 54 51 37 29 25 25 25 25 24
36 34 34 33 30 30 30 31 32 33 30 27 28 30 36 36 36 39 46 57 58 56 47 43 48 56 59 70 74 79 68 77 85 73 70 63 79 84 83 59 55 50 38 31 27 26 26 26 26
40 38 40 37 34 32 32 32 34 31 30 29 25 27 30 34 38 40 42 49 55 59 57 49 49 60 59 60 69 79 81 74 89 87 75 74 80 82 87 66 56 51 41 34 27 27 28 28 28
41 40 37 37 34 34 33 32 37 29 29 28 27 25 28 31 34 37 43 48 53 66 60 53 47 54 55 55 60 70 70 80 85 96 84 82 92 86 85 76 62 52 42 34 30 30 29 30 29
45 45 44 39 39 38 39 39 36 36 40 37 30 26 23 29 33 36 40 46 52 54 56 53 51 48 54 52 53 53 61 79 79 94 91 89 84 97 83 61 52 54 44 34 33 33 33 31 30
48 50 54 39 41 41 45 42 39 42 45 43 38 29 25 24 29 34 38 45 51 51 49 52 53 49 46 46 49 49 55 64 78 89 97 89 91 80 74 63 68 55 41 35 36 35 33 33 34
52 55 57 51 43 46 47 43 39 45 49 43 37 32 28 25 25 31 38 44 52 53 51 46 52 51 50 47 49 52 50 63 80 87 97 99 92 81 78 74 62 53 39 37 37 36 35 37 38
54 58 53 51 42 44 46 43 43 45 46 42 36 32 29 27 24 26 36 45 49 52 48 47 48 52 60 62 67 68 63 58 77 85 86 97 97 89 76 73 60 44 41 40 39 38 41 42 44
62 63 59 51 47 49 50 54 48 42 42 40 43 47 43 31 25 25 33 46 50 53 45 41 45 60 63 67 82 84 77 67 77 85 80 91 96 95 87 66 50 47 43 43 42 45 45 48 52
66 64 56 52 52 62 62 57 56 50 49 44 46 49 42 36 28 32 34 42 48 47 47 51 61 71 76 85 86 92 87 81 77 80 85 87 86 88 86 59 49 47 47 47 46 49 52 57 58
67 67 63 65 59 67 72 71 61 52 51 49 52 56 56 42 41 42 41 43 48 47 52 55 77 81 87 91 91 93 97 88 83 82 88 90 86 79 67 53 48 49 51 53 53 58 60 61 65
72 65 66 69 77 79 84 82 75 77 72 61 59 63 58 62 55 52 54 56 52 52 62 66 86 91 90 95 93 97 97 94 91 92 94 91 87 73 57 51 51 53 56 61 64 68 67 68 75
73 71 73 76 84 90 91 96 78 86 86 72 58 55 57 66 71 68 66 62 70 78 82 88 92 90 95 95 95 98 99 97 95 94 95 96 93 83 74 67 60 60 63 64 72 82 87 91 89
72 81 82 89 93 92 93 98 91 93 88 71 63 60 58 65 68 77 81 83 79 88 91 92 91 97 98 97 99 99 96 97 96 94 91 93 92 93 95 88 80 87 84 85 89 88 91 90 94
89 93 93 94 97 96 99 98 93 92 83 73 71 73 75 80 92 96 96 93 92 93 92 93 96 96 98 97 96 98 99 98 98 96 96 95 95 95 94 95 91 87 91 89 90 88 91 88 91
89 94 98 95 97 97 95 96 94 94 87 83 93 94 98 98 98 99 98 97 96 97 98 99 99 98 98 99 98 99 97 96 98 97 97 97 95 95 95 95 95 96 93 93 93 91 90 93 92
91 98 98 98 98 98 97 98 98 97 98 96 98 98 99 98 96 99 96 99 98 99 99 98 98 95 96 94 96 96 94 96 97 95 91 90 94 97 97 96 91 90 89 90 93 90 93 95 93
93 96 98 98 97 95 92 97 97 98 98 98 98 98 99 98 98 98 97 96 95 96 97 96 94 92 93 93 95 92 93 93 91 92 94 95 96 97 93 92 91 91 93 97 94 89 89 93 92
95 98 95 89 89 97 96 98 98 98 97 97 98 99 98 98 98 98 96 95 95 94 93 92 90 88 89 88 86 81 80 82 84 86 87 88 88 88 87 88 88 84 82 83 84 81 83 86 88
85 86 82 83 91 89 94 98 98 98 97 92 93 95 92 96 84 83 81 80 80 81 80 80 81 80 80 77 74 71 68 69 65 67 64 64 63 64 65 68 72 74 75 75 75 72 74 76 82

GFSSGP_prec_cthk_111.txt.gz
RH
17 24 30 32 35 39 42 35 32 27 23 20 21 26 27 27 30 40 46 46 48 50 50 54 56 55 49 43 40 40 39 36 36 34 32 31 33 38 47 53 55 48 36 32 28 15 11 12 14
22 25 32 35 37 41 30 32 29 29 29 25 22 21 24 28 32 37 40 43 48 51 52 49 55 57 54 49 43 39 38 38 39 38 34 37 42 51 55 55 55 47 32 26 23 12 12 13 15
26 30 32 35 43 42 32 28 27 23 23 24 23 21 23 34 34 37 42 44 45 50 50 51 50 60 59 53 46 39 36 35 35 41 40 36 51 54 58 56 50 40 28 22 18 13 14 16 18
28 35 35 41 47 34 30 28 26 25 22 21 24 26 23 28 40 43 45 45 45 48 51 50 49 57 63 61 51 44 38 35 34 38 43 42 51 57 59 62 49 33 27 22 20 15 17 18 20
26 28 39 46 43 35 29 26 26 25 25 25 24 25 25 31 43 44 50 51 52 51 53 53 49 54 65 65 60 48 41 38 37 36 41 43 48 62 62 61 51 33 27 23 21 15 17 18 20
25 29 37 42 42 35 31 27 27 26 24 25 24 25 26 27 36 52 59 58 62 59 52 49 51 54 63 66 67 57 44 37 37 41 37 44 46 61 66 61 49 35 26 24 20 16 18 20 21
30 33 36 38 36 35 34 28 25 25 24 24 25 26 27 26 33 44 61 63 63 74 68 52 50 51 58 66 66 65 53 41 40 45 39 45 48 54 68 64 45 34 29 26 21 18 19 20 21
28 31 35 33 32 31 30 32 30 27 25 24 25 27 28 30 29 40 51 65 72 73 72 73 53 48 50 53 58 61 62 55 49 52 44 50 51 50 69 66 44 35 32 30 22 19 20 21 22
25 31 36 32 33 29 26 27 28 29 28 26 25 28 31 31 32 37 51 59 70 80 77 70 69 55 49 49 55 56 60 63 63 60 57 56 59 54 61 63 44 41 37 34 25 21 21 22 22
28 34 31 29 29 27 26 26 27 29 31 28 27 26 29 32 39 38 44 55 65 72 76 70 65 64 56 56 57 59 62 62 64 66 62 62 67 63 56 58 48 45 40 37 31 23 22 22 22
34 36 31 28 27 27 27 25 25 27 27 32 28 26 27 31 32 39 41 47 54 66 71 71 71 62 54 59 66 73 70 66 66 71 68 66 70 66 58 60 62 50 45 45 37 30 24 23 23
33 31 30 30 27 27 27 26 25 24 24 28 30 27 27 29 33 33 38 42 46 56 61 68 69 59 56 55 57 64 72 73 68 62 70 74 71 68 63 69 68 51 47 47 41 35 26 25 24
37 35 33 32 32 30 29 29 28 24 23 22 26 28 27 28 31 34 35 39 46 52 55 57 62 65 50 55 58 63 66 68 71 73 72 81 81 71 65 80 71 56 48 48 45 39 30 27 27
42 40 37 34 32 33 32 29 31 23 23 24 22 25 27 27 29 33 36 37 42 51 51 56 61 64 60 52 64 63 62 63 66 62 71 78 84 70 72 81 81 59 55 47 48 42 34 30 30
44 43 39 34 34 36 35 36 31 26 30 28 28 27 29 30 28 29 33 37 40 45 52 52 52 51 54 49 55 58 59 62 62 59 65 79 84 81 79 83 84 65 56 52 50 44 36 32 31
49 46 49 36 39 40 42 41 31 30 32 34 32 31 29 27 27 27 29 32 39 45 50 52 51 47 47 46 47 53 56 58 55 56 61 65 92 95 93 87 89 67 63 62 51 46 36 34 33
51 53 50 44 39 42 45 41 32 31 36 39 36 34 35 30 25 27 28 26 33 40 48 52 53 47 47 41 45 45 54 55 57 58 61 61 77 97 98 93 87 74 66 64 56 49 39 38 36
54 57 52 51 43 46 49 40 31 32 42 41 38 35 33 31 26 26 27 24 27 37 43 48 54 55 50 44 47 46 49 50 49 49 55 60 76 96 99 97 84 78 67 66 65 58 42 41 39
58 60 57 51 49 56 50 49 36 37 47 45 40 34 31 31 31 29 27 25 27 33 42 45 47 47 51 47 45 44 42 47 46 46 53 58 73 85 98 96 91 82 71 74 66 57 45 46 46
58 60 56 53 53 59 52 46 44 48 52 48 41 36 35 36 36 34 28 25 27 34 40 45 46 47 48 47 48 49 49 55 66 70 66 69 75 88 93 92 87 85 78 67 66 53 48 48 51
58 63 59 61 56 55 61 57 55 55 57 52 46 42 40 39 35 31 29 32 29 32 39 46 50 51 46 46 49 60 61 66 83 78 80 77 76 87 93 94 91 80 73 68 61 53 52 54 55
63 57 59 58 73 73 72 71 62 72 68 69 61 51 51 46 49 40 39 37 36 37 41 50 53 47 45 46 59 67 79 79 82 83 86 80 77 91 93 95 94 89 73 65 55 57 59 59 60
65 66 72 77 84 87 83 90 71 81 83 80 73 53 48 50 60 57 48 42 40 41 46 47 48 46 48 61 72 80 85 85 88 98 84 91 91 94 96 91 94 87 72 63 61 61 65 66 70
70 78 87 89 92 92 92 96 84 87 84 77 70 58 54 57 67 75 71 59 62 61 66 64 52 44 59 76 84 87 90 91 94 94 97 94 93 91 93 91 87 80 74 67 74 78 82 84 84
85 93 91 87 94 93 98 97 92 91 78 72 66 67 71 77 82 83 83 79 72 79 76 64 53 71 77 90 95 94 94 97 98 98 99 98 97 95 91 89 89 89 87 87 91 90 86 85 88
91 93 96 93 95 95 97 97 97 94 87 87 82 83 88 98 98 96 94 92 85 82 84 89 89 94 96 98 98 99 99 99 99 99 99 97 97 95 95 97 98 98 98 97 93 94 93 90 88
90 98 95 96 97 97 97 98 97 96 93 94 95 95 98 97 98 99 98 97 98 97 97 98 98 99 98 98 95 97 97 98 98 98 98 95 96 93 92 92 92 94 94 95 93 93 94 89 90
94 94 95 96 96 96 97 98 97 98 98 98 98 98 99 97 97 97 96 99 99 99 99 98 99 99 98 96 94 94 95 94 95 96 95 94 95 96 97 97 96 96 95 95 92 92 92 92 95
96 97 97 95 92 96 96 98 98 98 98 98 98 98 99 98 99 98 98 98 98 96 96 96 93 92 94 95 95 96 95 94 95 95 94 94 96 97 96 95 93 92 92 91 91 84 93 93 91
90 91 90 94 89 91 96 98 98 98 98 97 97 93 90 89 87 87 87 88 90 92 93 91 90 91 93 93 88 86 84 83 85 83 85 82 81 76 75 76 78 78 81 79 80 78 79 81 78

GFSSGP_prec_cthk_114.txt.gz
RH
19 27 30 31 33 36 36 31 31 28 24 22 22 24 28 27 26 34 39 45 44 47 49 53 55 58 55 51 45 40 39 39 37 35 32 32 33 35 34 49 49 47 45 38 24 17 19 15 13
22 27 32 34 34 35 25 30 29 31 28 23 20 21 28 29 28 31 38 40 45 51 52 52 49 53 58 55 50 46 41 39 38 35 34 34 35 37 50 59 54 46 38 33 22 15 14 14 14
28 33 32 33 38 34 25 27 26 27 27 26 22 19 23 32 43 42 45 47 48 44 47 49 49 49 56 59 55 47 44 38 41 43 40 42 42 47 59 66 55 42 32 26 20 14 13 16 18
28 36 36 41 42 33 27 29 27 25 23 23 22 23 21 26 34 45 46 50 52 49 44 45 46 47 47 55 58 52 46 41 38 41 49 49 50 56 64 69 57 42 29 27 22 16 14 17 19
27 28 35 39 41 37 32 30 30 28 24 22 21 21 22 24 27 38 44 51 49 54 49 49 48 47 49 51 56 58 50 42 38 38 44 47 48 63 67 66 56 40 32 28 23 19 16 17 19
23 24 29 34 33 30 30 27 26 26 24 23 22 20 24 24 28 37 42 60 64 59 61 52 47 44 47 54 60 61 56 48 41 38 40 48 52 56 68 65 57 41 33 30 23 20 16 17 19
25 28 30 33 34 32 28 25 26 25 23 23 23 24 23 25 28 36 43 56 71 68 67 74 58 48 46 49 58 63 62 57 49 42 41 49 58 56 62 66 60 43 34 30 26 22 16 17 18
24 26 34 32 31 26 27 28 26 25 26 23 23 24 25 25 27 32 41 48 64 74 69 73 80 66 54 53 52 57 58 59 59 53 48 46 53 56 61 61 59 47 36 31 30 27 18 17 18
25 29 33 29 31 24 23 23 23 24 24 25 26 24 25 27 27 30 40 44 48 64 68 77 82 83 77 62 52 52 59 57 60 61 60 53 54 56 62 65 63 47 37 32 34 31 22 19 18
26 29 27 26 26 24 24 23 22 21 21 24 25 25 25 23 28 30 34 43 48 54 64 73 77 77 80 70 58 50 53 57 55 61 66 63 61 59 59 66 70 51 38 35 38 35 26 20 20
32 31 29 27 27 26 25 23 22 22 22 21 21 24 24 24 24 30 33 37 44 49 55 69 77 80 80 77 66 63 59 61 61 59 61 67 70 68 64 64 66 60 43 42 44 42 34 25 22
31 31 31 29 28 28 27 25 23 20 19 18 18 19 22 24 24 25 30 32 40 45 50 55 68 79 81 76 75 63 60 68 62 65 65 68 72 76 76 68 66 64 52 46 47 45 40 36 25
36 34 33 31 30 30 29 27 26 23 17 17 17 18 18 20 25 24 26 30 32 39 46 50 61 72 73 77 71 65 61 60 67 67 67 65 68 77 80 75 68 68 70 49 47 48 45 43 32
43 41 37 34 31 32 31 28 28 21 19 19 19 17 18 18 20 25 26 27 30 32 39 48 50 63 66 70 75 64 57 58 65 70 69 72 70 77 81 86 74 75 82 58 54 52 50 49 38
45 42 38 35 35 34 34 32 29 21 23 22 21 22 22 22 22 21 25 25 30 32 34 42 48 50 58 65 69 66 56 50 58 62 66 64 63 72 76 87 84 82 88 62 60 54 55 51 43
48 45 44 38 40 38 38 36 26 25 26 24 22 22 23 24 24 25 22 24 25 32 35 39 48 50 52 60 64 65 60 52 51 57 60 62 60 60 74 80 85 79 92 69 64 62 59 54 49
51 55 50 42 36 38 39 36 30 28 30 28 26 27 26 26 25 27 26 20 23 25 33 39 43 47 48 51 55 56 52 49 45 51 56 52 55 58 66 74 80 86 91 88 70 62 59 60 54
54 53 49 50 42 43 47 38 34 32 33 31 28 31 29 29 24 26 27 24 21 22 26 35 43 47 52 50 49 49 46 43 41 43 46 52 54 54 58 73 80 90 98 98 80 64 67 61 62
53 51 50 43 47 49 47 43 36 33 35 35 33 35 33 30 24 24 24 24 24 21 22 29 39 46 49 50 49 47 44 41 40 43 42 43 53 59 59 67 77 95 96 94 82 80 71 66 64
56 54 51 45 49 54 52 44 36 34 38 40 41 41 38 33 29 30 29 30 25 22 21 26 34 43 47 46 46 45 46 43 41 41 41 40 49 52 55 61 79 92 95 94 90 86 78 71 70
58 58 54 56 53 55 57 50 42 44 52 59 56 51 45 36 33 32 32 31 30 24 23 25 30 36 41 43 42 42 42 39 39 39 44 51 59 58 64 60 67 83 93 92 91 92 84 76 75
62 55 58 57 64 70 65 70 56 67 74 75 69 62 57 53 46 41 39 30 26 27 27 27 30 34 38 42 44 44 41 41 41 45 55 65 74 77 81 76 72 78 86 88 88 88 85 80 74
61 60 64 73 82 83 84 89 69 79 85 85 77 72 66 57 47 44 47 45 41 35 31 31 35 41 47 46 48 47 45 45 51 62 68 75 77 80 83 85 82 87 96 88 83 81 77 75 74
59 69 79 84 85 89 86 97 83 91 87 77 69 71 71 57 48 54 62 56 42 39 36 41 42 45 46 47 47 48 47 52 63 75 80 81 81 88 92 92 88 92 99 94 93 87 77 74 76
79 89 84 79 90 89 94 97 94 93 91 84 70 70 66 64 66 65 70 77 70 56 50 58 66 70 56 50 56 47 49 64 75 84 83 89 89 95 96 99 98 95 95 94 91 89 86 87 87
86 90 92 91 91 90 92 96 95 96 89 88 89 86 79 78 86 85 86 90 77 82 81 78 77 79 77 70 66 66 67 86 90 91 93 95 96 98 97 98 98 97 95 92 92 88 84 86 88
88 93 93 94 93 97 95 97 96 94 97 93 95 96 89 95 98 98 91 98 92 87 91 93 86 83 77 84 85 96 95 95 98 99 99 99 99 99 98 97 96 96 96 93 91 88 88 92 94
91 91 95 98 96 96 96 97 97 97 97 98 97 97 98 98 98 98 98 99 98 96 96 96 96 97 95 98 99 96 97 95 95 97 97 97 96 96 94 94 96 94 95 97 95 96 96 95 93
97 98 98 98 96 96 95 97 97 98 98 97 98 98 98 98 97 97 98 99 99 99 99 99 99 99 99 95 96 97 97 98 97 97 96 96 97 97 98 98 98 98 98 98 95 95 97 95 92
89 93 94 95 97 91 93 97 97 97 97 96 95 94 91 88 87 89 94 96 97 98 97 98 99 98 97 95 96 96 98 98 98 98 98 98 96 95 91 91 92 94 92 90 87 88 89 82 79

GFSSGP_prec_cthk_117.txt.gz
RH
23 28 28 30 28 29 30 23 30 28 25 22 22 23 23 22 22 29 41 42 43 48 52 53 54 58 60 57 52 45 40 40 40 38 33 32 33 34 33 43 46 45 38 31 29 23 15 16 13
22 30 32 30 29 25 19 27 27 28 26 23 21 20 22 27 32 32 40 43 47 52 54 54 52 54 54 61 61 54 47 40 38 36 34 34 34 34 43 56 57 50 42 33 29 17 14 13 13
27 33 32 31 30 24 19 25 27 28 25 24 21 20 22 30 34 35 38 43 47 53 53 54 52 50 54 55 59 59 54 48 40 39 38 38 37 43 66 66 60 46 36 29 24 18 12 14 15
28 33 34 35 32 29 25 29 29 27 27 24 23 22 22 22 27 34 36 43 47 48 50 51 49 50 49 48 51 55 55 49 45 43 49 50 49 57 73 71 66 49 35 27 24 20 15 16 17
28 29 32 34 34 34 30 31 29 28 25 24 22 22 21 22 23 32 39 42 44 47 50 48 45 46 47 49 48 51 54 52 46 42 43 45 48 65 73 74 63 49 36 30 27 22 18 16 17
24 23 26 28 29 29 28 28 29 29 26 23 21 21 22 23 23 32 39 42 42 48 60 56 54 48 46 46 49 51 54 53 51 45 43 42 47 58 71 71 65 48 40 34 30 24 19 17 17
22 20 21 25 27 27 24 23 24 24 24 22 20 21 23 22 24 30 42 44 46 54 65 77 65 58 48 42 45 48 54 57 58 53 46 46 49 55 66 69 66 52 43 37 32 28 23 18 18
21 22 28 28 27 25 28 26 24 24 23 23 23 21 20 24 25 27 37 43 47 49 57 69 77 71 67 56 50 53 52 56 58 60 58 52 52 55 58 66 65 56 44 39 34 31 29 21 19
23 25 26 24 27 22 24 23 23 23 23 24 24 23 22 23 25 26 31 39 44 53 58 62 75 73 74 77 63 70 64 55 56 58 59 61 58 58 60 64 67 60 45 40 36 32 34 26 21
26 24 23 24 25 23 23 22 21 19 19 18 18 20 22 22 23 26 27 34 41 44 50 58 64 75 80 80 86 78 65 58 54 54 55 60 64 63 64 62 69 66 55 44 37 34 39 33 25
30 27 26 25 26 25 24 23 22 21 19 17 15 13 14 15 18 20 26 28 35 42 44 47 54 64 72 81 80 82 79 71 57 54 60 59 61 65 70 68 68 71 64 49 42 40 43 40 35
29 30 30 28 27 27 25 24 23 21 18 16 16 16 15 14 14 15 17 25 31 35 42 45 48 57 66 75 76 77 80 80 68 63 58 60 63 64 72 77 76 74 70 55 46 46 47 45 42
32 32 32 30 28 27 26 26 25 23 16 17 16 16 15 14 13 13 13 15 23 30 37 42 44 46 54 67 71 79 79 77 71 69 70 71 66 65 70 76 82 77 77 67 52 52 51 49 47
38 38 36 33 31 31 29 26 28 21 19 19 18 18 18 17 16 14 13 13 14 21 29 37 44 45 48 55 62 72 73 74 72 66 67 69 68 65 71 77 81 84 78 75 66 58 54 51 52
42 40 37 35 34 33 34 33 30 22 24 22 20 19 19 17 18 17 16 15 13 13 21 30 37 47 49 51 55 61 72 70 75 65 64 68 70 72 70 74 79 80 88 85 85 71 63 56 57
46 42 39 38 39 37 37 33 27 26 26 24 22 21 19 18 16 18 19 18 17 13 13 23 32 41 49 52 50 54 67 65 72 71 61 56 64 67 65 67 68 76 86 89 83 85 72 61 60
49 50 51 44 40 40 41 36 30 26 25 23 24 24 21 19 20 20 20 18 19 18 13 14 25 35 48 52 51 51 59 62 65 67 62 53 53 58 62 61 62 67 77 80 84 86 85 72 69
56 56 52 48 40 38 39 34 32 29 27 26 26 26 24 22 21 23 24 20 21 20 18 13 16 29 41 52 53 53 54 56 59 61 59 48 44 46 53 57 54 63 67 74 90 88 83 81 79
55 52 49 42 37 40 41 37 32 32 32 28 28 28 28 26 26 27 26 22 23 21 19 16 14 19 36 46 53 51 47 48 47 50 54 48 40 40 42 44 48 55 62 61 79 96 95 92 84
53 53 49 41 42 47 45 36 33 35 36 36 36 36 34 32 31 29 26 24 23 23 21 19 16 16 24 43 51 50 49 48 45 45 44 41 38 36 36 37 38 47 59 62 70 87 94 94 89
51 51 49 51 47 47 50 43 41 45 49 51 51 49 47 44 39 35 30 28 26 24 24 22 18 16 21 35 47 51 51 49 46 43 41 40 38 34 33 38 42 46 53 64 70 86 92 93 90
53 48 52 56 63 66 64 68 60 64 68 70 68 61 57 56 52 46 42 34 31 27 27 25 22 19 21 31 41 46 44 44 41 40 42 42 40 41 44 50 61 68 70 70 70 72 83 90 87
52 53 59 65 74 79 76 85 68 75 78 84 76 69 71 70 65 54 52 47 41 34 28 26 25 24 24 30 36 44 44 41 42 43 43 45 46 52 53 61 70 73 77 76 74 66 69 89 89
55 63 69 74 74 81 76 90 83 92 92 91 85 74 70 71 69 66 53 45 50 54 45 35 29 26 29 32 38 41 44 45 45 44 46 47 54 62 60 70 72 76 81 79 79 74 81 90 89
71 77 78 73 83 81 83 92 91 94 92 88 86 86 80 73 66 63 61 60 66 71 43 37 33 31 34 40 42 47 51 51 49 48 49 55 63 67 73 76 79 86 87 88 89 81 82 90 88
77 81 87 87 85 83 89 93 93 90 94 95 96 95 95 96 92 90 92 84 81 74 51 46 44 43 51 59 60 66 52 46 44 45 54 65 77 77 78 83 86 97 98 95 96 95 94 96 95
88 90 88 93 90 94 92 95 95 91 95 96 98 97 97 98 97 95 97 94 85 79 82 75 75 76 76 78 72 61 53 52 56 65 76 82 82 86 89 89 93 96 96 98 97 99 97 96 95
93 93 97 96 95 91 89 96 97 95 96 95 96 98 98 98 98 98 97 95 88 89 93 94 92 92 88 85 82 81 93 90 95 95 94 96 95 96 97 97 97 98 98 97 98 96 94 94 95
97 98 97 98 98 95 93 94 98 96 94 96 97 97 97 96 98 98 98 98 96 97 99 99 98 99 98 98 99 97 99 96 96 97 99 99 99 99 98 97 98 97 97 98 97 96 96 96 99
92 95 95 96 96 95 95 97 96 96 96 96 94 90 88 88 91 93 95 98 98 98 98 99 98 99 99 99 99 99 99 99 99 99 99 98 98 98 98 96 97 97 96 94 94 95 95 93 89